<?xml version="1.0" encoding="UTF-8" standalone="no" ?>
<gpx xmlns="http://www.topografix.com/GPX/1/1" xmlns:xsi="http://www.w3.org/2001/XMLSchema-instance" xsi:schemaLocation="http://www.topografix.com/GPX/1/1 http://www.topografix.com/GPX/1/1/gpx.xsd" version="1.1" creator="VisuGPX - https://www.visugpx.com">
  <metadata>
    <name>ITI0345</name>
  </metadata>
  <trk>
    <name><![CDATA[ITI0345]]></name>
    <trkseg>
      <trkpt lat="45.88584" lon="2.98339">
        <ele>778.8</ele>
        <time>2014-11-17T17:34:13Z</time>
      </trkpt>
      <trkpt lat="45.88584" lon="2.98341">
        <ele>778.7</ele>
        <time>2014-11-17T17:34:13Z</time>
      </trkpt>
      <trkpt lat="45.88583" lon="2.98343">
        <ele>778.7</ele>
        <time>2014-11-17T17:34:13Z</time>
      </trkpt>
      <trkpt lat="45.88582" lon="2.98343">
        <ele>778.7</ele>
        <time>2014-11-17T17:34:13Z</time>
      </trkpt>
      <trkpt lat="45.8858" lon="2.98343">
        <ele>778.6</ele>
        <time>2014-11-17T17:34:13Z</time>
      </trkpt>
      <trkpt lat="45.8858" lon="2.98344">
        <ele>778.6</ele>
        <time>2014-11-17T17:34:13Z</time>
      </trkpt>
      <trkpt lat="45.88579" lon="2.98344">
        <ele>778.6</ele>
        <time>2014-11-17T17:34:13Z</time>
      </trkpt>
      <trkpt lat="45.88579" lon="2.98344">
        <ele>778.6</ele>
        <time>2014-11-17T17:34:13Z</time>
      </trkpt>
      <trkpt lat="45.88578" lon="2.98343">
        <ele>778.6</ele>
        <time>2014-11-17T17:34:13Z</time>
      </trkpt>
      <trkpt lat="45.88575" lon="2.98341">
        <ele>778.7</ele>
        <time>2014-11-17T17:34:13Z</time>
      </trkpt>
      <trkpt lat="45.88572" lon="2.9834">
        <ele>778.8</ele>
        <time>2014-11-17T17:34:13Z</time>
      </trkpt>
      <trkpt lat="45.88569" lon="2.98339">
        <ele>778.8</ele>
        <time>2014-11-17T17:34:13Z</time>
      </trkpt>
      <trkpt lat="45.88565" lon="2.98337">
        <ele>778.9</ele>
        <time>2014-11-17T17:34:13Z</time>
      </trkpt>
      <trkpt lat="45.88561" lon="2.98334">
        <ele>779</ele>
        <time>2014-11-17T17:34:13Z</time>
      </trkpt>
      <trkpt lat="45.88557" lon="2.98333">
        <ele>779</ele>
        <time>2014-11-17T17:34:13Z</time>
      </trkpt>
      <trkpt lat="45.88553" lon="2.98332">
        <ele>779</ele>
        <time>2014-11-17T17:34:13Z</time>
      </trkpt>
      <trkpt lat="45.88548" lon="2.98327">
        <ele>779.1</ele>
        <time>2014-11-17T17:34:13Z</time>
      </trkpt>
      <trkpt lat="45.88542" lon="2.98324">
        <ele>779.2</ele>
        <time>2014-11-17T17:34:13Z</time>
      </trkpt>
      <trkpt lat="45.88537" lon="2.98323">
        <ele>779.2</ele>
        <time>2014-11-17T17:34:13Z</time>
      </trkpt>
      <trkpt lat="45.88533" lon="2.98322">
        <ele>779.3</ele>
        <time>2014-11-17T17:34:13Z</time>
      </trkpt>
      <trkpt lat="45.88528" lon="2.98319">
        <ele>779.5</ele>
        <time>2014-11-17T17:34:13Z</time>
      </trkpt>
      <trkpt lat="45.88523" lon="2.98314">
        <ele>779.7</ele>
        <time>2014-11-17T17:34:13Z</time>
      </trkpt>
      <trkpt lat="45.88519" lon="2.98311">
        <ele>779.8</ele>
        <time>2014-11-17T17:34:13Z</time>
      </trkpt>
      <trkpt lat="45.88517" lon="2.98308">
        <ele>779.9</ele>
        <time>2014-11-17T17:34:13Z</time>
      </trkpt>
      <trkpt lat="45.88511" lon="2.98307">
        <ele>780</ele>
        <time>2014-11-17T17:34:13Z</time>
      </trkpt>
      <trkpt lat="45.88506" lon="2.98304">
        <ele>780</ele>
        <time>2014-11-17T17:34:13Z</time>
      </trkpt>
      <trkpt lat="45.88501" lon="2.98302">
        <ele>780</ele>
        <time>2014-11-17T17:34:13Z</time>
      </trkpt>
      <trkpt lat="45.88497" lon="2.983">
        <ele>780</ele>
        <time>2014-11-17T17:34:13Z</time>
      </trkpt>
      <trkpt lat="45.88491" lon="2.98299">
        <ele>780.1</ele>
        <time>2014-11-17T17:34:13Z</time>
      </trkpt>
      <trkpt lat="45.88487" lon="2.98295">
        <ele>780.2</ele>
        <time>2014-11-17T17:34:13Z</time>
      </trkpt>
      <trkpt lat="45.88481" lon="2.98292">
        <ele>780.3</ele>
        <time>2014-11-17T17:34:13Z</time>
      </trkpt>
      <trkpt lat="45.88477" lon="2.98289">
        <ele>780.5</ele>
        <time>2014-11-17T17:34:13Z</time>
      </trkpt>
      <trkpt lat="45.88472" lon="2.98287">
        <ele>780.7</ele>
        <time>2014-11-17T17:34:13Z</time>
      </trkpt>
      <trkpt lat="45.88466" lon="2.98284">
        <ele>780.8</ele>
        <time>2014-11-17T17:34:13Z</time>
      </trkpt>
      <trkpt lat="45.8846" lon="2.98282">
        <ele>780.9</ele>
        <time>2014-11-17T17:34:13Z</time>
      </trkpt>
      <trkpt lat="45.88453" lon="2.98279">
        <ele>781</ele>
        <time>2014-11-17T17:34:13Z</time>
      </trkpt>
      <trkpt lat="45.88447" lon="2.98275">
        <ele>781.1</ele>
        <time>2014-11-17T17:34:13Z</time>
      </trkpt>
      <trkpt lat="45.8844" lon="2.98271">
        <ele>781.2</ele>
        <time>2014-11-17T17:34:13Z</time>
      </trkpt>
      <trkpt lat="45.88434" lon="2.98268">
        <ele>781.3</ele>
        <time>2014-11-17T17:34:13Z</time>
      </trkpt>
      <trkpt lat="45.8843" lon="2.9826">
        <ele>781.6</ele>
        <time>2014-11-17T17:34:13Z</time>
      </trkpt>
      <trkpt lat="45.8843" lon="2.98251">
        <ele>782</ele>
        <time>2014-11-17T17:34:13Z</time>
      </trkpt>
      <trkpt lat="45.8843" lon="2.9824">
        <ele>782.5</ele>
        <time>2014-11-17T17:34:13Z</time>
      </trkpt>
      <trkpt lat="45.88434" lon="2.98232">
        <ele>782.9</ele>
        <time>2014-11-17T17:34:13Z</time>
      </trkpt>
      <trkpt lat="45.88437" lon="2.98225">
        <ele>783.1</ele>
        <time>2014-11-17T17:34:13Z</time>
      </trkpt>
      <trkpt lat="45.88441" lon="2.9822">
        <ele>783.3</ele>
        <time>2014-11-17T17:34:13Z</time>
      </trkpt>
      <trkpt lat="45.88446" lon="2.98215">
        <ele>783.5</ele>
        <time>2014-11-17T17:34:13Z</time>
      </trkpt>
      <trkpt lat="45.88451" lon="2.98208">
        <ele>783.7</ele>
        <time>2014-11-17T17:34:13Z</time>
      </trkpt>
      <trkpt lat="45.88455" lon="2.98202">
        <ele>783.9</ele>
        <time>2014-11-17T17:34:13Z</time>
      </trkpt>
      <trkpt lat="45.88459" lon="2.98194">
        <ele>784</ele>
        <time>2014-11-17T17:34:13Z</time>
      </trkpt>
      <trkpt lat="45.88461" lon="2.98187">
        <ele>784.1</ele>
        <time>2014-11-17T17:34:13Z</time>
      </trkpt>
      <trkpt lat="45.88463" lon="2.98177">
        <ele>784.3</ele>
        <time>2014-11-17T17:34:13Z</time>
      </trkpt>
      <trkpt lat="45.88466" lon="2.98169">
        <ele>784.4</ele>
        <time>2014-11-17T17:34:13Z</time>
      </trkpt>
      <trkpt lat="45.88467" lon="2.98159">
        <ele>784.9</ele>
        <time>2014-11-17T17:34:13Z</time>
      </trkpt>
      <trkpt lat="45.88471" lon="2.98152">
        <ele>785.2</ele>
        <time>2014-11-17T17:34:13Z</time>
      </trkpt>
      <trkpt lat="45.88474" lon="2.98145">
        <ele>785.5</ele>
        <time>2014-11-17T17:34:13Z</time>
      </trkpt>
      <trkpt lat="45.88477" lon="2.98138">
        <ele>785.9</ele>
        <time>2014-11-17T17:34:13Z</time>
      </trkpt>
      <trkpt lat="45.88479" lon="2.98131">
        <ele>786</ele>
        <time>2014-11-17T17:34:13Z</time>
      </trkpt>
      <trkpt lat="45.88481" lon="2.98124">
        <ele>786.2</ele>
        <time>2014-11-17T17:34:13Z</time>
      </trkpt>
      <trkpt lat="45.88482" lon="2.98114">
        <ele>786.6</ele>
        <time>2014-11-17T17:34:13Z</time>
      </trkpt>
      <trkpt lat="45.88483" lon="2.98106">
        <ele>786.9</ele>
        <time>2014-11-17T17:34:13Z</time>
      </trkpt>
      <trkpt lat="45.88482" lon="2.98097">
        <ele>787.5</ele>
        <time>2014-11-17T17:34:13Z</time>
      </trkpt>
      <trkpt lat="45.88483" lon="2.98088">
        <ele>788</ele>
        <time>2014-11-17T17:34:13Z</time>
      </trkpt>
      <trkpt lat="45.88484" lon="2.9808">
        <ele>788.3</ele>
        <time>2014-11-17T17:34:13Z</time>
      </trkpt>
      <trkpt lat="45.88484" lon="2.98072">
        <ele>788.6</ele>
        <time>2014-11-17T17:34:13Z</time>
      </trkpt>
      <trkpt lat="45.88483" lon="2.98063">
        <ele>788.9</ele>
        <time>2014-11-17T17:34:13Z</time>
      </trkpt>
      <trkpt lat="45.88483" lon="2.98055">
        <ele>789.3</ele>
        <time>2014-11-17T17:34:13Z</time>
      </trkpt>
      <trkpt lat="45.88483" lon="2.98045">
        <ele>789.8</ele>
        <time>2014-11-17T17:34:13Z</time>
      </trkpt>
      <trkpt lat="45.88485" lon="2.98037">
        <ele>790.1</ele>
        <time>2014-11-17T17:34:13Z</time>
      </trkpt>
      <trkpt lat="45.88486" lon="2.98029">
        <ele>790.5</ele>
        <time>2014-11-17T17:34:13Z</time>
      </trkpt>
      <trkpt lat="45.88486" lon="2.98018">
        <ele>790.6</ele>
        <time>2014-11-17T17:34:13Z</time>
      </trkpt>
      <trkpt lat="45.88487" lon="2.98011">
        <ele>790.7</ele>
        <time>2014-11-17T17:34:13Z</time>
      </trkpt>
      <trkpt lat="45.88486" lon="2.98002">
        <ele>790.9</ele>
        <time>2014-11-17T17:34:13Z</time>
      </trkpt>
      <trkpt lat="45.88483" lon="2.97996">
        <ele>791.4</ele>
        <time>2014-11-17T17:34:13Z</time>
      </trkpt>
      <trkpt lat="45.88478" lon="2.97993">
        <ele>792</ele>
        <time>2014-11-17T17:34:13Z</time>
      </trkpt>
      <trkpt lat="45.88472" lon="2.97993">
        <ele>792.5</ele>
        <time>2014-11-17T17:34:13Z</time>
      </trkpt>
      <trkpt lat="45.88468" lon="2.97992">
        <ele>793</ele>
        <time>2014-11-17T17:34:13Z</time>
      </trkpt>
      <trkpt lat="45.88463" lon="2.97992">
        <ele>793.4</ele>
        <time>2014-11-17T17:34:13Z</time>
      </trkpt>
      <trkpt lat="45.88458" lon="2.97995">
        <ele>793.8</ele>
        <time>2014-11-17T17:34:13Z</time>
      </trkpt>
      <trkpt lat="45.88454" lon="2.97995">
        <ele>794.2</ele>
        <time>2014-11-17T17:34:13Z</time>
      </trkpt>
      <trkpt lat="45.88447" lon="2.97994">
        <ele>794.9</ele>
        <time>2014-11-17T17:34:13Z</time>
      </trkpt>
      <trkpt lat="45.88442" lon="2.97995">
        <ele>795.4</ele>
        <time>2014-11-17T17:34:13Z</time>
      </trkpt>
      <trkpt lat="45.88436" lon="2.97994">
        <ele>795.9</ele>
        <time>2014-11-17T17:34:13Z</time>
      </trkpt>
      <trkpt lat="45.88431" lon="2.97991">
        <ele>796.5</ele>
        <time>2014-11-17T17:34:13Z</time>
      </trkpt>
      <trkpt lat="45.88425" lon="2.9799">
        <ele>797</ele>
        <time>2014-11-17T17:34:13Z</time>
      </trkpt>
      <trkpt lat="45.88419" lon="2.97989">
        <ele>797.6</ele>
        <time>2014-11-17T17:34:13Z</time>
      </trkpt>
      <trkpt lat="45.88415" lon="2.97985">
        <ele>798.3</ele>
        <time>2014-11-17T17:34:13Z</time>
      </trkpt>
      <trkpt lat="45.8841" lon="2.97984">
        <ele>799.2</ele>
        <time>2014-11-17T17:34:13Z</time>
      </trkpt>
      <trkpt lat="45.88404" lon="2.97983">
        <ele>800.2</ele>
        <time>2014-11-17T17:34:13Z</time>
      </trkpt>
      <trkpt lat="45.88396" lon="2.97981">
        <ele>801.6</ele>
        <time>2014-11-17T17:34:13Z</time>
      </trkpt>
      <trkpt lat="45.88396" lon="2.97978">
        <ele>801.7</ele>
        <time>2014-11-17T17:34:13Z</time>
      </trkpt>
      <trkpt lat="45.88397" lon="2.97973">
        <ele>801.8</ele>
        <time>2014-11-17T17:34:13Z</time>
      </trkpt>
      <trkpt lat="45.88398" lon="2.97967">
        <ele>801.9</ele>
        <time>2014-11-17T17:34:13Z</time>
      </trkpt>
      <trkpt lat="45.88396" lon="2.9796">
        <ele>802.6</ele>
        <time>2014-11-17T17:34:13Z</time>
      </trkpt>
      <trkpt lat="45.88397" lon="2.97955">
        <ele>802.7</ele>
        <time>2014-11-17T17:34:13Z</time>
      </trkpt>
      <trkpt lat="45.88397" lon="2.97953">
        <ele>802.8</ele>
        <time>2014-11-17T17:34:13Z</time>
      </trkpt>
      <trkpt lat="45.88396" lon="2.97951">
        <ele>803.1</ele>
        <time>2014-11-17T17:34:13Z</time>
      </trkpt>
      <trkpt lat="45.88396" lon="2.97947">
        <ele>803.3</ele>
        <time>2014-11-17T17:34:13Z</time>
      </trkpt>
      <trkpt lat="45.88396" lon="2.97945">
        <ele>803.4</ele>
        <time>2014-11-17T17:34:13Z</time>
      </trkpt>
      <trkpt lat="45.88397" lon="2.97943">
        <ele>803.3</ele>
        <time>2014-11-17T17:34:13Z</time>
      </trkpt>
      <trkpt lat="45.88397" lon="2.97939">
        <ele>803.4</ele>
        <time>2014-11-17T17:34:13Z</time>
      </trkpt>
      <trkpt lat="45.88396" lon="2.97939">
        <ele>803.7</ele>
        <time>2014-11-17T17:34:13Z</time>
      </trkpt>
      <trkpt lat="45.88394" lon="2.97938">
        <ele>804.2</ele>
        <time>2014-11-17T17:34:13Z</time>
      </trkpt>
      <trkpt lat="45.88388" lon="2.97935">
        <ele>805.3</ele>
        <time>2014-11-17T17:34:13Z</time>
      </trkpt>
      <trkpt lat="45.88386" lon="2.9793">
        <ele>805.5</ele>
        <time>2014-11-17T17:34:13Z</time>
      </trkpt>
      <trkpt lat="45.88382" lon="2.97922">
        <ele>805.8</ele>
        <time>2014-11-17T17:34:13Z</time>
      </trkpt>
      <trkpt lat="45.88381" lon="2.97912">
        <ele>806</ele>
        <time>2014-11-17T17:34:13Z</time>
      </trkpt>
      <trkpt lat="45.8838" lon="2.97905">
        <ele>806.1</ele>
        <time>2014-11-17T17:34:13Z</time>
      </trkpt>
      <trkpt lat="45.8838" lon="2.97898">
        <ele>806.2</ele>
        <time>2014-11-17T17:34:13Z</time>
      </trkpt>
      <trkpt lat="45.8838" lon="2.97891">
        <ele>806.3</ele>
        <time>2014-11-17T17:34:13Z</time>
      </trkpt>
      <trkpt lat="45.88381" lon="2.97883">
        <ele>806.4</ele>
        <time>2014-11-17T17:34:13Z</time>
      </trkpt>
      <trkpt lat="45.88381" lon="2.97874">
        <ele>806.6</ele>
        <time>2014-11-17T17:34:13Z</time>
      </trkpt>
      <trkpt lat="45.88379" lon="2.97867">
        <ele>807</ele>
        <time>2014-11-17T17:34:13Z</time>
      </trkpt>
      <trkpt lat="45.88378" lon="2.97859">
        <ele>807.1</ele>
        <time>2014-11-17T17:34:13Z</time>
      </trkpt>
      <trkpt lat="45.88374" lon="2.9785">
        <ele>807.5</ele>
        <time>2014-11-17T17:34:13Z</time>
      </trkpt>
      <trkpt lat="45.88373" lon="2.97839">
        <ele>807.4</ele>
        <time>2014-11-17T17:34:13Z</time>
      </trkpt>
      <trkpt lat="45.88369" lon="2.97832">
        <ele>807.9</ele>
        <time>2014-11-17T17:34:13Z</time>
      </trkpt>
      <trkpt lat="45.88366" lon="2.97823">
        <ele>808.2</ele>
        <time>2014-11-17T17:34:13Z</time>
      </trkpt>
      <trkpt lat="45.88364" lon="2.97815">
        <ele>808.6</ele>
        <time>2014-11-17T17:34:13Z</time>
      </trkpt>
      <trkpt lat="45.88362" lon="2.97805">
        <ele>808.7</ele>
        <time>2014-11-17T17:34:13Z</time>
      </trkpt>
      <trkpt lat="45.88359" lon="2.97796">
        <ele>808</ele>
        <time>2014-11-17T17:34:13Z</time>
      </trkpt>
      <trkpt lat="45.88356" lon="2.97787">
        <ele>807.4</ele>
        <time>2014-11-17T17:34:13Z</time>
      </trkpt>
      <trkpt lat="45.88356" lon="2.9778">
        <ele>807</ele>
        <time>2014-11-17T17:34:13Z</time>
      </trkpt>
      <trkpt lat="45.88354" lon="2.97775">
        <ele>807</ele>
        <time>2014-11-17T17:34:13Z</time>
      </trkpt>
      <trkpt lat="45.88352" lon="2.9777">
        <ele>807.2</ele>
        <time>2014-11-17T17:34:13Z</time>
      </trkpt>
      <trkpt lat="45.88351" lon="2.97763">
        <ele>807.4</ele>
        <time>2014-11-17T17:34:13Z</time>
      </trkpt>
      <trkpt lat="45.88351" lon="2.9776">
        <ele>807.3</ele>
        <time>2014-11-17T17:34:13Z</time>
      </trkpt>
      <trkpt lat="45.8835" lon="2.97756">
        <ele>807.4</ele>
        <time>2014-11-17T17:34:13Z</time>
      </trkpt>
      <trkpt lat="45.88349" lon="2.97747">
        <ele>807.6</ele>
        <time>2014-11-17T17:34:13Z</time>
      </trkpt>
      <trkpt lat="45.88347" lon="2.9774">
        <ele>808.1</ele>
        <time>2014-11-17T17:34:13Z</time>
      </trkpt>
      <trkpt lat="45.88346" lon="2.97732">
        <ele>808.3</ele>
        <time>2014-11-17T17:34:13Z</time>
      </trkpt>
      <trkpt lat="45.88345" lon="2.97724">
        <ele>808.5</ele>
        <time>2014-11-17T17:34:13Z</time>
      </trkpt>
      <trkpt lat="45.88343" lon="2.97717">
        <ele>808.9</ele>
        <time>2014-11-17T17:34:13Z</time>
      </trkpt>
      <trkpt lat="45.8834" lon="2.97709">
        <ele>809.4</ele>
        <time>2014-11-17T17:34:13Z</time>
      </trkpt>
      <trkpt lat="45.8834" lon="2.97703">
        <ele>809.1</ele>
        <time>2014-11-17T17:34:13Z</time>
      </trkpt>
      <trkpt lat="45.88341" lon="2.977">
        <ele>809</ele>
        <time>2014-11-17T17:34:13Z</time>
      </trkpt>
      <trkpt lat="45.88341" lon="2.97702">
        <ele>809.1</ele>
        <time>2014-11-17T17:34:13Z</time>
      </trkpt>
      <trkpt lat="45.88339" lon="2.97703">
        <ele>809.4</ele>
        <time>2014-11-17T17:34:13Z</time>
      </trkpt>
      <trkpt lat="45.88337" lon="2.97702">
        <ele>809.7</ele>
        <time>2014-11-17T17:34:13Z</time>
      </trkpt>
      <trkpt lat="45.88334" lon="2.97696">
        <ele>810</ele>
        <time>2014-11-17T17:34:13Z</time>
      </trkpt>
      <trkpt lat="45.88336" lon="2.97696">
        <ele>809.7</ele>
        <time>2014-11-17T17:34:13Z</time>
      </trkpt>
      <trkpt lat="45.88339" lon="2.97696">
        <ele>809.3</ele>
        <time>2014-11-17T17:34:13Z</time>
      </trkpt>
      <trkpt lat="45.88335" lon="2.97692">
        <ele>809.8</ele>
        <time>2014-11-17T17:34:13Z</time>
      </trkpt>
      <trkpt lat="45.88328" lon="2.97688">
        <ele>811.6</ele>
        <time>2014-11-17T17:34:13Z</time>
      </trkpt>
      <trkpt lat="45.88322" lon="2.97682">
        <ele>813</ele>
        <time>2014-11-17T17:34:13Z</time>
      </trkpt>
      <trkpt lat="45.88317" lon="2.97682">
        <ele>814.1</ele>
        <time>2014-11-17T17:34:13Z</time>
      </trkpt>
      <trkpt lat="45.88313" lon="2.97678">
        <ele>815</ele>
        <time>2014-11-17T17:34:13Z</time>
      </trkpt>
      <trkpt lat="45.8831" lon="2.97678">
        <ele>815.8</ele>
        <time>2014-11-17T17:34:13Z</time>
      </trkpt>
      <trkpt lat="45.88306" lon="2.97678">
        <ele>816.6</ele>
        <time>2014-11-17T17:34:13Z</time>
      </trkpt>
      <trkpt lat="45.88301" lon="2.97675">
        <ele>817.6</ele>
        <time>2014-11-17T17:34:13Z</time>
      </trkpt>
      <trkpt lat="45.88296" lon="2.97673">
        <ele>818.4</ele>
        <time>2014-11-17T17:34:13Z</time>
      </trkpt>
      <trkpt lat="45.88291" lon="2.97672">
        <ele>819.5</ele>
        <time>2014-11-17T17:34:13Z</time>
      </trkpt>
      <trkpt lat="45.88286" lon="2.97669">
        <ele>820.3</ele>
        <time>2014-11-17T17:34:13Z</time>
      </trkpt>
      <trkpt lat="45.88281" lon="2.97668">
        <ele>821.3</ele>
        <time>2014-11-17T17:34:13Z</time>
      </trkpt>
      <trkpt lat="45.88277" lon="2.9767">
        <ele>822.2</ele>
        <time>2014-11-17T17:34:13Z</time>
      </trkpt>
      <trkpt lat="45.88272" lon="2.97669">
        <ele>822.9</ele>
        <time>2014-11-17T17:34:13Z</time>
      </trkpt>
      <trkpt lat="45.88266" lon="2.97667">
        <ele>823.8</ele>
        <time>2014-11-17T17:34:13Z</time>
      </trkpt>
      <trkpt lat="45.8826" lon="2.97666">
        <ele>824.5</ele>
        <time>2014-11-17T17:34:13Z</time>
      </trkpt>
      <trkpt lat="45.88257" lon="2.97667">
        <ele>825</ele>
        <time>2014-11-17T17:34:13Z</time>
      </trkpt>
      <trkpt lat="45.88255" lon="2.97668">
        <ele>825.3</ele>
        <time>2014-11-17T17:34:13Z</time>
      </trkpt>
      <trkpt lat="45.88252" lon="2.97668">
        <ele>825.8</ele>
        <time>2014-11-17T17:34:13Z</time>
      </trkpt>
      <trkpt lat="45.88249" lon="2.97668">
        <ele>826.3</ele>
        <time>2014-11-17T17:34:13Z</time>
      </trkpt>
      <trkpt lat="45.88246" lon="2.97671">
        <ele>826.9</ele>
        <time>2014-11-17T17:34:13Z</time>
      </trkpt>
      <trkpt lat="45.88242" lon="2.97676">
        <ele>827.6</ele>
        <time>2014-11-17T17:34:13Z</time>
      </trkpt>
      <trkpt lat="45.88239" lon="2.97678">
        <ele>828.1</ele>
        <time>2014-11-17T17:34:13Z</time>
      </trkpt>
      <trkpt lat="45.88236" lon="2.97676">
        <ele>828.5</ele>
        <time>2014-11-17T17:34:13Z</time>
      </trkpt>
      <trkpt lat="45.88233" lon="2.9767">
        <ele>829</ele>
        <time>2014-11-17T17:34:13Z</time>
      </trkpt>
      <trkpt lat="45.8823" lon="2.97664">
        <ele>829.7</ele>
        <time>2014-11-17T17:34:13Z</time>
      </trkpt>
      <trkpt lat="45.88226" lon="2.9766">
        <ele>830.5</ele>
        <time>2014-11-17T17:34:13Z</time>
      </trkpt>
      <trkpt lat="45.88224" lon="2.97662">
        <ele>830.9</ele>
        <time>2014-11-17T17:34:13Z</time>
      </trkpt>
      <trkpt lat="45.8822" lon="2.9766">
        <ele>831.5</ele>
        <time>2014-11-17T17:34:13Z</time>
      </trkpt>
      <trkpt lat="45.88217" lon="2.97654">
        <ele>832.2</ele>
        <time>2014-11-17T17:34:13Z</time>
      </trkpt>
      <trkpt lat="45.88213" lon="2.97649">
        <ele>832.9</ele>
        <time>2014-11-17T17:34:13Z</time>
      </trkpt>
      <trkpt lat="45.8821" lon="2.97642">
        <ele>833.7</ele>
        <time>2014-11-17T17:34:13Z</time>
      </trkpt>
      <trkpt lat="45.88207" lon="2.97637">
        <ele>834.2</ele>
        <time>2014-11-17T17:34:13Z</time>
      </trkpt>
      <trkpt lat="45.88203" lon="2.97632">
        <ele>834.8</ele>
        <time>2014-11-17T17:34:13Z</time>
      </trkpt>
      <trkpt lat="45.882" lon="2.97629">
        <ele>835.3</ele>
        <time>2014-11-17T17:34:13Z</time>
      </trkpt>
      <trkpt lat="45.88197" lon="2.97624">
        <ele>836</ele>
        <time>2014-11-17T17:34:13Z</time>
      </trkpt>
      <trkpt lat="45.88195" lon="2.97619">
        <ele>836.6</ele>
        <time>2014-11-17T17:34:13Z</time>
      </trkpt>
      <trkpt lat="45.88192" lon="2.97616">
        <ele>837.5</ele>
        <time>2014-11-17T17:34:13Z</time>
      </trkpt>
      <trkpt lat="45.88189" lon="2.97613">
        <ele>838.6</ele>
        <time>2014-11-17T17:34:13Z</time>
      </trkpt>
      <trkpt lat="45.88186" lon="2.9761">
        <ele>839.6</ele>
        <time>2014-11-17T17:34:13Z</time>
      </trkpt>
      <trkpt lat="45.88182" lon="2.97608">
        <ele>840.9</ele>
        <time>2014-11-17T17:34:13Z</time>
      </trkpt>
      <trkpt lat="45.88178" lon="2.97607">
        <ele>842.3</ele>
        <time>2014-11-17T17:34:13Z</time>
      </trkpt>
      <trkpt lat="45.88174" lon="2.97608">
        <ele>843.5</ele>
        <time>2014-11-17T17:34:13Z</time>
      </trkpt>
      <trkpt lat="45.88171" lon="2.97609">
        <ele>844.7</ele>
        <time>2014-11-17T17:34:13Z</time>
      </trkpt>
      <trkpt lat="45.88167" lon="2.97612">
        <ele>845.9</ele>
        <time>2014-11-17T17:34:13Z</time>
      </trkpt>
      <trkpt lat="45.88164" lon="2.97612">
        <ele>846.9</ele>
        <time>2014-11-17T17:34:13Z</time>
      </trkpt>
      <trkpt lat="45.88162" lon="2.97615">
        <ele>847.5</ele>
        <time>2014-11-17T17:34:13Z</time>
      </trkpt>
      <trkpt lat="45.88159" lon="2.97617">
        <ele>848.2</ele>
        <time>2014-11-17T17:34:13Z</time>
      </trkpt>
      <trkpt lat="45.88156" lon="2.97622">
        <ele>848.9</ele>
        <time>2014-11-17T17:34:13Z</time>
      </trkpt>
      <trkpt lat="45.88154" lon="2.97625">
        <ele>849.5</ele>
        <time>2014-11-17T17:34:13Z</time>
      </trkpt>
      <trkpt lat="45.88152" lon="2.97628">
        <ele>850.1</ele>
        <time>2014-11-17T17:34:13Z</time>
      </trkpt>
      <trkpt lat="45.88149" lon="2.97633">
        <ele>850.9</ele>
        <time>2014-11-17T17:34:13Z</time>
      </trkpt>
      <trkpt lat="45.88145" lon="2.97637">
        <ele>851.9</ele>
        <time>2014-11-17T17:34:13Z</time>
      </trkpt>
      <trkpt lat="45.88143" lon="2.9764">
        <ele>852.5</ele>
        <time>2014-11-17T17:34:13Z</time>
      </trkpt>
      <trkpt lat="45.88141" lon="2.97642">
        <ele>853.2</ele>
        <time>2014-11-17T17:34:13Z</time>
      </trkpt>
      <trkpt lat="45.88138" lon="2.97643">
        <ele>854</ele>
        <time>2014-11-17T17:34:13Z</time>
      </trkpt>
      <trkpt lat="45.88134" lon="2.97642">
        <ele>855.1</ele>
        <time>2014-11-17T17:34:13Z</time>
      </trkpt>
      <trkpt lat="45.88132" lon="2.97642">
        <ele>855.5</ele>
        <time>2014-11-17T17:34:13Z</time>
      </trkpt>
      <trkpt lat="45.8813" lon="2.97643">
        <ele>856.1</ele>
        <time>2014-11-17T17:34:13Z</time>
      </trkpt>
      <trkpt lat="45.88129" lon="2.97643">
        <ele>856.4</ele>
        <time>2014-11-17T17:34:13Z</time>
      </trkpt>
      <trkpt lat="45.88125" lon="2.97639">
        <ele>857.6</ele>
        <time>2014-11-17T17:34:13Z</time>
      </trkpt>
      <trkpt lat="45.88122" lon="2.97637">
        <ele>858.4</ele>
        <time>2014-11-17T17:34:13Z</time>
      </trkpt>
      <trkpt lat="45.8812" lon="2.97638">
        <ele>858.8</ele>
        <time>2014-11-17T17:34:13Z</time>
      </trkpt>
      <trkpt lat="45.88115" lon="2.97636">
        <ele>860.2</ele>
        <time>2014-11-17T17:34:13Z</time>
      </trkpt>
      <trkpt lat="45.88112" lon="2.97637">
        <ele>860.9</ele>
        <time>2014-11-17T17:34:13Z</time>
      </trkpt>
      <trkpt lat="45.88106" lon="2.9764">
        <ele>862</ele>
        <time>2014-11-17T17:34:13Z</time>
      </trkpt>
      <trkpt lat="45.88102" lon="2.97643">
        <ele>862.9</ele>
        <time>2014-11-17T17:34:13Z</time>
      </trkpt>
      <trkpt lat="45.88099" lon="2.97641">
        <ele>863.3</ele>
        <time>2014-11-17T17:34:13Z</time>
      </trkpt>
      <trkpt lat="45.88095" lon="2.97641">
        <ele>864.2</ele>
        <time>2014-11-17T17:34:13Z</time>
      </trkpt>
      <trkpt lat="45.8809" lon="2.97643">
        <ele>865.5</ele>
        <time>2014-11-17T17:34:13Z</time>
      </trkpt>
      <trkpt lat="45.88084" lon="2.97646">
        <ele>867</ele>
        <time>2014-11-17T17:34:13Z</time>
      </trkpt>
      <trkpt lat="45.88081" lon="2.97646">
        <ele>867.6</ele>
        <time>2014-11-17T17:34:13Z</time>
      </trkpt>
      <trkpt lat="45.88077" lon="2.97649">
        <ele>868.7</ele>
        <time>2014-11-17T17:34:13Z</time>
      </trkpt>
      <trkpt lat="45.88074" lon="2.97654">
        <ele>870.2</ele>
        <time>2014-11-17T17:34:13Z</time>
      </trkpt>
      <trkpt lat="45.88072" lon="2.97659">
        <ele>871.3</ele>
        <time>2014-11-17T17:34:13Z</time>
      </trkpt>
      <trkpt lat="45.88071" lon="2.97662">
        <ele>871.9</ele>
        <time>2014-11-17T17:34:13Z</time>
      </trkpt>
      <trkpt lat="45.88068" lon="2.97668">
        <ele>873.4</ele>
        <time>2014-11-17T17:34:13Z</time>
      </trkpt>
      <trkpt lat="45.88065" lon="2.97672">
        <ele>874.7</ele>
        <time>2014-11-17T17:34:13Z</time>
      </trkpt>
      <trkpt lat="45.88063" lon="2.97677">
        <ele>875.9</ele>
        <time>2014-11-17T17:34:13Z</time>
      </trkpt>
      <trkpt lat="45.88061" lon="2.97679">
        <ele>876.7</ele>
        <time>2014-11-17T17:34:13Z</time>
      </trkpt>
      <trkpt lat="45.88059" lon="2.9768">
        <ele>877.5</ele>
        <time>2014-11-17T17:34:13Z</time>
      </trkpt>
      <trkpt lat="45.88053" lon="2.9768">
        <ele>878</ele>
        <time>2014-11-17T17:34:13Z</time>
      </trkpt>
      <trkpt lat="45.88047" lon="2.97679">
        <ele>878.1</ele>
        <time>2014-11-17T17:34:13Z</time>
      </trkpt>
      <trkpt lat="45.88041" lon="2.97678">
        <ele>877.9</ele>
        <time>2014-11-17T17:34:13Z</time>
      </trkpt>
      <trkpt lat="45.88037" lon="2.97675">
        <ele>877.4</ele>
        <time>2014-11-17T17:34:13Z</time>
      </trkpt>
      <trkpt lat="45.88031" lon="2.97671">
        <ele>876.8</ele>
        <time>2014-11-17T17:34:13Z</time>
      </trkpt>
      <trkpt lat="45.88026" lon="2.9767">
        <ele>877</ele>
        <time>2014-11-17T17:34:13Z</time>
      </trkpt>
      <trkpt lat="45.88022" lon="2.97668">
        <ele>876.7</ele>
        <time>2014-11-17T17:34:13Z</time>
      </trkpt>
      <trkpt lat="45.88018" lon="2.97667">
        <ele>876.7</ele>
        <time>2014-11-17T17:34:13Z</time>
      </trkpt>
      <trkpt lat="45.88012" lon="2.97667">
        <ele>877.2</ele>
        <time>2014-11-17T17:34:13Z</time>
      </trkpt>
      <trkpt lat="45.88008" lon="2.97667">
        <ele>877.6</ele>
        <time>2014-11-17T17:34:13Z</time>
      </trkpt>
      <trkpt lat="45.88004" lon="2.97662">
        <ele>876.8</ele>
        <time>2014-11-17T17:34:13Z</time>
      </trkpt>
      <trkpt lat="45.88" lon="2.9766">
        <ele>876.6</ele>
        <time>2014-11-17T17:34:13Z</time>
      </trkpt>
      <trkpt lat="45.87996" lon="2.97659">
        <ele>876.5</ele>
        <time>2014-11-17T17:34:13Z</time>
      </trkpt>
      <trkpt lat="45.87992" lon="2.97656">
        <ele>876.2</ele>
        <time>2014-11-17T17:34:13Z</time>
      </trkpt>
      <trkpt lat="45.87989" lon="2.97656">
        <ele>876.5</ele>
        <time>2014-11-17T17:34:13Z</time>
      </trkpt>
      <trkpt lat="45.87985" lon="2.97656">
        <ele>876.6</ele>
        <time>2014-11-17T17:34:13Z</time>
      </trkpt>
      <trkpt lat="45.87984" lon="2.97658">
        <ele>877</ele>
        <time>2014-11-17T17:34:13Z</time>
      </trkpt>
      <trkpt lat="45.8798" lon="2.9766">
        <ele>877.6</ele>
        <time>2014-11-17T17:34:13Z</time>
      </trkpt>
      <trkpt lat="45.87979" lon="2.97663">
        <ele>878.2</ele>
        <time>2014-11-17T17:34:13Z</time>
      </trkpt>
      <trkpt lat="45.87976" lon="2.97666">
        <ele>878.7</ele>
        <time>2014-11-17T17:34:13Z</time>
      </trkpt>
      <trkpt lat="45.87972" lon="2.97667">
        <ele>879</ele>
        <time>2014-11-17T17:34:13Z</time>
      </trkpt>
      <trkpt lat="45.87969" lon="2.97666">
        <ele>878.5</ele>
        <time>2014-11-17T17:34:13Z</time>
      </trkpt>
      <trkpt lat="45.87967" lon="2.97668">
        <ele>878.4</ele>
        <time>2014-11-17T17:34:13Z</time>
      </trkpt>
      <trkpt lat="45.87967" lon="2.97672">
        <ele>878.8</ele>
        <time>2014-11-17T17:34:13Z</time>
      </trkpt>
      <trkpt lat="45.87966" lon="2.97677">
        <ele>879.1</ele>
        <time>2014-11-17T17:34:13Z</time>
      </trkpt>
      <trkpt lat="45.87964" lon="2.97683">
        <ele>879.5</ele>
        <time>2014-11-17T17:34:13Z</time>
      </trkpt>
      <trkpt lat="45.87966" lon="2.97689">
        <ele>880.6</ele>
        <time>2014-11-17T17:34:13Z</time>
      </trkpt>
      <trkpt lat="45.87967" lon="2.97696">
        <ele>881.5</ele>
        <time>2014-11-17T17:34:13Z</time>
      </trkpt>
      <trkpt lat="45.87969" lon="2.97701">
        <ele>882.3</ele>
        <time>2014-11-17T17:34:13Z</time>
      </trkpt>
      <trkpt lat="45.87971" lon="2.97703">
        <ele>882.9</ele>
        <time>2014-11-17T17:34:13Z</time>
      </trkpt>
      <trkpt lat="45.87973" lon="2.97707">
        <ele>883.5</ele>
        <time>2014-11-17T17:34:13Z</time>
      </trkpt>
      <trkpt lat="45.87977" lon="2.97712">
        <ele>884.2</ele>
        <time>2014-11-17T17:34:13Z</time>
      </trkpt>
      <trkpt lat="45.87981" lon="2.97715">
        <ele>885</ele>
        <time>2014-11-17T17:34:13Z</time>
      </trkpt>
      <trkpt lat="45.87985" lon="2.97717">
        <ele>885.8</ele>
        <time>2014-11-17T17:34:13Z</time>
      </trkpt>
      <trkpt lat="45.87989" lon="2.97718">
        <ele>886.5</ele>
        <time>2014-11-17T17:34:13Z</time>
      </trkpt>
      <trkpt lat="45.87992" lon="2.97723">
        <ele>887.6</ele>
        <time>2014-11-17T17:34:13Z</time>
      </trkpt>
      <trkpt lat="45.87992" lon="2.97727">
        <ele>888.1</ele>
        <time>2014-11-17T17:34:13Z</time>
      </trkpt>
      <trkpt lat="45.87994" lon="2.97731">
        <ele>888.7</ele>
        <time>2014-11-17T17:34:13Z</time>
      </trkpt>
      <trkpt lat="45.87996" lon="2.97736">
        <ele>889.6</ele>
        <time>2014-11-17T17:34:13Z</time>
      </trkpt>
      <trkpt lat="45.87996" lon="2.9774">
        <ele>890.1</ele>
        <time>2014-11-17T17:34:13Z</time>
      </trkpt>
      <trkpt lat="45.87999" lon="2.97745">
        <ele>891.2</ele>
        <time>2014-11-17T17:34:13Z</time>
      </trkpt>
      <trkpt lat="45.88002" lon="2.97749">
        <ele>891.9</ele>
        <time>2014-11-17T17:34:13Z</time>
      </trkpt>
      <trkpt lat="45.88004" lon="2.97753">
        <ele>891.9</ele>
        <time>2014-11-17T17:34:13Z</time>
      </trkpt>
      <trkpt lat="45.88008" lon="2.97757">
        <ele>891.8</ele>
        <time>2014-11-17T17:34:13Z</time>
      </trkpt>
      <trkpt lat="45.8801" lon="2.97762">
        <ele>891.7</ele>
        <time>2014-11-17T17:34:13Z</time>
      </trkpt>
      <trkpt lat="45.88011" lon="2.97768">
        <ele>891.6</ele>
        <time>2014-11-17T17:34:13Z</time>
      </trkpt>
      <trkpt lat="45.88013" lon="2.97772">
        <ele>891.6</ele>
        <time>2014-11-17T17:34:13Z</time>
      </trkpt>
      <trkpt lat="45.88018" lon="2.97775">
        <ele>891.7</ele>
        <time>2014-11-17T17:34:13Z</time>
      </trkpt>
      <trkpt lat="45.88021" lon="2.9778">
        <ele>891.5</ele>
        <time>2014-11-17T17:34:13Z</time>
      </trkpt>
      <trkpt lat="45.8802" lon="2.97783">
        <ele>891.1</ele>
        <time>2014-11-17T17:34:13Z</time>
      </trkpt>
      <trkpt lat="45.88022" lon="2.97778">
        <ele>891.8</ele>
        <time>2014-11-17T17:34:13Z</time>
      </trkpt>
      <trkpt lat="45.88023" lon="2.97779">
        <ele>891.7</ele>
        <time>2014-11-17T17:34:13Z</time>
      </trkpt>
      <trkpt lat="45.88019" lon="2.97784">
        <ele>891</ele>
        <time>2014-11-17T17:34:13Z</time>
      </trkpt>
      <trkpt lat="45.88018" lon="2.97784">
        <ele>891</ele>
        <time>2014-11-17T17:34:13Z</time>
      </trkpt>
      <trkpt lat="45.88017" lon="2.9778">
        <ele>891.4</ele>
        <time>2014-11-17T17:34:13Z</time>
      </trkpt>
      <trkpt lat="45.88015" lon="2.97776">
        <ele>891.6</ele>
        <time>2014-11-17T17:34:13Z</time>
      </trkpt>
      <trkpt lat="45.88011" lon="2.97776">
        <ele>891.4</ele>
        <time>2014-11-17T17:34:13Z</time>
      </trkpt>
      <trkpt lat="45.88008" lon="2.97781">
        <ele>891</ele>
        <time>2014-11-17T17:34:13Z</time>
      </trkpt>
      <trkpt lat="45.88007" lon="2.97786">
        <ele>890.4</ele>
        <time>2014-11-17T17:34:13Z</time>
      </trkpt>
      <trkpt lat="45.88007" lon="2.97792">
        <ele>889.7</ele>
        <time>2014-11-17T17:34:13Z</time>
      </trkpt>
      <trkpt lat="45.88005" lon="2.97798">
        <ele>889</ele>
        <time>2014-11-17T17:34:13Z</time>
      </trkpt>
      <trkpt lat="45.88006" lon="2.97805">
        <ele>888.3</ele>
        <time>2014-11-17T17:34:13Z</time>
      </trkpt>
      <trkpt lat="45.88007" lon="2.97809">
        <ele>887.6</ele>
        <time>2014-11-17T17:34:13Z</time>
      </trkpt>
      <trkpt lat="45.88008" lon="2.97815">
        <ele>886.4</ele>
        <time>2014-11-17T17:34:13Z</time>
      </trkpt>
      <trkpt lat="45.88004" lon="2.97818">
        <ele>885.6</ele>
        <time>2014-11-17T17:34:13Z</time>
      </trkpt>
      <trkpt lat="45.88003" lon="2.97823">
        <ele>884.5</ele>
        <time>2014-11-17T17:34:13Z</time>
      </trkpt>
      <trkpt lat="45.88004" lon="2.97827">
        <ele>883.6</ele>
        <time>2014-11-17T17:34:13Z</time>
      </trkpt>
      <trkpt lat="45.88005" lon="2.97833">
        <ele>882.5</ele>
        <time>2014-11-17T17:34:13Z</time>
      </trkpt>
      <trkpt lat="45.8801" lon="2.9784">
        <ele>881.1</ele>
        <time>2014-11-17T17:34:13Z</time>
      </trkpt>
      <trkpt lat="45.88011" lon="2.97847">
        <ele>879.8</ele>
        <time>2014-11-17T17:34:13Z</time>
      </trkpt>
      <trkpt lat="45.88012" lon="2.97857">
        <ele>877.6</ele>
        <time>2014-11-17T17:34:13Z</time>
      </trkpt>
      <trkpt lat="45.88015" lon="2.97863">
        <ele>876.5</ele>
        <time>2014-11-17T17:34:13Z</time>
      </trkpt>
      <trkpt lat="45.88015" lon="2.97868">
        <ele>875.6</ele>
        <time>2014-11-17T17:34:13Z</time>
      </trkpt>
      <trkpt lat="45.88015" lon="2.97871">
        <ele>874.6</ele>
        <time>2014-11-17T17:34:13Z</time>
      </trkpt>
      <trkpt lat="45.88014" lon="2.97874">
        <ele>873.7</ele>
        <time>2014-11-17T17:34:13Z</time>
      </trkpt>
      <trkpt lat="45.88014" lon="2.97881">
        <ele>872</ele>
        <time>2014-11-17T17:34:13Z</time>
      </trkpt>
      <trkpt lat="45.88017" lon="2.97887">
        <ele>871.1</ele>
        <time>2014-11-17T17:34:13Z</time>
      </trkpt>
      <trkpt lat="45.88019" lon="2.97892">
        <ele>870</ele>
        <time>2014-11-17T17:34:13Z</time>
      </trkpt>
      <trkpt lat="45.8802" lon="2.97897">
        <ele>868.5</ele>
        <time>2014-11-17T17:34:13Z</time>
      </trkpt>
      <trkpt lat="45.88024" lon="2.97901">
        <ele>867.8</ele>
        <time>2014-11-17T17:34:13Z</time>
      </trkpt>
      <trkpt lat="45.88027" lon="2.97905">
        <ele>867.2</ele>
        <time>2014-11-17T17:34:13Z</time>
      </trkpt>
      <trkpt lat="45.8803" lon="2.97911">
        <ele>863.4</ele>
        <time>2014-11-17T17:34:13Z</time>
      </trkpt>
      <trkpt lat="45.88033" lon="2.97916">
        <ele>859.5</ele>
        <time>2014-11-17T17:34:13Z</time>
      </trkpt>
      <trkpt lat="45.88034" lon="2.97922">
        <ele>856.3</ele>
        <time>2014-11-17T17:34:13Z</time>
      </trkpt>
      <trkpt lat="45.88034" lon="2.97927">
        <ele>854.1</ele>
        <time>2014-11-17T17:34:13Z</time>
      </trkpt>
      <trkpt lat="45.88036" lon="2.97934">
        <ele>850.4</ele>
        <time>2014-11-17T17:34:13Z</time>
      </trkpt>
      <trkpt lat="45.88038" lon="2.97939">
        <ele>847.5</ele>
        <time>2014-11-17T17:34:13Z</time>
      </trkpt>
      <trkpt lat="45.88039" lon="2.97942">
        <ele>845.9</ele>
        <time>2014-11-17T17:34:13Z</time>
      </trkpt>
      <trkpt lat="45.88038" lon="2.97943">
        <ele>846.1</ele>
        <time>2014-11-17T17:34:13Z</time>
      </trkpt>
      <trkpt lat="45.88037" lon="2.97943">
        <ele>846.4</ele>
        <time>2014-11-17T17:34:13Z</time>
      </trkpt>
      <trkpt lat="45.88035" lon="2.97942">
        <ele>848</ele>
        <time>2014-11-17T17:34:13Z</time>
      </trkpt>
      <trkpt lat="45.88031" lon="2.97939">
        <ele>851.2</ele>
        <time>2014-11-17T17:34:13Z</time>
      </trkpt>
      <trkpt lat="45.88027" lon="2.97939">
        <ele>853.3</ele>
        <time>2014-11-17T17:34:13Z</time>
      </trkpt>
      <trkpt lat="45.88026" lon="2.97939">
        <ele>853.2</ele>
        <time>2014-11-17T17:34:13Z</time>
      </trkpt>
      <trkpt lat="45.88022" lon="2.97936">
        <ele>854.2</ele>
        <time>2014-11-17T17:34:13Z</time>
      </trkpt>
      <trkpt lat="45.88018" lon="2.97933">
        <ele>855.4</ele>
        <time>2014-11-17T17:34:13Z</time>
      </trkpt>
      <trkpt lat="45.88013" lon="2.97931">
        <ele>855.9</ele>
        <time>2014-11-17T17:34:13Z</time>
      </trkpt>
      <trkpt lat="45.88008" lon="2.97932">
        <ele>855.1</ele>
        <time>2014-11-17T17:34:13Z</time>
      </trkpt>
      <trkpt lat="45.88003" lon="2.97931">
        <ele>855.1</ele>
        <time>2014-11-17T17:34:13Z</time>
      </trkpt>
      <trkpt lat="45.87997" lon="2.97929">
        <ele>854.6</ele>
        <time>2014-11-17T17:34:13Z</time>
      </trkpt>
      <trkpt lat="45.87992" lon="2.97929">
        <ele>853.5</ele>
        <time>2014-11-17T17:34:13Z</time>
      </trkpt>
      <trkpt lat="45.87987" lon="2.97929">
        <ele>852.2</ele>
        <time>2014-11-17T17:34:13Z</time>
      </trkpt>
      <trkpt lat="45.87981" lon="2.97928">
        <ele>851.2</ele>
        <time>2014-11-17T17:34:13Z</time>
      </trkpt>
      <trkpt lat="45.87976" lon="2.97926">
        <ele>850.5</ele>
        <time>2014-11-17T17:34:13Z</time>
      </trkpt>
      <trkpt lat="45.87971" lon="2.97926">
        <ele>849.3</ele>
        <time>2014-11-17T17:34:13Z</time>
      </trkpt>
      <trkpt lat="45.87964" lon="2.97926">
        <ele>847.4</ele>
        <time>2014-11-17T17:34:13Z</time>
      </trkpt>
      <trkpt lat="45.87959" lon="2.97923">
        <ele>846.6</ele>
        <time>2014-11-17T17:34:13Z</time>
      </trkpt>
      <trkpt lat="45.87956" lon="2.97919">
        <ele>846.8</ele>
        <time>2014-11-17T17:34:13Z</time>
      </trkpt>
      <trkpt lat="45.87952" lon="2.97916">
        <ele>846.5</ele>
        <time>2014-11-17T17:34:13Z</time>
      </trkpt>
      <trkpt lat="45.87948" lon="2.97912">
        <ele>846</ele>
        <time>2014-11-17T17:34:13Z</time>
      </trkpt>
      <trkpt lat="45.87942" lon="2.9791">
        <ele>844.6</ele>
        <time>2014-11-17T17:34:13Z</time>
      </trkpt>
      <trkpt lat="45.87937" lon="2.9791">
        <ele>842.9</ele>
        <time>2014-11-17T17:34:13Z</time>
      </trkpt>
      <trkpt lat="45.87932" lon="2.97905">
        <ele>842.6</ele>
        <time>2014-11-17T17:34:13Z</time>
      </trkpt>
      <trkpt lat="45.87928" lon="2.97903">
        <ele>841.7</ele>
        <time>2014-11-17T17:34:13Z</time>
      </trkpt>
      <trkpt lat="45.87923" lon="2.97901">
        <ele>840.5</ele>
        <time>2014-11-17T17:34:13Z</time>
      </trkpt>
      <trkpt lat="45.87917" lon="2.97899">
        <ele>838.8</ele>
        <time>2014-11-17T17:34:13Z</time>
      </trkpt>
      <trkpt lat="45.87913" lon="2.97896">
        <ele>838.3</ele>
        <time>2014-11-17T17:34:13Z</time>
      </trkpt>
      <trkpt lat="45.87909" lon="2.97893">
        <ele>837.4</ele>
        <time>2014-11-17T17:34:13Z</time>
      </trkpt>
      <trkpt lat="45.87905" lon="2.97889">
        <ele>836.8</ele>
        <time>2014-11-17T17:34:13Z</time>
      </trkpt>
      <trkpt lat="45.879" lon="2.97886">
        <ele>835.6</ele>
        <time>2014-11-17T17:34:13Z</time>
      </trkpt>
      <trkpt lat="45.87895" lon="2.97886">
        <ele>833.9</ele>
        <time>2014-11-17T17:34:13Z</time>
      </trkpt>
      <trkpt lat="45.87891" lon="2.9788">
        <ele>833.1</ele>
        <time>2014-11-17T17:34:13Z</time>
      </trkpt>
      <trkpt lat="45.87886" lon="2.97876">
        <ele>831.9</ele>
        <time>2014-11-17T17:34:13Z</time>
      </trkpt>
      <trkpt lat="45.87882" lon="2.97871">
        <ele>830.8</ele>
        <time>2014-11-17T17:34:13Z</time>
      </trkpt>
      <trkpt lat="45.87878" lon="2.97868">
        <ele>829.7</ele>
        <time>2014-11-17T17:34:13Z</time>
      </trkpt>
      <trkpt lat="45.87874" lon="2.97863">
        <ele>828.8</ele>
        <time>2014-11-17T17:34:13Z</time>
      </trkpt>
      <trkpt lat="45.87869" lon="2.97854">
        <ele>828.3</ele>
        <time>2014-11-17T17:34:13Z</time>
      </trkpt>
      <trkpt lat="45.87867" lon="2.9785">
        <ele>827.8</ele>
        <time>2014-11-17T17:34:13Z</time>
      </trkpt>
      <trkpt lat="45.87861" lon="2.97845">
        <ele>826.2</ele>
        <time>2014-11-17T17:34:13Z</time>
      </trkpt>
      <trkpt lat="45.87856" lon="2.97842">
        <ele>824.9</ele>
        <time>2014-11-17T17:34:13Z</time>
      </trkpt>
      <trkpt lat="45.87855" lon="2.97838">
        <ele>825.1</ele>
        <time>2014-11-17T17:34:13Z</time>
      </trkpt>
      <trkpt lat="45.87851" lon="2.97834">
        <ele>823.9</ele>
        <time>2014-11-17T17:34:13Z</time>
      </trkpt>
      <trkpt lat="45.87848" lon="2.97827">
        <ele>823.4</ele>
        <time>2014-11-17T17:34:13Z</time>
      </trkpt>
      <trkpt lat="45.87842" lon="2.97823">
        <ele>821.9</ele>
        <time>2014-11-17T17:34:13Z</time>
      </trkpt>
      <trkpt lat="45.8784" lon="2.9782">
        <ele>821.2</ele>
        <time>2014-11-17T17:34:13Z</time>
      </trkpt>
      <trkpt lat="45.87837" lon="2.97817">
        <ele>820.8</ele>
        <time>2014-11-17T17:34:13Z</time>
      </trkpt>
      <trkpt lat="45.87834" lon="2.97811">
        <ele>820.3</ele>
        <time>2014-11-17T17:34:13Z</time>
      </trkpt>
      <trkpt lat="45.87827" lon="2.97806">
        <ele>819.2</ele>
        <time>2014-11-17T17:34:13Z</time>
      </trkpt>
      <trkpt lat="45.87823" lon="2.97803">
        <ele>818.3</ele>
        <time>2014-11-17T17:34:13Z</time>
      </trkpt>
      <trkpt lat="45.87819" lon="2.97797">
        <ele>817.3</ele>
        <time>2014-11-17T17:34:13Z</time>
      </trkpt>
      <trkpt lat="45.87816" lon="2.97795">
        <ele>816.6</ele>
        <time>2014-11-17T17:34:13Z</time>
      </trkpt>
      <trkpt lat="45.87813" lon="2.97796">
        <ele>815.5</ele>
        <time>2014-11-17T17:34:13Z</time>
      </trkpt>
      <trkpt lat="45.87811" lon="2.97788">
        <ele>815.2</ele>
        <time>2014-11-17T17:34:13Z</time>
      </trkpt>
      <trkpt lat="45.87808" lon="2.97783">
        <ele>814.7</ele>
        <time>2014-11-17T17:34:13Z</time>
      </trkpt>
      <trkpt lat="45.87804" lon="2.9778">
        <ele>813.6</ele>
        <time>2014-11-17T17:34:13Z</time>
      </trkpt>
      <trkpt lat="45.87801" lon="2.97777">
        <ele>813.2</ele>
        <time>2014-11-17T17:34:13Z</time>
      </trkpt>
      <trkpt lat="45.87797" lon="2.97774">
        <ele>812.6</ele>
        <time>2014-11-17T17:34:13Z</time>
      </trkpt>
      <trkpt lat="45.87793" lon="2.9777">
        <ele>811.9</ele>
        <time>2014-11-17T17:34:13Z</time>
      </trkpt>
      <trkpt lat="45.87791" lon="2.97767">
        <ele>811.6</ele>
        <time>2014-11-17T17:34:13Z</time>
      </trkpt>
      <trkpt lat="45.87787" lon="2.97762">
        <ele>810.9</ele>
        <time>2014-11-17T17:34:13Z</time>
      </trkpt>
      <trkpt lat="45.87785" lon="2.97753">
        <ele>810.5</ele>
        <time>2014-11-17T17:34:13Z</time>
      </trkpt>
      <trkpt lat="45.8778" lon="2.97751">
        <ele>809.4</ele>
        <time>2014-11-17T17:34:13Z</time>
      </trkpt>
      <trkpt lat="45.87775" lon="2.9775">
        <ele>808.7</ele>
        <time>2014-11-17T17:34:13Z</time>
      </trkpt>
      <trkpt lat="45.87766" lon="2.97746">
        <ele>807.8</ele>
        <time>2014-11-17T17:34:13Z</time>
      </trkpt>
      <trkpt lat="45.87759" lon="2.97744">
        <ele>807</ele>
        <time>2014-11-17T17:34:13Z</time>
      </trkpt>
      <trkpt lat="45.87752" lon="2.97743">
        <ele>806.2</ele>
        <time>2014-11-17T17:34:13Z</time>
      </trkpt>
      <trkpt lat="45.87747" lon="2.97742">
        <ele>805.8</ele>
        <time>2014-11-17T17:34:13Z</time>
      </trkpt>
      <trkpt lat="45.87742" lon="2.9774">
        <ele>805.4</ele>
        <time>2014-11-17T17:34:13Z</time>
      </trkpt>
      <trkpt lat="45.87737" lon="2.97734">
        <ele>805</ele>
        <time>2014-11-17T17:34:13Z</time>
      </trkpt>
      <trkpt lat="45.87732" lon="2.97734">
        <ele>804.7</ele>
        <time>2014-11-17T17:34:13Z</time>
      </trkpt>
      <trkpt lat="45.87727" lon="2.97734">
        <ele>804.3</ele>
        <time>2014-11-17T17:34:13Z</time>
      </trkpt>
      <trkpt lat="45.87723" lon="2.97735">
        <ele>804.1</ele>
        <time>2014-11-17T17:34:13Z</time>
      </trkpt>
      <trkpt lat="45.8772" lon="2.97736">
        <ele>803.9</ele>
        <time>2014-11-17T17:34:13Z</time>
      </trkpt>
      <trkpt lat="45.87716" lon="2.9774">
        <ele>803.6</ele>
        <time>2014-11-17T17:34:13Z</time>
      </trkpt>
      <trkpt lat="45.87712" lon="2.97743">
        <ele>803.3</ele>
        <time>2014-11-17T17:34:13Z</time>
      </trkpt>
      <trkpt lat="45.87709" lon="2.97747">
        <ele>803.1</ele>
        <time>2014-11-17T17:34:13Z</time>
      </trkpt>
      <trkpt lat="45.87706" lon="2.97753">
        <ele>802.7</ele>
        <time>2014-11-17T17:34:13Z</time>
      </trkpt>
      <trkpt lat="45.87704" lon="2.97756">
        <ele>802.5</ele>
        <time>2014-11-17T17:34:13Z</time>
      </trkpt>
      <trkpt lat="45.87702" lon="2.97763">
        <ele>802.1</ele>
        <time>2014-11-17T17:34:13Z</time>
      </trkpt>
      <trkpt lat="45.87702" lon="2.9777">
        <ele>801.8</ele>
        <time>2014-11-17T17:34:13Z</time>
      </trkpt>
      <trkpt lat="45.87701" lon="2.97776">
        <ele>801.6</ele>
        <time>2014-11-17T17:34:13Z</time>
      </trkpt>
      <trkpt lat="45.877" lon="2.97781">
        <ele>801.4</ele>
        <time>2014-11-17T17:34:13Z</time>
      </trkpt>
      <trkpt lat="45.87699" lon="2.97788">
        <ele>801.2</ele>
        <time>2014-11-17T17:34:13Z</time>
      </trkpt>
      <trkpt lat="45.87699" lon="2.97795">
        <ele>801.2</ele>
        <time>2014-11-17T17:34:13Z</time>
      </trkpt>
      <trkpt lat="45.87698" lon="2.97802">
        <ele>801.1</ele>
        <time>2014-11-17T17:34:13Z</time>
      </trkpt>
      <trkpt lat="45.87698" lon="2.97808">
        <ele>801.1</ele>
        <time>2014-11-17T17:34:13Z</time>
      </trkpt>
      <trkpt lat="45.87697" lon="2.97816">
        <ele>801.1</ele>
        <time>2014-11-17T17:34:13Z</time>
      </trkpt>
      <trkpt lat="45.87696" lon="2.97823">
        <ele>801.1</ele>
        <time>2014-11-17T17:34:13Z</time>
      </trkpt>
      <trkpt lat="45.87696" lon="2.97829">
        <ele>801.1</ele>
        <time>2014-11-17T17:34:13Z</time>
      </trkpt>
      <trkpt lat="45.87698" lon="2.97838">
        <ele>801</ele>
        <time>2014-11-17T17:34:13Z</time>
      </trkpt>
      <trkpt lat="45.87698" lon="2.97845">
        <ele>800.7</ele>
        <time>2014-11-17T17:34:13Z</time>
      </trkpt>
      <trkpt lat="45.87698" lon="2.97851">
        <ele>800.5</ele>
        <time>2014-11-17T17:34:13Z</time>
      </trkpt>
      <trkpt lat="45.87701" lon="2.97859">
        <ele>800.3</ele>
        <time>2014-11-17T17:34:13Z</time>
      </trkpt>
      <trkpt lat="45.87701" lon="2.97865">
        <ele>800.2</ele>
        <time>2014-11-17T17:34:13Z</time>
      </trkpt>
      <trkpt lat="45.87702" lon="2.97871">
        <ele>800.2</ele>
        <time>2014-11-17T17:34:13Z</time>
      </trkpt>
      <trkpt lat="45.87704" lon="2.97878">
        <ele>800.1</ele>
        <time>2014-11-17T17:34:13Z</time>
      </trkpt>
      <trkpt lat="45.87704" lon="2.97887">
        <ele>800</ele>
        <time>2014-11-17T17:34:13Z</time>
      </trkpt>
      <trkpt lat="45.87706" lon="2.97894">
        <ele>800</ele>
        <time>2014-11-17T17:34:13Z</time>
      </trkpt>
      <trkpt lat="45.87709" lon="2.97901">
        <ele>800</ele>
        <time>2014-11-17T17:34:13Z</time>
      </trkpt>
      <trkpt lat="45.8771" lon="2.97907">
        <ele>800</ele>
        <time>2014-11-17T17:34:13Z</time>
      </trkpt>
      <trkpt lat="45.87712" lon="2.97914">
        <ele>800</ele>
        <time>2014-11-17T17:34:13Z</time>
      </trkpt>
      <trkpt lat="45.87713" lon="2.97922">
        <ele>799.9</ele>
        <time>2014-11-17T17:34:13Z</time>
      </trkpt>
      <trkpt lat="45.87715" lon="2.97929">
        <ele>799.7</ele>
        <time>2014-11-17T17:34:13Z</time>
      </trkpt>
      <trkpt lat="45.87716" lon="2.97938">
        <ele>799.4</ele>
        <time>2014-11-17T17:34:13Z</time>
      </trkpt>
      <trkpt lat="45.87719" lon="2.97945">
        <ele>799.1</ele>
        <time>2014-11-17T17:34:13Z</time>
      </trkpt>
      <trkpt lat="45.87721" lon="2.9795">
        <ele>799.1</ele>
        <time>2014-11-17T17:34:13Z</time>
      </trkpt>
      <trkpt lat="45.87722" lon="2.97958">
        <ele>799</ele>
        <time>2014-11-17T17:34:13Z</time>
      </trkpt>
      <trkpt lat="45.87725" lon="2.97965">
        <ele>799.1</ele>
        <time>2014-11-17T17:34:13Z</time>
      </trkpt>
      <trkpt lat="45.87726" lon="2.97973">
        <ele>799.1</ele>
        <time>2014-11-17T17:34:13Z</time>
      </trkpt>
      <trkpt lat="45.87728" lon="2.9798">
        <ele>798.9</ele>
        <time>2014-11-17T17:34:13Z</time>
      </trkpt>
      <trkpt lat="45.87729" lon="2.97987">
        <ele>798.7</ele>
        <time>2014-11-17T17:34:13Z</time>
      </trkpt>
      <trkpt lat="45.8773" lon="2.97995">
        <ele>798.4</ele>
        <time>2014-11-17T17:34:13Z</time>
      </trkpt>
      <trkpt lat="45.87731" lon="2.98003">
        <ele>798.2</ele>
        <time>2014-11-17T17:34:13Z</time>
      </trkpt>
      <trkpt lat="45.87733" lon="2.98012">
        <ele>798</ele>
        <time>2014-11-17T17:34:13Z</time>
      </trkpt>
      <trkpt lat="45.87736" lon="2.98019">
        <ele>797.8</ele>
        <time>2014-11-17T17:34:13Z</time>
      </trkpt>
      <trkpt lat="45.87737" lon="2.98026">
        <ele>797.6</ele>
        <time>2014-11-17T17:34:13Z</time>
      </trkpt>
      <trkpt lat="45.87738" lon="2.98033">
        <ele>797.3</ele>
        <time>2014-11-17T17:34:13Z</time>
      </trkpt>
      <trkpt lat="45.87741" lon="2.98039">
        <ele>797</ele>
        <time>2014-11-17T17:34:13Z</time>
      </trkpt>
      <trkpt lat="45.87744" lon="2.98047">
        <ele>796.5</ele>
        <time>2014-11-17T17:34:13Z</time>
      </trkpt>
      <trkpt lat="45.87745" lon="2.98054">
        <ele>796.1</ele>
        <time>2014-11-17T17:34:13Z</time>
      </trkpt>
      <trkpt lat="45.87744" lon="2.98061">
        <ele>795.8</ele>
        <time>2014-11-17T17:34:13Z</time>
      </trkpt>
      <trkpt lat="45.87744" lon="2.9807">
        <ele>795.5</ele>
        <time>2014-11-17T17:34:13Z</time>
      </trkpt>
      <trkpt lat="45.87743" lon="2.98079">
        <ele>795.1</ele>
        <time>2014-11-17T17:34:13Z</time>
      </trkpt>
      <trkpt lat="45.87741" lon="2.9808">
        <ele>795.1</ele>
        <time>2014-11-17T17:34:13Z</time>
      </trkpt>
      <trkpt lat="45.87741" lon="2.98081">
        <ele>795.1</ele>
        <time>2014-11-17T17:34:13Z</time>
      </trkpt>
      <trkpt lat="45.8774" lon="2.98081">
        <ele>795.1</ele>
        <time>2014-11-17T17:34:13Z</time>
      </trkpt>
      <trkpt lat="45.87735" lon="2.98082">
        <ele>795.1</ele>
        <time>2014-11-17T17:34:13Z</time>
      </trkpt>
      <trkpt lat="45.8773" lon="2.98082">
        <ele>795.1</ele>
        <time>2014-11-17T17:34:13Z</time>
      </trkpt>
      <trkpt lat="45.87724" lon="2.9808">
        <ele>795.1</ele>
        <time>2014-11-17T17:34:13Z</time>
      </trkpt>
      <trkpt lat="45.87719" lon="2.98079">
        <ele>795.2</ele>
        <time>2014-11-17T17:34:13Z</time>
      </trkpt>
      <trkpt lat="45.87714" lon="2.9808">
        <ele>795.1</ele>
        <time>2014-11-17T17:34:13Z</time>
      </trkpt>
      <trkpt lat="45.87709" lon="2.98081">
        <ele>795.1</ele>
        <time>2014-11-17T17:34:13Z</time>
      </trkpt>
      <trkpt lat="45.87707" lon="2.98081">
        <ele>795.1</ele>
        <time>2014-11-17T17:34:13Z</time>
      </trkpt>
      <trkpt lat="45.87707" lon="2.98082">
        <ele>795</ele>
        <time>2014-11-17T17:34:13Z</time>
      </trkpt>
      <trkpt lat="45.87707" lon="2.98081">
        <ele>795.1</ele>
        <time>2014-11-17T17:34:13Z</time>
      </trkpt>
      <trkpt lat="45.87707" lon="2.9808">
        <ele>795.1</ele>
        <time>2014-11-17T17:34:13Z</time>
      </trkpt>
      <trkpt lat="45.87704" lon="2.98079">
        <ele>795.2</ele>
        <time>2014-11-17T17:34:13Z</time>
      </trkpt>
      <trkpt lat="45.87699" lon="2.98081">
        <ele>795.1</ele>
        <time>2014-11-17T17:34:13Z</time>
      </trkpt>
      <trkpt lat="45.87695" lon="2.98085">
        <ele>794.9</ele>
        <time>2014-11-17T17:34:13Z</time>
      </trkpt>
      <trkpt lat="45.87691" lon="2.98088">
        <ele>794.7</ele>
        <time>2014-11-17T17:34:13Z</time>
      </trkpt>
      <trkpt lat="45.87686" lon="2.98089">
        <ele>794.7</ele>
        <time>2014-11-17T17:34:13Z</time>
      </trkpt>
      <trkpt lat="45.87681" lon="2.98089">
        <ele>794.7</ele>
        <time>2014-11-17T17:34:13Z</time>
      </trkpt>
      <trkpt lat="45.87676" lon="2.98091">
        <ele>794.6</ele>
        <time>2014-11-17T17:34:13Z</time>
      </trkpt>
      <trkpt lat="45.87669" lon="2.98093">
        <ele>794.6</ele>
        <time>2014-11-17T17:34:13Z</time>
      </trkpt>
      <trkpt lat="45.87663" lon="2.98094">
        <ele>794.7</ele>
        <time>2014-11-17T17:34:13Z</time>
      </trkpt>
      <trkpt lat="45.87656" lon="2.98094">
        <ele>794.8</ele>
        <time>2014-11-17T17:34:13Z</time>
      </trkpt>
      <trkpt lat="45.8765" lon="2.98093">
        <ele>795</ele>
        <time>2014-11-17T17:34:13Z</time>
      </trkpt>
      <trkpt lat="45.87644" lon="2.98093">
        <ele>795.2</ele>
        <time>2014-11-17T17:34:13Z</time>
      </trkpt>
      <trkpt lat="45.87638" lon="2.98093">
        <ele>795.3</ele>
        <time>2014-11-17T17:34:13Z</time>
      </trkpt>
      <trkpt lat="45.87631" lon="2.98096">
        <ele>795.7</ele>
        <time>2014-11-17T17:34:13Z</time>
      </trkpt>
      <trkpt lat="45.87625" lon="2.98096">
        <ele>796.3</ele>
        <time>2014-11-17T17:34:13Z</time>
      </trkpt>
      <trkpt lat="45.87618" lon="2.98097">
        <ele>796.9</ele>
        <time>2014-11-17T17:34:13Z</time>
      </trkpt>
      <trkpt lat="45.87611" lon="2.98099">
        <ele>797.5</ele>
        <time>2014-11-17T17:34:13Z</time>
      </trkpt>
      <trkpt lat="45.87605" lon="2.981">
        <ele>797.6</ele>
        <time>2014-11-17T17:34:13Z</time>
      </trkpt>
      <trkpt lat="45.87598" lon="2.981">
        <ele>797.9</ele>
        <time>2014-11-17T17:34:13Z</time>
      </trkpt>
      <trkpt lat="45.87592" lon="2.98099">
        <ele>798.1</ele>
        <time>2014-11-17T17:34:13Z</time>
      </trkpt>
      <trkpt lat="45.87587" lon="2.98098">
        <ele>798.3</ele>
        <time>2014-11-17T17:34:13Z</time>
      </trkpt>
      <trkpt lat="45.87581" lon="2.98097">
        <ele>798.6</ele>
        <time>2014-11-17T17:34:13Z</time>
      </trkpt>
      <trkpt lat="45.87575" lon="2.98094">
        <ele>799</ele>
        <time>2014-11-17T17:34:13Z</time>
      </trkpt>
      <trkpt lat="45.87572" lon="2.98088">
        <ele>799.3</ele>
        <time>2014-11-17T17:34:13Z</time>
      </trkpt>
      <trkpt lat="45.8757" lon="2.98081">
        <ele>799.5</ele>
        <time>2014-11-17T17:34:13Z</time>
      </trkpt>
      <trkpt lat="45.87568" lon="2.98074">
        <ele>799.7</ele>
        <time>2014-11-17T17:34:13Z</time>
      </trkpt>
      <trkpt lat="45.87567" lon="2.98065">
        <ele>799.9</ele>
        <time>2014-11-17T17:34:13Z</time>
      </trkpt>
      <trkpt lat="45.87564" lon="2.98055">
        <ele>800</ele>
        <time>2014-11-17T17:34:13Z</time>
      </trkpt>
      <trkpt lat="45.87562" lon="2.98047">
        <ele>800.2</ele>
        <time>2014-11-17T17:34:13Z</time>
      </trkpt>
      <trkpt lat="45.87559" lon="2.9804">
        <ele>800.5</ele>
        <time>2014-11-17T17:34:13Z</time>
      </trkpt>
      <trkpt lat="45.87557" lon="2.98032">
        <ele>800.8</ele>
        <time>2014-11-17T17:34:13Z</time>
      </trkpt>
      <trkpt lat="45.87554" lon="2.98025">
        <ele>801.2</ele>
        <time>2014-11-17T17:34:13Z</time>
      </trkpt>
      <trkpt lat="45.87549" lon="2.98019">
        <ele>801.8</ele>
        <time>2014-11-17T17:34:13Z</time>
      </trkpt>
      <trkpt lat="45.87546" lon="2.98013">
        <ele>802.2</ele>
        <time>2014-11-17T17:34:13Z</time>
      </trkpt>
      <trkpt lat="45.87541" lon="2.98006">
        <ele>802.9</ele>
        <time>2014-11-17T17:34:13Z</time>
      </trkpt>
      <trkpt lat="45.87536" lon="2.97998">
        <ele>803.5</ele>
        <time>2014-11-17T17:34:13Z</time>
      </trkpt>
      <trkpt lat="45.87532" lon="2.9799">
        <ele>804.1</ele>
        <time>2014-11-17T17:34:13Z</time>
      </trkpt>
      <trkpt lat="45.87528" lon="2.97981">
        <ele>804.7</ele>
        <time>2014-11-17T17:34:13Z</time>
      </trkpt>
      <trkpt lat="45.87524" lon="2.97976">
        <ele>805</ele>
        <time>2014-11-17T17:34:13Z</time>
      </trkpt>
      <trkpt lat="45.87521" lon="2.97969">
        <ele>805.3</ele>
        <time>2014-11-17T17:34:13Z</time>
      </trkpt>
      <trkpt lat="45.87518" lon="2.97959">
        <ele>805.6</ele>
        <time>2014-11-17T17:34:13Z</time>
      </trkpt>
      <trkpt lat="45.87515" lon="2.97952">
        <ele>806.1</ele>
        <time>2014-11-17T17:34:13Z</time>
      </trkpt>
      <trkpt lat="45.87512" lon="2.97944">
        <ele>806.7</ele>
        <time>2014-11-17T17:34:13Z</time>
      </trkpt>
      <trkpt lat="45.87509" lon="2.97938">
        <ele>807.1</ele>
        <time>2014-11-17T17:34:13Z</time>
      </trkpt>
      <trkpt lat="45.87504" lon="2.97931">
        <ele>807.6</ele>
        <time>2014-11-17T17:34:13Z</time>
      </trkpt>
      <trkpt lat="45.87501" lon="2.97924">
        <ele>808</ele>
        <time>2014-11-17T17:34:13Z</time>
      </trkpt>
      <trkpt lat="45.87497" lon="2.97917">
        <ele>808.2</ele>
        <time>2014-11-17T17:34:13Z</time>
      </trkpt>
      <trkpt lat="45.87492" lon="2.97908">
        <ele>808.6</ele>
        <time>2014-11-17T17:34:13Z</time>
      </trkpt>
      <trkpt lat="45.87488" lon="2.97898">
        <ele>808.8</ele>
        <time>2014-11-17T17:34:13Z</time>
      </trkpt>
      <trkpt lat="45.87485" lon="2.97893">
        <ele>809</ele>
        <time>2014-11-17T17:34:13Z</time>
      </trkpt>
      <trkpt lat="45.87482" lon="2.97886">
        <ele>809.2</ele>
        <time>2014-11-17T17:34:13Z</time>
      </trkpt>
      <trkpt lat="45.87479" lon="2.97881">
        <ele>809.3</ele>
        <time>2014-11-17T17:34:13Z</time>
      </trkpt>
      <trkpt lat="45.87475" lon="2.97875">
        <ele>809.4</ele>
        <time>2014-11-17T17:34:13Z</time>
      </trkpt>
      <trkpt lat="45.87471" lon="2.97873">
        <ele>809.5</ele>
        <time>2014-11-17T17:34:13Z</time>
      </trkpt>
      <trkpt lat="45.87466" lon="2.97868">
        <ele>809.6</ele>
        <time>2014-11-17T17:34:13Z</time>
      </trkpt>
      <trkpt lat="45.87462" lon="2.97862">
        <ele>809.8</ele>
        <time>2014-11-17T17:34:13Z</time>
      </trkpt>
      <trkpt lat="45.87457" lon="2.97855">
        <ele>810.1</ele>
        <time>2014-11-17T17:34:13Z</time>
      </trkpt>
      <trkpt lat="45.87453" lon="2.97849">
        <ele>810.4</ele>
        <time>2014-11-17T17:34:13Z</time>
      </trkpt>
      <trkpt lat="45.87449" lon="2.97844">
        <ele>810.7</ele>
        <time>2014-11-17T17:34:13Z</time>
      </trkpt>
      <trkpt lat="45.87444" lon="2.97838">
        <ele>811</ele>
        <time>2014-11-17T17:34:13Z</time>
      </trkpt>
      <trkpt lat="45.87438" lon="2.97829">
        <ele>810.8</ele>
        <time>2014-11-17T17:34:13Z</time>
      </trkpt>
      <trkpt lat="45.87433" lon="2.97824">
        <ele>810.7</ele>
        <time>2014-11-17T17:34:13Z</time>
      </trkpt>
      <trkpt lat="45.87429" lon="2.97818">
        <ele>810.4</ele>
        <time>2014-11-17T17:34:13Z</time>
      </trkpt>
      <trkpt lat="45.87423" lon="2.97812">
        <ele>810.2</ele>
        <time>2014-11-17T17:34:13Z</time>
      </trkpt>
      <trkpt lat="45.87417" lon="2.97806">
        <ele>810</ele>
        <time>2014-11-17T17:34:13Z</time>
      </trkpt>
      <trkpt lat="45.87411" lon="2.97799">
        <ele>810.2</ele>
        <time>2014-11-17T17:34:13Z</time>
      </trkpt>
      <trkpt lat="45.87405" lon="2.97795">
        <ele>810.4</ele>
        <time>2014-11-17T17:34:13Z</time>
      </trkpt>
      <trkpt lat="45.874" lon="2.97791">
        <ele>810.6</ele>
        <time>2014-11-17T17:34:13Z</time>
      </trkpt>
      <trkpt lat="45.87396" lon="2.97784">
        <ele>810.8</ele>
        <time>2014-11-17T17:34:13Z</time>
      </trkpt>
      <trkpt lat="45.8739" lon="2.97779">
        <ele>810.9</ele>
        <time>2014-11-17T17:34:13Z</time>
      </trkpt>
      <trkpt lat="45.87385" lon="2.97775">
        <ele>811.2</ele>
        <time>2014-11-17T17:34:13Z</time>
      </trkpt>
      <trkpt lat="45.8738" lon="2.97767">
        <ele>811.3</ele>
        <time>2014-11-17T17:34:13Z</time>
      </trkpt>
      <trkpt lat="45.87375" lon="2.97762">
        <ele>811.5</ele>
        <time>2014-11-17T17:34:13Z</time>
      </trkpt>
      <trkpt lat="45.8737" lon="2.97758">
        <ele>811.7</ele>
        <time>2014-11-17T17:34:13Z</time>
      </trkpt>
      <trkpt lat="45.87366" lon="2.97754">
        <ele>811.8</ele>
        <time>2014-11-17T17:34:13Z</time>
      </trkpt>
      <trkpt lat="45.8736" lon="2.97749">
        <ele>812.1</ele>
        <time>2014-11-17T17:34:13Z</time>
      </trkpt>
      <trkpt lat="45.87355" lon="2.97745">
        <ele>812.4</ele>
        <time>2014-11-17T17:34:13Z</time>
      </trkpt>
      <trkpt lat="45.87354" lon="2.97742">
        <ele>812.5</ele>
        <time>2014-11-17T17:34:13Z</time>
      </trkpt>
      <trkpt lat="45.87349" lon="2.97738">
        <ele>812.7</ele>
        <time>2014-11-17T17:34:13Z</time>
      </trkpt>
      <trkpt lat="45.87343" lon="2.97734">
        <ele>812.9</ele>
        <time>2014-11-17T17:34:13Z</time>
      </trkpt>
      <trkpt lat="45.8734" lon="2.97728">
        <ele>813</ele>
        <time>2014-11-17T17:34:13Z</time>
      </trkpt>
      <trkpt lat="45.87337" lon="2.97722">
        <ele>813</ele>
        <time>2014-11-17T17:34:13Z</time>
      </trkpt>
      <trkpt lat="45.87338" lon="2.9772">
        <ele>813</ele>
        <time>2014-11-17T17:34:13Z</time>
      </trkpt>
      <trkpt lat="45.87338" lon="2.9772">
        <ele>813</ele>
        <time>2014-11-17T17:34:13Z</time>
      </trkpt>
      <trkpt lat="45.87338" lon="2.97719">
        <ele>813</ele>
        <time>2014-11-17T17:34:13Z</time>
      </trkpt>
      <trkpt lat="45.87339" lon="2.97719">
        <ele>813</ele>
        <time>2014-11-17T17:34:13Z</time>
      </trkpt>
      <trkpt lat="45.8734" lon="2.9772">
        <ele>813</ele>
        <time>2014-11-17T17:34:13Z</time>
      </trkpt>
      <trkpt lat="45.8734" lon="2.9772">
        <ele>813</ele>
        <time>2014-11-17T17:34:13Z</time>
      </trkpt>
      <trkpt lat="45.87338" lon="2.97715">
        <ele>813</ele>
        <time>2014-11-17T17:34:13Z</time>
      </trkpt>
      <trkpt lat="45.87335" lon="2.9771">
        <ele>813</ele>
        <time>2014-11-17T17:34:13Z</time>
      </trkpt>
      <trkpt lat="45.87332" lon="2.97704">
        <ele>813</ele>
        <time>2014-11-17T17:34:13Z</time>
      </trkpt>
      <trkpt lat="45.87331" lon="2.97699">
        <ele>813</ele>
        <time>2014-11-17T17:34:13Z</time>
      </trkpt>
      <trkpt lat="45.87334" lon="2.97699">
        <ele>813</ele>
        <time>2014-11-17T17:34:13Z</time>
      </trkpt>
      <trkpt lat="45.87335" lon="2.97695">
        <ele>813</ele>
        <time>2014-11-17T17:34:13Z</time>
      </trkpt>
      <trkpt lat="45.87329" lon="2.97686">
        <ele>813.3</ele>
        <time>2014-11-17T17:34:13Z</time>
      </trkpt>
      <trkpt lat="45.87324" lon="2.9768">
        <ele>813.4</ele>
        <time>2014-11-17T17:34:13Z</time>
      </trkpt>
      <trkpt lat="45.8732" lon="2.97672">
        <ele>813.4</ele>
        <time>2014-11-17T17:34:13Z</time>
      </trkpt>
      <trkpt lat="45.87317" lon="2.97666">
        <ele>813.4</ele>
        <time>2014-11-17T17:34:13Z</time>
      </trkpt>
      <trkpt lat="45.87313" lon="2.97657">
        <ele>813.2</ele>
        <time>2014-11-17T17:34:13Z</time>
      </trkpt>
      <trkpt lat="45.87311" lon="2.97647">
        <ele>813.1</ele>
        <time>2014-11-17T17:34:13Z</time>
      </trkpt>
      <trkpt lat="45.87308" lon="2.97642">
        <ele>813</ele>
        <time>2014-11-17T17:34:13Z</time>
      </trkpt>
      <trkpt lat="45.87306" lon="2.97633">
        <ele>813</ele>
        <time>2014-11-17T17:34:13Z</time>
      </trkpt>
      <trkpt lat="45.87303" lon="2.97625">
        <ele>813</ele>
        <time>2014-11-17T17:34:13Z</time>
      </trkpt>
      <trkpt lat="45.87302" lon="2.97614">
        <ele>813</ele>
        <time>2014-11-17T17:34:13Z</time>
      </trkpt>
      <trkpt lat="45.87301" lon="2.97606">
        <ele>812.9</ele>
        <time>2014-11-17T17:34:13Z</time>
      </trkpt>
      <trkpt lat="45.87298" lon="2.97598">
        <ele>812.6</ele>
        <time>2014-11-17T17:34:13Z</time>
      </trkpt>
      <trkpt lat="45.87297" lon="2.9759">
        <ele>812.5</ele>
        <time>2014-11-17T17:34:13Z</time>
      </trkpt>
      <trkpt lat="45.87298" lon="2.97584">
        <ele>812.3</ele>
        <time>2014-11-17T17:34:13Z</time>
      </trkpt>
      <trkpt lat="45.87302" lon="2.97581">
        <ele>812.1</ele>
        <time>2014-11-17T17:34:13Z</time>
      </trkpt>
      <trkpt lat="45.87303" lon="2.97581">
        <ele>812.1</ele>
        <time>2014-11-17T17:34:13Z</time>
      </trkpt>
      <trkpt lat="45.87302" lon="2.97578">
        <ele>812.1</ele>
        <time>2014-11-17T17:34:13Z</time>
      </trkpt>
      <trkpt lat="45.87298" lon="2.9757">
        <ele>812.1</ele>
        <time>2014-11-17T17:34:13Z</time>
      </trkpt>
      <trkpt lat="45.87296" lon="2.97562">
        <ele>812.1</ele>
        <time>2014-11-17T17:34:13Z</time>
      </trkpt>
      <trkpt lat="45.87293" lon="2.97554">
        <ele>812</ele>
        <time>2014-11-17T17:34:13Z</time>
      </trkpt>
      <trkpt lat="45.87291" lon="2.97548">
        <ele>812</ele>
        <time>2014-11-17T17:34:13Z</time>
      </trkpt>
      <trkpt lat="45.87289" lon="2.9754">
        <ele>812</ele>
        <time>2014-11-17T17:34:13Z</time>
      </trkpt>
      <trkpt lat="45.87288" lon="2.9753">
        <ele>812</ele>
        <time>2014-11-17T17:34:13Z</time>
      </trkpt>
      <trkpt lat="45.87286" lon="2.97522">
        <ele>812</ele>
        <time>2014-11-17T17:34:13Z</time>
      </trkpt>
      <trkpt lat="45.87283" lon="2.97514">
        <ele>812</ele>
        <time>2014-11-17T17:34:13Z</time>
      </trkpt>
      <trkpt lat="45.8728" lon="2.97508">
        <ele>812</ele>
        <time>2014-11-17T17:34:13Z</time>
      </trkpt>
      <trkpt lat="45.87277" lon="2.975">
        <ele>812</ele>
        <time>2014-11-17T17:34:13Z</time>
      </trkpt>
      <trkpt lat="45.87276" lon="2.9749">
        <ele>812</ele>
        <time>2014-11-17T17:34:13Z</time>
      </trkpt>
      <trkpt lat="45.87275" lon="2.9748">
        <ele>812</ele>
        <time>2014-11-17T17:34:13Z</time>
      </trkpt>
      <trkpt lat="45.8727" lon="2.97472">
        <ele>812</ele>
        <time>2014-11-17T17:34:13Z</time>
      </trkpt>
      <trkpt lat="45.87267" lon="2.97462">
        <ele>812</ele>
        <time>2014-11-17T17:34:13Z</time>
      </trkpt>
      <trkpt lat="45.87265" lon="2.97453">
        <ele>812</ele>
        <time>2014-11-17T17:34:13Z</time>
      </trkpt>
      <trkpt lat="45.87262" lon="2.97445">
        <ele>812</ele>
        <time>2014-11-17T17:34:13Z</time>
      </trkpt>
      <trkpt lat="45.87261" lon="2.97431">
        <ele>812</ele>
        <time>2014-11-17T17:34:13Z</time>
      </trkpt>
      <trkpt lat="45.87259" lon="2.97421">
        <ele>812</ele>
        <time>2014-11-17T17:34:13Z</time>
      </trkpt>
      <trkpt lat="45.87257" lon="2.97412">
        <ele>812</ele>
        <time>2014-11-17T17:34:13Z</time>
      </trkpt>
      <trkpt lat="45.87256" lon="2.97404">
        <ele>812</ele>
        <time>2014-11-17T17:34:13Z</time>
      </trkpt>
      <trkpt lat="45.87253" lon="2.97394">
        <ele>812</ele>
        <time>2014-11-17T17:34:13Z</time>
      </trkpt>
      <trkpt lat="45.8725" lon="2.97383">
        <ele>812</ele>
        <time>2014-11-17T17:34:13Z</time>
      </trkpt>
      <trkpt lat="45.87248" lon="2.97374">
        <ele>812.1</ele>
        <time>2014-11-17T17:34:13Z</time>
      </trkpt>
      <trkpt lat="45.87245" lon="2.97363">
        <ele>812.2</ele>
        <time>2014-11-17T17:34:13Z</time>
      </trkpt>
      <trkpt lat="45.87243" lon="2.97355">
        <ele>812.2</ele>
        <time>2014-11-17T17:34:13Z</time>
      </trkpt>
      <trkpt lat="45.87239" lon="2.97346">
        <ele>812.4</ele>
        <time>2014-11-17T17:34:13Z</time>
      </trkpt>
      <trkpt lat="45.87237" lon="2.97335">
        <ele>812.5</ele>
        <time>2014-11-17T17:34:13Z</time>
      </trkpt>
      <trkpt lat="45.87234" lon="2.97328">
        <ele>812.6</ele>
        <time>2014-11-17T17:34:13Z</time>
      </trkpt>
      <trkpt lat="45.87232" lon="2.9732">
        <ele>812.7</ele>
        <time>2014-11-17T17:34:13Z</time>
      </trkpt>
      <trkpt lat="45.87229" lon="2.97314">
        <ele>812.7</ele>
        <time>2014-11-17T17:34:13Z</time>
      </trkpt>
      <trkpt lat="45.87228" lon="2.97306">
        <ele>812.8</ele>
        <time>2014-11-17T17:34:13Z</time>
      </trkpt>
      <trkpt lat="45.87226" lon="2.97299">
        <ele>812.9</ele>
        <time>2014-11-17T17:34:13Z</time>
      </trkpt>
      <trkpt lat="45.87226" lon="2.97295">
        <ele>812.9</ele>
        <time>2014-11-17T17:34:13Z</time>
      </trkpt>
      <trkpt lat="45.87228" lon="2.9729">
        <ele>812.8</ele>
        <time>2014-11-17T17:34:13Z</time>
      </trkpt>
      <trkpt lat="45.8723" lon="2.97287">
        <ele>812.7</ele>
        <time>2014-11-17T17:34:13Z</time>
      </trkpt>
      <trkpt lat="45.87231" lon="2.97284">
        <ele>812.7</ele>
        <time>2014-11-17T17:34:13Z</time>
      </trkpt>
      <trkpt lat="45.87231" lon="2.97283">
        <ele>812.7</ele>
        <time>2014-11-17T17:34:13Z</time>
      </trkpt>
      <trkpt lat="45.8723" lon="2.97282">
        <ele>812.7</ele>
        <time>2014-11-17T17:34:13Z</time>
      </trkpt>
      <trkpt lat="45.87231" lon="2.9728">
        <ele>812.7</ele>
        <time>2014-11-17T17:34:13Z</time>
      </trkpt>
      <trkpt lat="45.8723" lon="2.97282">
        <ele>812.7</ele>
        <time>2014-11-17T17:34:13Z</time>
      </trkpt>
      <trkpt lat="45.87228" lon="2.97285">
        <ele>812.8</ele>
        <time>2014-11-17T17:34:13Z</time>
      </trkpt>
      <trkpt lat="45.87228" lon="2.97282">
        <ele>812.8</ele>
        <time>2014-11-17T17:34:13Z</time>
      </trkpt>
      <trkpt lat="45.87225" lon="2.9728">
        <ele>812.9</ele>
        <time>2014-11-17T17:34:13Z</time>
      </trkpt>
      <trkpt lat="45.87225" lon="2.97279">
        <ele>812.9</ele>
        <time>2014-11-17T17:34:13Z</time>
      </trkpt>
      <trkpt lat="45.87223" lon="2.97272">
        <ele>813</ele>
        <time>2014-11-17T17:34:13Z</time>
      </trkpt>
      <trkpt lat="45.8722" lon="2.97264">
        <ele>813</ele>
        <time>2014-11-17T17:34:13Z</time>
      </trkpt>
      <trkpt lat="45.87217" lon="2.97257">
        <ele>813.1</ele>
        <time>2014-11-17T17:34:13Z</time>
      </trkpt>
      <trkpt lat="45.87214" lon="2.9725">
        <ele>813.3</ele>
        <time>2014-11-17T17:34:13Z</time>
      </trkpt>
      <trkpt lat="45.87212" lon="2.97244">
        <ele>813.4</ele>
        <time>2014-11-17T17:34:13Z</time>
      </trkpt>
      <trkpt lat="45.87208" lon="2.97236">
        <ele>813.5</ele>
        <time>2014-11-17T17:34:13Z</time>
      </trkpt>
      <trkpt lat="45.87205" lon="2.97228">
        <ele>813.6</ele>
        <time>2014-11-17T17:34:13Z</time>
      </trkpt>
      <trkpt lat="45.872" lon="2.97221">
        <ele>813.8</ele>
        <time>2014-11-17T17:34:13Z</time>
      </trkpt>
      <trkpt lat="45.87196" lon="2.97212">
        <ele>814</ele>
        <time>2014-11-17T17:34:13Z</time>
      </trkpt>
      <trkpt lat="45.87194" lon="2.97205">
        <ele>814.1</ele>
        <time>2014-11-17T17:34:13Z</time>
      </trkpt>
      <trkpt lat="45.87187" lon="2.97198">
        <ele>814.5</ele>
        <time>2014-11-17T17:34:13Z</time>
      </trkpt>
      <trkpt lat="45.87183" lon="2.97189">
        <ele>814.9</ele>
        <time>2014-11-17T17:34:13Z</time>
      </trkpt>
      <trkpt lat="45.87176" lon="2.9718">
        <ele>815.2</ele>
        <time>2014-11-17T17:34:13Z</time>
      </trkpt>
      <trkpt lat="45.87176" lon="2.97174">
        <ele>815.1</ele>
        <time>2014-11-17T17:34:13Z</time>
      </trkpt>
      <trkpt lat="45.87171" lon="2.97165">
        <ele>815</ele>
        <time>2014-11-17T17:34:13Z</time>
      </trkpt>
      <trkpt lat="45.8717" lon="2.9716">
        <ele>815</ele>
        <time>2014-11-17T17:34:13Z</time>
      </trkpt>
      <trkpt lat="45.87167" lon="2.97151">
        <ele>815</ele>
        <time>2014-11-17T17:34:13Z</time>
      </trkpt>
      <trkpt lat="45.87163" lon="2.97142">
        <ele>815.3</ele>
        <time>2014-11-17T17:34:13Z</time>
      </trkpt>
      <trkpt lat="45.87159" lon="2.97136">
        <ele>815.7</ele>
        <time>2014-11-17T17:34:13Z</time>
      </trkpt>
      <trkpt lat="45.87155" lon="2.97124">
        <ele>816.2</ele>
        <time>2014-11-17T17:34:13Z</time>
      </trkpt>
      <trkpt lat="45.87151" lon="2.9712">
        <ele>816.4</ele>
        <time>2014-11-17T17:34:13Z</time>
      </trkpt>
      <trkpt lat="45.87148" lon="2.97115">
        <ele>816.6</ele>
        <time>2014-11-17T17:34:13Z</time>
      </trkpt>
      <trkpt lat="45.87145" lon="2.97109">
        <ele>816.8</ele>
        <time>2014-11-17T17:34:13Z</time>
      </trkpt>
      <trkpt lat="45.87139" lon="2.97103">
        <ele>817</ele>
        <time>2014-11-17T17:34:13Z</time>
      </trkpt>
      <trkpt lat="45.87136" lon="2.9709">
        <ele>817.1</ele>
        <time>2014-11-17T17:34:13Z</time>
      </trkpt>
      <trkpt lat="45.87131" lon="2.97077">
        <ele>817.4</ele>
        <time>2014-11-17T17:34:13Z</time>
      </trkpt>
      <trkpt lat="45.87127" lon="2.97066">
        <ele>817.8</ele>
        <time>2014-11-17T17:34:13Z</time>
      </trkpt>
      <trkpt lat="45.87124" lon="2.97059">
        <ele>817.9</ele>
        <time>2014-11-17T17:34:13Z</time>
      </trkpt>
      <trkpt lat="45.87119" lon="2.97051">
        <ele>818</ele>
        <time>2014-11-17T17:34:13Z</time>
      </trkpt>
      <trkpt lat="45.87117" lon="2.97043">
        <ele>818.1</ele>
        <time>2014-11-17T17:34:13Z</time>
      </trkpt>
      <trkpt lat="45.87114" lon="2.97036">
        <ele>818.1</ele>
        <time>2014-11-17T17:34:13Z</time>
      </trkpt>
      <trkpt lat="45.87108" lon="2.97029">
        <ele>818.1</ele>
        <time>2014-11-17T17:34:13Z</time>
      </trkpt>
      <trkpt lat="45.87105" lon="2.97022">
        <ele>818.4</ele>
        <time>2014-11-17T17:34:13Z</time>
      </trkpt>
      <trkpt lat="45.87103" lon="2.97014">
        <ele>818.8</ele>
        <time>2014-11-17T17:34:13Z</time>
      </trkpt>
      <trkpt lat="45.871" lon="2.97007">
        <ele>819.2</ele>
        <time>2014-11-17T17:34:13Z</time>
      </trkpt>
      <trkpt lat="45.87099" lon="2.97">
        <ele>819.4</ele>
        <time>2014-11-17T17:34:13Z</time>
      </trkpt>
      <trkpt lat="45.871" lon="2.96998">
        <ele>819.4</ele>
        <time>2014-11-17T17:34:13Z</time>
      </trkpt>
      <trkpt lat="45.87101" lon="2.96993">
        <ele>819.4</ele>
        <time>2014-11-17T17:34:13Z</time>
      </trkpt>
      <trkpt lat="45.87101" lon="2.96987">
        <ele>819.4</ele>
        <time>2014-11-17T17:34:13Z</time>
      </trkpt>
      <trkpt lat="45.87101" lon="2.96984">
        <ele>819.4</ele>
        <time>2014-11-17T17:34:13Z</time>
      </trkpt>
      <trkpt lat="45.87101" lon="2.96985">
        <ele>819.4</ele>
        <time>2014-11-17T17:34:13Z</time>
      </trkpt>
      <trkpt lat="45.871" lon="2.96986">
        <ele>819.4</ele>
        <time>2014-11-17T17:34:13Z</time>
      </trkpt>
      <trkpt lat="45.871" lon="2.96981">
        <ele>819.4</ele>
        <time>2014-11-17T17:34:13Z</time>
      </trkpt>
      <trkpt lat="45.87097" lon="2.96973">
        <ele>819.5</ele>
        <time>2014-11-17T17:34:13Z</time>
      </trkpt>
      <trkpt lat="45.87095" lon="2.96967">
        <ele>819.6</ele>
        <time>2014-11-17T17:34:13Z</time>
      </trkpt>
      <trkpt lat="45.87092" lon="2.96959">
        <ele>819.8</ele>
        <time>2014-11-17T17:34:13Z</time>
      </trkpt>
      <trkpt lat="45.87091" lon="2.96949">
        <ele>820</ele>
        <time>2014-11-17T17:34:13Z</time>
      </trkpt>
      <trkpt lat="45.87091" lon="2.96939">
        <ele>820.2</ele>
        <time>2014-11-17T17:34:13Z</time>
      </trkpt>
      <trkpt lat="45.87089" lon="2.96933">
        <ele>820.4</ele>
        <time>2014-11-17T17:34:13Z</time>
      </trkpt>
      <trkpt lat="45.87089" lon="2.96924">
        <ele>820.7</ele>
        <time>2014-11-17T17:34:13Z</time>
      </trkpt>
      <trkpt lat="45.87088" lon="2.96916">
        <ele>821</ele>
        <time>2014-11-17T17:34:13Z</time>
      </trkpt>
      <trkpt lat="45.87089" lon="2.96895">
        <ele>821.8</ele>
        <time>2014-11-17T17:34:13Z</time>
      </trkpt>
      <trkpt lat="45.87089" lon="2.96891">
        <ele>821.9</ele>
        <time>2014-11-17T17:34:13Z</time>
      </trkpt>
      <trkpt lat="45.87087" lon="2.96889">
        <ele>822</ele>
        <time>2014-11-17T17:34:13Z</time>
      </trkpt>
      <trkpt lat="45.87085" lon="2.96886">
        <ele>822.3</ele>
        <time>2014-11-17T17:34:13Z</time>
      </trkpt>
      <trkpt lat="45.87085" lon="2.96881">
        <ele>822.8</ele>
        <time>2014-11-17T17:34:13Z</time>
      </trkpt>
      <trkpt lat="45.87083" lon="2.96874">
        <ele>823.7</ele>
        <time>2014-11-17T17:34:13Z</time>
      </trkpt>
      <trkpt lat="45.87082" lon="2.96863">
        <ele>824.8</ele>
        <time>2014-11-17T17:34:13Z</time>
      </trkpt>
      <trkpt lat="45.87081" lon="2.96857">
        <ele>825.3</ele>
        <time>2014-11-17T17:34:13Z</time>
      </trkpt>
      <trkpt lat="45.8708" lon="2.96848">
        <ele>825.6</ele>
        <time>2014-11-17T17:34:13Z</time>
      </trkpt>
      <trkpt lat="45.87079" lon="2.96839">
        <ele>826.1</ele>
        <time>2014-11-17T17:34:13Z</time>
      </trkpt>
      <trkpt lat="45.87076" lon="2.96831">
        <ele>826.6</ele>
        <time>2014-11-17T17:34:13Z</time>
      </trkpt>
      <trkpt lat="45.87076" lon="2.96822">
        <ele>826.8</ele>
        <time>2014-11-17T17:34:13Z</time>
      </trkpt>
      <trkpt lat="45.87075" lon="2.96813">
        <ele>827.1</ele>
        <time>2014-11-17T17:34:13Z</time>
      </trkpt>
      <trkpt lat="45.87073" lon="2.96805">
        <ele>827.4</ele>
        <time>2014-11-17T17:34:13Z</time>
      </trkpt>
      <trkpt lat="45.87072" lon="2.96794">
        <ele>827.4</ele>
        <time>2014-11-17T17:34:13Z</time>
      </trkpt>
      <trkpt lat="45.87072" lon="2.96785">
        <ele>827.4</ele>
        <time>2014-11-17T17:34:13Z</time>
      </trkpt>
      <trkpt lat="45.87072" lon="2.96775">
        <ele>827.4</ele>
        <time>2014-11-17T17:34:13Z</time>
      </trkpt>
      <trkpt lat="45.8707" lon="2.96767">
        <ele>827.5</ele>
        <time>2014-11-17T17:34:13Z</time>
      </trkpt>
      <trkpt lat="45.87068" lon="2.96758">
        <ele>827.5</ele>
        <time>2014-11-17T17:34:13Z</time>
      </trkpt>
      <trkpt lat="45.87066" lon="2.96749">
        <ele>827.6</ele>
        <time>2014-11-17T17:34:13Z</time>
      </trkpt>
      <trkpt lat="45.87062" lon="2.9674">
        <ele>827.8</ele>
        <time>2014-11-17T17:34:13Z</time>
      </trkpt>
      <trkpt lat="45.87061" lon="2.96729">
        <ele>827.9</ele>
        <time>2014-11-17T17:34:13Z</time>
      </trkpt>
      <trkpt lat="45.87059" lon="2.96722">
        <ele>828</ele>
        <time>2014-11-17T17:34:13Z</time>
      </trkpt>
      <trkpt lat="45.87056" lon="2.96711">
        <ele>828</ele>
        <time>2014-11-17T17:34:13Z</time>
      </trkpt>
      <trkpt lat="45.87054" lon="2.96703">
        <ele>828</ele>
        <time>2014-11-17T17:34:13Z</time>
      </trkpt>
      <trkpt lat="45.87052" lon="2.96697">
        <ele>828.1</ele>
        <time>2014-11-17T17:34:13Z</time>
      </trkpt>
      <trkpt lat="45.87051" lon="2.96688">
        <ele>828.2</ele>
        <time>2014-11-17T17:34:13Z</time>
      </trkpt>
      <trkpt lat="45.87051" lon="2.96681">
        <ele>828.1</ele>
        <time>2014-11-17T17:34:13Z</time>
      </trkpt>
      <trkpt lat="45.8705" lon="2.96673">
        <ele>828.2</ele>
        <time>2014-11-17T17:34:13Z</time>
      </trkpt>
      <trkpt lat="45.87049" lon="2.96666">
        <ele>828.2</ele>
        <time>2014-11-17T17:34:13Z</time>
      </trkpt>
      <trkpt lat="45.87046" lon="2.96655">
        <ele>828.3</ele>
        <time>2014-11-17T17:34:13Z</time>
      </trkpt>
      <trkpt lat="45.87046" lon="2.96646">
        <ele>828.3</ele>
        <time>2014-11-17T17:34:13Z</time>
      </trkpt>
      <trkpt lat="45.87044" lon="2.96636">
        <ele>828.4</ele>
        <time>2014-11-17T17:34:13Z</time>
      </trkpt>
      <trkpt lat="45.87043" lon="2.96628">
        <ele>828.4</ele>
        <time>2014-11-17T17:34:13Z</time>
      </trkpt>
      <trkpt lat="45.87043" lon="2.9662">
        <ele>828.4</ele>
        <time>2014-11-17T17:34:13Z</time>
      </trkpt>
      <trkpt lat="45.87043" lon="2.96613">
        <ele>828.5</ele>
        <time>2014-11-17T17:34:13Z</time>
      </trkpt>
      <trkpt lat="45.87042" lon="2.96605">
        <ele>828.5</ele>
        <time>2014-11-17T17:34:13Z</time>
      </trkpt>
      <trkpt lat="45.87041" lon="2.96598">
        <ele>828.5</ele>
        <time>2014-11-17T17:34:13Z</time>
      </trkpt>
      <trkpt lat="45.87039" lon="2.96589">
        <ele>828.6</ele>
        <time>2014-11-17T17:34:13Z</time>
      </trkpt>
      <trkpt lat="45.87037" lon="2.9658">
        <ele>828.7</ele>
        <time>2014-11-17T17:34:13Z</time>
      </trkpt>
      <trkpt lat="45.87036" lon="2.96572">
        <ele>829</ele>
        <time>2014-11-17T17:34:13Z</time>
      </trkpt>
      <trkpt lat="45.87035" lon="2.96563">
        <ele>829.3</ele>
        <time>2014-11-17T17:34:13Z</time>
      </trkpt>
      <trkpt lat="45.87034" lon="2.96555">
        <ele>829.5</ele>
        <time>2014-11-17T17:34:13Z</time>
      </trkpt>
      <trkpt lat="45.87033" lon="2.96546">
        <ele>829.7</ele>
        <time>2014-11-17T17:34:13Z</time>
      </trkpt>
      <trkpt lat="45.8703" lon="2.96537">
        <ele>829.8</ele>
        <time>2014-11-17T17:34:13Z</time>
      </trkpt>
      <trkpt lat="45.87028" lon="2.96528">
        <ele>830</ele>
        <time>2014-11-17T17:34:13Z</time>
      </trkpt>
      <trkpt lat="45.87026" lon="2.9652">
        <ele>830.1</ele>
        <time>2014-11-17T17:34:13Z</time>
      </trkpt>
      <trkpt lat="45.87024" lon="2.9651">
        <ele>830.2</ele>
        <time>2014-11-17T17:34:13Z</time>
      </trkpt>
      <trkpt lat="45.87024" lon="2.96502">
        <ele>830.1</ele>
        <time>2014-11-17T17:34:13Z</time>
      </trkpt>
      <trkpt lat="45.87023" lon="2.96495">
        <ele>830.2</ele>
        <time>2014-11-17T17:34:13Z</time>
      </trkpt>
      <trkpt lat="45.8702" lon="2.96485">
        <ele>830.3</ele>
        <time>2014-11-17T17:34:13Z</time>
      </trkpt>
      <trkpt lat="45.8702" lon="2.96477">
        <ele>830.3</ele>
        <time>2014-11-17T17:34:13Z</time>
      </trkpt>
      <trkpt lat="45.87017" lon="2.96467">
        <ele>830.4</ele>
        <time>2014-11-17T17:34:13Z</time>
      </trkpt>
      <trkpt lat="45.87017" lon="2.96457">
        <ele>830.6</ele>
        <time>2014-11-17T17:34:13Z</time>
      </trkpt>
      <trkpt lat="45.87017" lon="2.96451">
        <ele>830.7</ele>
        <time>2014-11-17T17:34:13Z</time>
      </trkpt>
      <trkpt lat="45.87015" lon="2.96442">
        <ele>830.9</ele>
        <time>2014-11-17T17:34:13Z</time>
      </trkpt>
      <trkpt lat="45.87014" lon="2.96432">
        <ele>831.2</ele>
        <time>2014-11-17T17:34:13Z</time>
      </trkpt>
      <trkpt lat="45.87013" lon="2.96424">
        <ele>831.4</ele>
        <time>2014-11-17T17:34:13Z</time>
      </trkpt>
      <trkpt lat="45.87013" lon="2.96417">
        <ele>831.5</ele>
        <time>2014-11-17T17:34:13Z</time>
      </trkpt>
      <trkpt lat="45.87011" lon="2.96408">
        <ele>831.7</ele>
        <time>2014-11-17T17:34:13Z</time>
      </trkpt>
      <trkpt lat="45.8701" lon="2.964">
        <ele>831.9</ele>
        <time>2014-11-17T17:34:13Z</time>
      </trkpt>
      <trkpt lat="45.87009" lon="2.96392">
        <ele>832</ele>
        <time>2014-11-17T17:34:13Z</time>
      </trkpt>
      <trkpt lat="45.87007" lon="2.9638">
        <ele>832</ele>
        <time>2014-11-17T17:34:13Z</time>
      </trkpt>
      <trkpt lat="45.87008" lon="2.96371">
        <ele>832</ele>
        <time>2014-11-17T17:34:13Z</time>
      </trkpt>
      <trkpt lat="45.87006" lon="2.96362">
        <ele>832</ele>
        <time>2014-11-17T17:34:13Z</time>
      </trkpt>
      <trkpt lat="45.87003" lon="2.96354">
        <ele>832</ele>
        <time>2014-11-17T17:34:13Z</time>
      </trkpt>
      <trkpt lat="45.87001" lon="2.96346">
        <ele>832</ele>
        <time>2014-11-17T17:34:13Z</time>
      </trkpt>
      <trkpt lat="45.87" lon="2.96336">
        <ele>832</ele>
        <time>2014-11-17T17:34:13Z</time>
      </trkpt>
      <trkpt lat="45.86997" lon="2.96329">
        <ele>832.2</ele>
        <time>2014-11-17T17:34:13Z</time>
      </trkpt>
      <trkpt lat="45.86994" lon="2.96321">
        <ele>832.6</ele>
        <time>2014-11-17T17:34:13Z</time>
      </trkpt>
      <trkpt lat="45.86994" lon="2.96319">
        <ele>832.6</ele>
        <time>2014-11-17T17:34:13Z</time>
      </trkpt>
      <trkpt lat="45.86994" lon="2.96317">
        <ele>832.7</ele>
        <time>2014-11-17T17:34:13Z</time>
      </trkpt>
      <trkpt lat="45.86993" lon="2.96317">
        <ele>832.7</ele>
        <time>2014-11-17T17:34:13Z</time>
      </trkpt>
      <trkpt lat="45.86994" lon="2.96318">
        <ele>832.7</ele>
        <time>2014-11-17T17:34:13Z</time>
      </trkpt>
      <trkpt lat="45.86995" lon="2.96318">
        <ele>832.6</ele>
        <time>2014-11-17T17:34:13Z</time>
      </trkpt>
      <trkpt lat="45.86994" lon="2.96316">
        <ele>832.7</ele>
        <time>2014-11-17T17:34:13Z</time>
      </trkpt>
      <trkpt lat="45.86993" lon="2.96315">
        <ele>832.7</ele>
        <time>2014-11-17T17:34:13Z</time>
      </trkpt>
      <trkpt lat="45.86991" lon="2.9631">
        <ele>832.9</ele>
        <time>2014-11-17T17:34:13Z</time>
      </trkpt>
      <trkpt lat="45.86991" lon="2.96304">
        <ele>833</ele>
        <time>2014-11-17T17:34:13Z</time>
      </trkpt>
      <trkpt lat="45.86989" lon="2.96298">
        <ele>833.3</ele>
        <time>2014-11-17T17:34:13Z</time>
      </trkpt>
      <trkpt lat="45.86988" lon="2.96295">
        <ele>833.4</ele>
        <time>2014-11-17T17:34:13Z</time>
      </trkpt>
      <trkpt lat="45.86985" lon="2.96286">
        <ele>833.7</ele>
        <time>2014-11-17T17:34:13Z</time>
      </trkpt>
      <trkpt lat="45.86982" lon="2.96277">
        <ele>834</ele>
        <time>2014-11-17T17:34:13Z</time>
      </trkpt>
      <trkpt lat="45.86979" lon="2.9627">
        <ele>834.3</ele>
        <time>2014-11-17T17:34:13Z</time>
      </trkpt>
      <trkpt lat="45.86977" lon="2.96262">
        <ele>834.6</ele>
        <time>2014-11-17T17:34:13Z</time>
      </trkpt>
      <trkpt lat="45.86973" lon="2.96256">
        <ele>834.8</ele>
        <time>2014-11-17T17:34:13Z</time>
      </trkpt>
      <trkpt lat="45.86969" lon="2.96248">
        <ele>835.1</ele>
        <time>2014-11-17T17:34:13Z</time>
      </trkpt>
      <trkpt lat="45.86965" lon="2.96239">
        <ele>835.4</ele>
        <time>2014-11-17T17:34:13Z</time>
      </trkpt>
      <trkpt lat="45.86962" lon="2.96233">
        <ele>835.6</ele>
        <time>2014-11-17T17:34:13Z</time>
      </trkpt>
      <trkpt lat="45.86959" lon="2.96223">
        <ele>836</ele>
        <time>2014-11-17T17:34:13Z</time>
      </trkpt>
      <trkpt lat="45.86956" lon="2.96219">
        <ele>836</ele>
        <time>2014-11-17T17:34:13Z</time>
      </trkpt>
      <trkpt lat="45.86952" lon="2.96211">
        <ele>836</ele>
        <time>2014-11-17T17:34:13Z</time>
      </trkpt>
      <trkpt lat="45.86949" lon="2.96205">
        <ele>836</ele>
        <time>2014-11-17T17:34:13Z</time>
      </trkpt>
      <trkpt lat="45.86947" lon="2.96198">
        <ele>836</ele>
        <time>2014-11-17T17:34:13Z</time>
      </trkpt>
      <trkpt lat="45.86942" lon="2.96191">
        <ele>836.2</ele>
        <time>2014-11-17T17:34:13Z</time>
      </trkpt>
      <trkpt lat="45.86939" lon="2.96184">
        <ele>836.5</ele>
        <time>2014-11-17T17:34:13Z</time>
      </trkpt>
      <trkpt lat="45.86935" lon="2.96176">
        <ele>836.8</ele>
        <time>2014-11-17T17:34:13Z</time>
      </trkpt>
      <trkpt lat="45.86934" lon="2.96169">
        <ele>836.9</ele>
        <time>2014-11-17T17:34:13Z</time>
      </trkpt>
      <trkpt lat="45.8693" lon="2.96161">
        <ele>837.2</ele>
        <time>2014-11-17T17:34:13Z</time>
      </trkpt>
      <trkpt lat="45.86925" lon="2.96154">
        <ele>837.5</ele>
        <time>2014-11-17T17:34:13Z</time>
      </trkpt>
      <trkpt lat="45.8692" lon="2.96144">
        <ele>837.8</ele>
        <time>2014-11-17T17:34:13Z</time>
      </trkpt>
      <trkpt lat="45.86915" lon="2.96134">
        <ele>838</ele>
        <time>2014-11-17T17:34:13Z</time>
      </trkpt>
      <trkpt lat="45.86912" lon="2.96128">
        <ele>838</ele>
        <time>2014-11-17T17:34:13Z</time>
      </trkpt>
      <trkpt lat="45.86909" lon="2.96122">
        <ele>838</ele>
        <time>2014-11-17T17:34:13Z</time>
      </trkpt>
      <trkpt lat="45.86906" lon="2.96115">
        <ele>838</ele>
        <time>2014-11-17T17:34:13Z</time>
      </trkpt>
      <trkpt lat="45.86904" lon="2.96105">
        <ele>838.2</ele>
        <time>2014-11-17T17:34:13Z</time>
      </trkpt>
      <trkpt lat="45.86903" lon="2.96094">
        <ele>838.6</ele>
        <time>2014-11-17T17:34:13Z</time>
      </trkpt>
      <trkpt lat="45.86904" lon="2.96083">
        <ele>839</ele>
        <time>2014-11-17T17:34:13Z</time>
      </trkpt>
      <trkpt lat="45.86903" lon="2.96073">
        <ele>839.4</ele>
        <time>2014-11-17T17:34:13Z</time>
      </trkpt>
      <trkpt lat="45.86903" lon="2.96064">
        <ele>839.7</ele>
        <time>2014-11-17T17:34:13Z</time>
      </trkpt>
      <trkpt lat="45.86902" lon="2.96056">
        <ele>840</ele>
        <time>2014-11-17T17:34:13Z</time>
      </trkpt>
      <trkpt lat="45.86901" lon="2.96046">
        <ele>840.3</ele>
        <time>2014-11-17T17:34:13Z</time>
      </trkpt>
      <trkpt lat="45.86904" lon="2.96039">
        <ele>840.6</ele>
        <time>2014-11-17T17:34:13Z</time>
      </trkpt>
      <trkpt lat="45.86907" lon="2.9603">
        <ele>840.9</ele>
        <time>2014-11-17T17:34:13Z</time>
      </trkpt>
      <trkpt lat="45.86909" lon="2.96021">
        <ele>841.5</ele>
        <time>2014-11-17T17:34:13Z</time>
      </trkpt>
      <trkpt lat="45.86912" lon="2.96015">
        <ele>841.9</ele>
        <time>2014-11-17T17:34:13Z</time>
      </trkpt>
      <trkpt lat="45.86915" lon="2.96007">
        <ele>842.5</ele>
        <time>2014-11-17T17:34:13Z</time>
      </trkpt>
      <trkpt lat="45.86917" lon="2.96002">
        <ele>842.9</ele>
        <time>2014-11-17T17:34:13Z</time>
      </trkpt>
      <trkpt lat="45.8692" lon="2.95998">
        <ele>843.2</ele>
        <time>2014-11-17T17:34:13Z</time>
      </trkpt>
      <trkpt lat="45.86924" lon="2.95993">
        <ele>843.7</ele>
        <time>2014-11-17T17:34:13Z</time>
      </trkpt>
      <trkpt lat="45.86925" lon="2.95989">
        <ele>844</ele>
        <time>2014-11-17T17:34:13Z</time>
      </trkpt>
      <trkpt lat="45.86929" lon="2.95985">
        <ele>844.3</ele>
        <time>2014-11-17T17:34:13Z</time>
      </trkpt>
      <trkpt lat="45.86933" lon="2.95979">
        <ele>844.6</ele>
        <time>2014-11-17T17:34:13Z</time>
      </trkpt>
      <trkpt lat="45.86937" lon="2.95973">
        <ele>845</ele>
        <time>2014-11-17T17:34:13Z</time>
      </trkpt>
      <trkpt lat="45.86939" lon="2.95972">
        <ele>845</ele>
        <time>2014-11-17T17:34:13Z</time>
      </trkpt>
      <trkpt lat="45.86944" lon="2.95968">
        <ele>845.3</ele>
        <time>2014-11-17T17:34:13Z</time>
      </trkpt>
      <trkpt lat="45.86946" lon="2.95964">
        <ele>845.6</ele>
        <time>2014-11-17T17:34:13Z</time>
      </trkpt>
      <trkpt lat="45.86951" lon="2.95962">
        <ele>845.9</ele>
        <time>2014-11-17T17:34:13Z</time>
      </trkpt>
      <trkpt lat="45.86957" lon="2.95958">
        <ele>846.4</ele>
        <time>2014-11-17T17:34:13Z</time>
      </trkpt>
      <trkpt lat="45.86959" lon="2.95957">
        <ele>846.6</ele>
        <time>2014-11-17T17:34:13Z</time>
      </trkpt>
      <trkpt lat="45.86962" lon="2.95954">
        <ele>847</ele>
        <time>2014-11-17T17:34:13Z</time>
      </trkpt>
      <trkpt lat="45.86965" lon="2.95948">
        <ele>847.5</ele>
        <time>2014-11-17T17:34:13Z</time>
      </trkpt>
      <trkpt lat="45.86968" lon="2.95944">
        <ele>847.9</ele>
        <time>2014-11-17T17:34:13Z</time>
      </trkpt>
      <trkpt lat="45.86972" lon="2.95939">
        <ele>848.6</ele>
        <time>2014-11-17T17:34:13Z</time>
      </trkpt>
      <trkpt lat="45.86979" lon="2.95933">
        <ele>849.5</ele>
        <time>2014-11-17T17:34:13Z</time>
      </trkpt>
      <trkpt lat="45.86985" lon="2.95928">
        <ele>850.3</ele>
        <time>2014-11-17T17:34:13Z</time>
      </trkpt>
      <trkpt lat="45.8699" lon="2.95924">
        <ele>850.8</ele>
        <time>2014-11-17T17:34:13Z</time>
      </trkpt>
      <trkpt lat="45.86994" lon="2.95922">
        <ele>851.2</ele>
        <time>2014-11-17T17:34:13Z</time>
      </trkpt>
      <trkpt lat="45.87" lon="2.95918">
        <ele>851.9</ele>
        <time>2014-11-17T17:34:13Z</time>
      </trkpt>
      <trkpt lat="45.87007" lon="2.95914">
        <ele>852.6</ele>
        <time>2014-11-17T17:34:13Z</time>
      </trkpt>
      <trkpt lat="45.87012" lon="2.9591">
        <ele>853.4</ele>
        <time>2014-11-17T17:34:13Z</time>
      </trkpt>
      <trkpt lat="45.87015" lon="2.95905">
        <ele>854.1</ele>
        <time>2014-11-17T17:34:13Z</time>
      </trkpt>
      <trkpt lat="45.87019" lon="2.95902">
        <ele>854.8</ele>
        <time>2014-11-17T17:34:13Z</time>
      </trkpt>
      <trkpt lat="45.87023" lon="2.95899">
        <ele>855.3</ele>
        <time>2014-11-17T17:34:13Z</time>
      </trkpt>
      <trkpt lat="45.87028" lon="2.95898">
        <ele>855.8</ele>
        <time>2014-11-17T17:34:13Z</time>
      </trkpt>
      <trkpt lat="45.87034" lon="2.95893">
        <ele>857</ele>
        <time>2014-11-17T17:34:13Z</time>
      </trkpt>
      <trkpt lat="45.87038" lon="2.9589">
        <ele>857.6</ele>
        <time>2014-11-17T17:34:13Z</time>
      </trkpt>
      <trkpt lat="45.87041" lon="2.95884">
        <ele>858.5</ele>
        <time>2014-11-17T17:34:13Z</time>
      </trkpt>
      <trkpt lat="45.87045" lon="2.95881">
        <ele>859.3</ele>
        <time>2014-11-17T17:34:13Z</time>
      </trkpt>
      <trkpt lat="45.87051" lon="2.95876">
        <ele>860.2</ele>
        <time>2014-11-17T17:34:13Z</time>
      </trkpt>
      <trkpt lat="45.87055" lon="2.95872">
        <ele>860.8</ele>
        <time>2014-11-17T17:34:13Z</time>
      </trkpt>
      <trkpt lat="45.87059" lon="2.95867">
        <ele>861.8</ele>
        <time>2014-11-17T17:34:13Z</time>
      </trkpt>
      <trkpt lat="45.87063" lon="2.95865">
        <ele>862.4</ele>
        <time>2014-11-17T17:34:13Z</time>
      </trkpt>
      <trkpt lat="45.87065" lon="2.95865">
        <ele>862.7</ele>
        <time>2014-11-17T17:34:13Z</time>
      </trkpt>
      <trkpt lat="45.87072" lon="2.95863">
        <ele>863.6</ele>
        <time>2014-11-17T17:34:13Z</time>
      </trkpt>
      <trkpt lat="45.87075" lon="2.95859">
        <ele>864.4</ele>
        <time>2014-11-17T17:34:13Z</time>
      </trkpt>
      <trkpt lat="45.8708" lon="2.95852">
        <ele>865.7</ele>
        <time>2014-11-17T17:34:13Z</time>
      </trkpt>
      <trkpt lat="45.87086" lon="2.95848">
        <ele>866.8</ele>
        <time>2014-11-17T17:34:13Z</time>
      </trkpt>
      <trkpt lat="45.87091" lon="2.95844">
        <ele>867.6</ele>
        <time>2014-11-17T17:34:13Z</time>
      </trkpt>
      <trkpt lat="45.87093" lon="2.95839">
        <ele>868.2</ele>
        <time>2014-11-17T17:34:13Z</time>
      </trkpt>
      <trkpt lat="45.87097" lon="2.95833">
        <ele>869.1</ele>
        <time>2014-11-17T17:34:13Z</time>
      </trkpt>
      <trkpt lat="45.87102" lon="2.95827">
        <ele>870.2</ele>
        <time>2014-11-17T17:34:13Z</time>
      </trkpt>
      <trkpt lat="45.87105" lon="2.95824">
        <ele>870.8</ele>
        <time>2014-11-17T17:34:13Z</time>
      </trkpt>
      <trkpt lat="45.87111" lon="2.95821">
        <ele>871.3</ele>
        <time>2014-11-17T17:34:13Z</time>
      </trkpt>
      <trkpt lat="45.87118" lon="2.95818">
        <ele>872.6</ele>
        <time>2014-11-17T17:34:13Z</time>
      </trkpt>
      <trkpt lat="45.87122" lon="2.95813">
        <ele>873.4</ele>
        <time>2014-11-17T17:34:13Z</time>
      </trkpt>
      <trkpt lat="45.87127" lon="2.95809">
        <ele>874.1</ele>
        <time>2014-11-17T17:34:13Z</time>
      </trkpt>
      <trkpt lat="45.87132" lon="2.95803">
        <ele>874.8</ele>
        <time>2014-11-17T17:34:13Z</time>
      </trkpt>
      <trkpt lat="45.87138" lon="2.95799">
        <ele>875.4</ele>
        <time>2014-11-17T17:34:13Z</time>
      </trkpt>
      <trkpt lat="45.87142" lon="2.95796">
        <ele>876.2</ele>
        <time>2014-11-17T17:34:13Z</time>
      </trkpt>
      <trkpt lat="45.87148" lon="2.95791">
        <ele>877.4</ele>
        <time>2014-11-17T17:34:13Z</time>
      </trkpt>
      <trkpt lat="45.87152" lon="2.95785">
        <ele>877.9</ele>
        <time>2014-11-17T17:34:13Z</time>
      </trkpt>
      <trkpt lat="45.87156" lon="2.95778">
        <ele>878.3</ele>
        <time>2014-11-17T17:34:13Z</time>
      </trkpt>
      <trkpt lat="45.8716" lon="2.95772">
        <ele>878.7</ele>
        <time>2014-11-17T17:34:13Z</time>
      </trkpt>
      <trkpt lat="45.87164" lon="2.95767">
        <ele>879</ele>
        <time>2014-11-17T17:34:13Z</time>
      </trkpt>
      <trkpt lat="45.87169" lon="2.95763">
        <ele>879.3</ele>
        <time>2014-11-17T17:34:13Z</time>
      </trkpt>
      <trkpt lat="45.87175" lon="2.95758">
        <ele>879.8</ele>
        <time>2014-11-17T17:34:13Z</time>
      </trkpt>
      <trkpt lat="45.87179" lon="2.95753">
        <ele>880</ele>
        <time>2014-11-17T17:34:13Z</time>
      </trkpt>
      <trkpt lat="45.87182" lon="2.95748">
        <ele>880.2</ele>
        <time>2014-11-17T17:34:13Z</time>
      </trkpt>
      <trkpt lat="45.87186" lon="2.95742">
        <ele>880.4</ele>
        <time>2014-11-17T17:34:13Z</time>
      </trkpt>
      <trkpt lat="45.8719" lon="2.95734">
        <ele>880.5</ele>
        <time>2014-11-17T17:34:13Z</time>
      </trkpt>
      <trkpt lat="45.87194" lon="2.95731">
        <ele>880.4</ele>
        <time>2014-11-17T17:34:13Z</time>
      </trkpt>
      <trkpt lat="45.872" lon="2.95729">
        <ele>880.4</ele>
        <time>2014-11-17T17:34:13Z</time>
      </trkpt>
      <trkpt lat="45.87206" lon="2.95729">
        <ele>880.6</ele>
        <time>2014-11-17T17:34:13Z</time>
      </trkpt>
      <trkpt lat="45.87214" lon="2.95725">
        <ele>880.3</ele>
        <time>2014-11-17T17:34:13Z</time>
      </trkpt>
      <trkpt lat="45.8722" lon="2.95721">
        <ele>880</ele>
        <time>2014-11-17T17:34:13Z</time>
      </trkpt>
      <trkpt lat="45.87223" lon="2.95718">
        <ele>880.1</ele>
        <time>2014-11-17T17:34:13Z</time>
      </trkpt>
      <trkpt lat="45.87227" lon="2.95715">
        <ele>880.2</ele>
        <time>2014-11-17T17:34:13Z</time>
      </trkpt>
      <trkpt lat="45.87233" lon="2.95709">
        <ele>880.2</ele>
        <time>2014-11-17T17:34:13Z</time>
      </trkpt>
      <trkpt lat="45.87236" lon="2.95705">
        <ele>880.1</ele>
        <time>2014-11-17T17:34:13Z</time>
      </trkpt>
      <trkpt lat="45.87239" lon="2.95699">
        <ele>879.7</ele>
        <time>2014-11-17T17:34:13Z</time>
      </trkpt>
      <trkpt lat="45.87242" lon="2.95693">
        <ele>879.3</ele>
        <time>2014-11-17T17:34:13Z</time>
      </trkpt>
      <trkpt lat="45.87244" lon="2.95688">
        <ele>879.4</ele>
        <time>2014-11-17T17:34:13Z</time>
      </trkpt>
      <trkpt lat="45.87248" lon="2.95678">
        <ele>879.2</ele>
        <time>2014-11-17T17:34:13Z</time>
      </trkpt>
      <trkpt lat="45.87253" lon="2.95673">
        <ele>878.9</ele>
        <time>2014-11-17T17:34:13Z</time>
      </trkpt>
      <trkpt lat="45.87258" lon="2.95667">
        <ele>878.7</ele>
        <time>2014-11-17T17:34:13Z</time>
      </trkpt>
      <trkpt lat="45.87264" lon="2.95661">
        <ele>878.6</ele>
        <time>2014-11-17T17:34:13Z</time>
      </trkpt>
      <trkpt lat="45.87268" lon="2.95654">
        <ele>878.5</ele>
        <time>2014-11-17T17:34:13Z</time>
      </trkpt>
      <trkpt lat="45.87271" lon="2.95647">
        <ele>878.4</ele>
        <time>2014-11-17T17:34:13Z</time>
      </trkpt>
      <trkpt lat="45.87275" lon="2.9564">
        <ele>878.2</ele>
        <time>2014-11-17T17:34:13Z</time>
      </trkpt>
      <trkpt lat="45.87277" lon="2.95631">
        <ele>878.3</ele>
        <time>2014-11-17T17:34:13Z</time>
      </trkpt>
      <trkpt lat="45.87278" lon="2.95626">
        <ele>878.5</ele>
        <time>2014-11-17T17:34:13Z</time>
      </trkpt>
      <trkpt lat="45.87281" lon="2.95618">
        <ele>878.5</ele>
        <time>2014-11-17T17:34:13Z</time>
      </trkpt>
      <trkpt lat="45.87287" lon="2.95612">
        <ele>878.3</ele>
        <time>2014-11-17T17:34:13Z</time>
      </trkpt>
      <trkpt lat="45.87292" lon="2.95605">
        <ele>878</ele>
        <time>2014-11-17T17:34:13Z</time>
      </trkpt>
      <trkpt lat="45.87295" lon="2.95599">
        <ele>877.8</ele>
        <time>2014-11-17T17:34:13Z</time>
      </trkpt>
      <trkpt lat="45.87297" lon="2.95592">
        <ele>877.7</ele>
        <time>2014-11-17T17:34:13Z</time>
      </trkpt>
      <trkpt lat="45.87298" lon="2.95584">
        <ele>877.5</ele>
        <time>2014-11-17T17:34:13Z</time>
      </trkpt>
      <trkpt lat="45.87301" lon="2.95579">
        <ele>877.5</ele>
        <time>2014-11-17T17:34:13Z</time>
      </trkpt>
      <trkpt lat="45.87305" lon="2.9557">
        <ele>877.5</ele>
        <time>2014-11-17T17:34:13Z</time>
      </trkpt>
      <trkpt lat="45.87308" lon="2.95563">
        <ele>877.7</ele>
        <time>2014-11-17T17:34:13Z</time>
      </trkpt>
      <trkpt lat="45.87309" lon="2.95555">
        <ele>877.9</ele>
        <time>2014-11-17T17:34:13Z</time>
      </trkpt>
      <trkpt lat="45.87312" lon="2.95546">
        <ele>877.8</ele>
        <time>2014-11-17T17:34:13Z</time>
      </trkpt>
      <trkpt lat="45.87315" lon="2.9554">
        <ele>877.7</ele>
        <time>2014-11-17T17:34:13Z</time>
      </trkpt>
      <trkpt lat="45.87318" lon="2.95532">
        <ele>877.6</ele>
        <time>2014-11-17T17:34:13Z</time>
      </trkpt>
      <trkpt lat="45.8732" lon="2.95525">
        <ele>877.5</ele>
        <time>2014-11-17T17:34:13Z</time>
      </trkpt>
      <trkpt lat="45.87321" lon="2.95516">
        <ele>877.7</ele>
        <time>2014-11-17T17:34:13Z</time>
      </trkpt>
      <trkpt lat="45.87321" lon="2.95506">
        <ele>877.9</ele>
        <time>2014-11-17T17:34:13Z</time>
      </trkpt>
      <trkpt lat="45.87321" lon="2.95498">
        <ele>878</ele>
        <time>2014-11-17T17:34:13Z</time>
      </trkpt>
      <trkpt lat="45.87322" lon="2.9549">
        <ele>878.1</ele>
        <time>2014-11-17T17:34:13Z</time>
      </trkpt>
      <trkpt lat="45.87321" lon="2.95482">
        <ele>878.3</ele>
        <time>2014-11-17T17:34:13Z</time>
      </trkpt>
      <trkpt lat="45.87321" lon="2.95476">
        <ele>878.4</ele>
        <time>2014-11-17T17:34:13Z</time>
      </trkpt>
      <trkpt lat="45.8732" lon="2.95468">
        <ele>878.6</ele>
        <time>2014-11-17T17:34:13Z</time>
      </trkpt>
      <trkpt lat="45.87321" lon="2.9546">
        <ele>878.9</ele>
        <time>2014-11-17T17:34:13Z</time>
      </trkpt>
      <trkpt lat="45.87323" lon="2.9545">
        <ele>879.2</ele>
        <time>2014-11-17T17:34:13Z</time>
      </trkpt>
      <trkpt lat="45.87323" lon="2.95444">
        <ele>879.4</ele>
        <time>2014-11-17T17:34:13Z</time>
      </trkpt>
      <trkpt lat="45.87322" lon="2.9544">
        <ele>879.5</ele>
        <time>2014-11-17T17:34:13Z</time>
      </trkpt>
      <trkpt lat="45.87322" lon="2.95436">
        <ele>879.6</ele>
        <time>2014-11-17T17:34:13Z</time>
      </trkpt>
      <trkpt lat="45.87323" lon="2.95432">
        <ele>879.7</ele>
        <time>2014-11-17T17:34:13Z</time>
      </trkpt>
      <trkpt lat="45.87319" lon="2.9543">
        <ele>879.8</ele>
        <time>2014-11-17T17:34:13Z</time>
      </trkpt>
      <trkpt lat="45.87315" lon="2.95429">
        <ele>879.8</ele>
        <time>2014-11-17T17:34:13Z</time>
      </trkpt>
      <trkpt lat="45.87314" lon="2.95431">
        <ele>879.8</ele>
        <time>2014-11-17T17:34:13Z</time>
      </trkpt>
      <trkpt lat="45.87314" lon="2.95432">
        <ele>879.8</ele>
        <time>2014-11-17T17:34:13Z</time>
      </trkpt>
      <trkpt lat="45.87315" lon="2.95432">
        <ele>879.8</ele>
        <time>2014-11-17T17:34:13Z</time>
      </trkpt>
      <trkpt lat="45.87316" lon="2.95432">
        <ele>879.8</ele>
        <time>2014-11-17T17:34:13Z</time>
      </trkpt>
      <trkpt lat="45.87317" lon="2.95432">
        <ele>879.8</ele>
        <time>2014-11-17T17:34:13Z</time>
      </trkpt>
      <trkpt lat="45.87316" lon="2.95431">
        <ele>879.8</ele>
        <time>2014-11-17T17:34:13Z</time>
      </trkpt>
      <trkpt lat="45.87316" lon="2.95433">
        <ele>879.8</ele>
        <time>2014-11-17T17:34:13Z</time>
      </trkpt>
      <trkpt lat="45.87315" lon="2.95434">
        <ele>879.8</ele>
        <time>2014-11-17T17:34:13Z</time>
      </trkpt>
      <trkpt lat="45.87317" lon="2.95428">
        <ele>879.8</ele>
        <time>2014-11-17T17:34:13Z</time>
      </trkpt>
      <trkpt lat="45.87319" lon="2.9542">
        <ele>879.9</ele>
        <time>2014-11-17T17:34:13Z</time>
      </trkpt>
      <trkpt lat="45.87324" lon="2.95413">
        <ele>880</ele>
        <time>2014-11-17T17:34:13Z</time>
      </trkpt>
      <trkpt lat="45.87328" lon="2.95407">
        <ele>880</ele>
        <time>2014-11-17T17:34:13Z</time>
      </trkpt>
      <trkpt lat="45.87329" lon="2.954">
        <ele>880</ele>
        <time>2014-11-17T17:34:13Z</time>
      </trkpt>
      <trkpt lat="45.87329" lon="2.95395">
        <ele>880</ele>
        <time>2014-11-17T17:34:13Z</time>
      </trkpt>
      <trkpt lat="45.8733" lon="2.9539">
        <ele>880</ele>
        <time>2014-11-17T17:34:13Z</time>
      </trkpt>
      <trkpt lat="45.87332" lon="2.95384">
        <ele>880</ele>
        <time>2014-11-17T17:34:13Z</time>
      </trkpt>
      <trkpt lat="45.87334" lon="2.95378">
        <ele>880.2</ele>
        <time>2014-11-17T17:34:13Z</time>
      </trkpt>
      <trkpt lat="45.87335" lon="2.95372">
        <ele>880.4</ele>
        <time>2014-11-17T17:34:13Z</time>
      </trkpt>
      <trkpt lat="45.87338" lon="2.95365">
        <ele>880.8</ele>
        <time>2014-11-17T17:34:13Z</time>
      </trkpt>
      <trkpt lat="45.8734" lon="2.9536">
        <ele>881.1</ele>
        <time>2014-11-17T17:34:13Z</time>
      </trkpt>
      <trkpt lat="45.87341" lon="2.95354">
        <ele>880.7</ele>
        <time>2014-11-17T17:34:13Z</time>
      </trkpt>
      <trkpt lat="45.87341" lon="2.95347">
        <ele>880.3</ele>
        <time>2014-11-17T17:34:13Z</time>
      </trkpt>
      <trkpt lat="45.87344" lon="2.95341">
        <ele>880.2</ele>
        <time>2014-11-17T17:34:13Z</time>
      </trkpt>
      <trkpt lat="45.87345" lon="2.95337">
        <ele>880</ele>
        <time>2014-11-17T17:34:13Z</time>
      </trkpt>
      <trkpt lat="45.87347" lon="2.9533">
        <ele>879.6</ele>
        <time>2014-11-17T17:34:13Z</time>
      </trkpt>
      <trkpt lat="45.87348" lon="2.95323">
        <ele>879.3</ele>
        <time>2014-11-17T17:34:13Z</time>
      </trkpt>
      <trkpt lat="45.87351" lon="2.95315">
        <ele>879</ele>
        <time>2014-11-17T17:34:13Z</time>
      </trkpt>
      <trkpt lat="45.87353" lon="2.95309">
        <ele>878.7</ele>
        <time>2014-11-17T17:34:13Z</time>
      </trkpt>
      <trkpt lat="45.87355" lon="2.95304">
        <ele>878.4</ele>
        <time>2014-11-17T17:34:13Z</time>
      </trkpt>
      <trkpt lat="45.87356" lon="2.95295">
        <ele>878</ele>
        <time>2014-11-17T17:34:13Z</time>
      </trkpt>
      <trkpt lat="45.87359" lon="2.95289">
        <ele>877.8</ele>
        <time>2014-11-17T17:34:13Z</time>
      </trkpt>
      <trkpt lat="45.87361" lon="2.95278">
        <ele>877</ele>
        <time>2014-11-17T17:34:13Z</time>
      </trkpt>
      <trkpt lat="45.87364" lon="2.95272">
        <ele>877.3</ele>
        <time>2014-11-17T17:34:13Z</time>
      </trkpt>
      <trkpt lat="45.87368" lon="2.95265">
        <ele>877.5</ele>
        <time>2014-11-17T17:34:13Z</time>
      </trkpt>
      <trkpt lat="45.87371" lon="2.95258">
        <ele>877.6</ele>
        <time>2014-11-17T17:34:13Z</time>
      </trkpt>
      <trkpt lat="45.87376" lon="2.95248">
        <ele>877.5</ele>
        <time>2014-11-17T17:34:13Z</time>
      </trkpt>
      <trkpt lat="45.87381" lon="2.95241">
        <ele>877.4</ele>
        <time>2014-11-17T17:34:13Z</time>
      </trkpt>
      <trkpt lat="45.87386" lon="2.95235">
        <ele>877.4</ele>
        <time>2014-11-17T17:34:13Z</time>
      </trkpt>
      <trkpt lat="45.8739" lon="2.95229">
        <ele>877.3</ele>
        <time>2014-11-17T17:34:13Z</time>
      </trkpt>
      <trkpt lat="45.87397" lon="2.95225">
        <ele>877.5</ele>
        <time>2014-11-17T17:34:13Z</time>
      </trkpt>
      <trkpt lat="45.87401" lon="2.9522">
        <ele>877.3</ele>
        <time>2014-11-17T17:34:13Z</time>
      </trkpt>
      <trkpt lat="45.87407" lon="2.95211">
        <ele>877</ele>
        <time>2014-11-17T17:34:13Z</time>
      </trkpt>
      <trkpt lat="45.87406" lon="2.95206">
        <ele>876.7</ele>
        <time>2014-11-17T17:34:13Z</time>
      </trkpt>
      <trkpt lat="45.87409" lon="2.95198">
        <ele>876.2</ele>
        <time>2014-11-17T17:34:13Z</time>
      </trkpt>
      <trkpt lat="45.87415" lon="2.95189">
        <ele>875.8</ele>
        <time>2014-11-17T17:34:13Z</time>
      </trkpt>
      <trkpt lat="45.8742" lon="2.95183">
        <ele>875.6</ele>
        <time>2014-11-17T17:34:13Z</time>
      </trkpt>
      <trkpt lat="45.87422" lon="2.95178">
        <ele>875.5</ele>
        <time>2014-11-17T17:34:13Z</time>
      </trkpt>
      <trkpt lat="45.87424" lon="2.9517">
        <ele>875.2</ele>
        <time>2014-11-17T17:34:13Z</time>
      </trkpt>
      <trkpt lat="45.87426" lon="2.95162">
        <ele>874.7</ele>
        <time>2014-11-17T17:34:13Z</time>
      </trkpt>
      <trkpt lat="45.87427" lon="2.95151">
        <ele>873.9</ele>
        <time>2014-11-17T17:34:13Z</time>
      </trkpt>
      <trkpt lat="45.87427" lon="2.95143">
        <ele>873.3</ele>
        <time>2014-11-17T17:34:13Z</time>
      </trkpt>
      <trkpt lat="45.87434" lon="2.95139">
        <ele>873</ele>
        <time>2014-11-17T17:34:13Z</time>
      </trkpt>
      <trkpt lat="45.8744" lon="2.95137">
        <ele>872.9</ele>
        <time>2014-11-17T17:34:13Z</time>
      </trkpt>
      <trkpt lat="45.87446" lon="2.95134">
        <ele>872.8</ele>
        <time>2014-11-17T17:34:13Z</time>
      </trkpt>
      <trkpt lat="45.87452" lon="2.95132">
        <ele>872.8</ele>
        <time>2014-11-17T17:34:13Z</time>
      </trkpt>
      <trkpt lat="45.87457" lon="2.95131">
        <ele>872.7</ele>
        <time>2014-11-17T17:34:13Z</time>
      </trkpt>
      <trkpt lat="45.87466" lon="2.9513">
        <ele>872.7</ele>
        <time>2014-11-17T17:34:13Z</time>
      </trkpt>
      <trkpt lat="45.87472" lon="2.95132">
        <ele>872.7</ele>
        <time>2014-11-17T17:34:13Z</time>
      </trkpt>
      <trkpt lat="45.87478" lon="2.95133">
        <ele>872.5</ele>
        <time>2014-11-17T17:34:13Z</time>
      </trkpt>
      <trkpt lat="45.87484" lon="2.95136">
        <ele>872.5</ele>
        <time>2014-11-17T17:34:13Z</time>
      </trkpt>
      <trkpt lat="45.87488" lon="2.95139">
        <ele>872.5</ele>
        <time>2014-11-17T17:34:13Z</time>
      </trkpt>
      <trkpt lat="45.87494" lon="2.95141">
        <ele>872.5</ele>
        <time>2014-11-17T17:34:13Z</time>
      </trkpt>
      <trkpt lat="45.87501" lon="2.95143">
        <ele>872.5</ele>
        <time>2014-11-17T17:34:13Z</time>
      </trkpt>
      <trkpt lat="45.87505" lon="2.95146">
        <ele>872.7</ele>
        <time>2014-11-17T17:34:13Z</time>
      </trkpt>
      <trkpt lat="45.87514" lon="2.95146">
        <ele>872.3</ele>
        <time>2014-11-17T17:34:13Z</time>
      </trkpt>
      <trkpt lat="45.87523" lon="2.95148">
        <ele>871.9</ele>
        <time>2014-11-17T17:34:13Z</time>
      </trkpt>
      <trkpt lat="45.87529" lon="2.95149">
        <ele>871.6</ele>
        <time>2014-11-17T17:34:13Z</time>
      </trkpt>
      <trkpt lat="45.87534" lon="2.95149">
        <ele>871</ele>
        <time>2014-11-17T17:34:13Z</time>
      </trkpt>
      <trkpt lat="45.8754" lon="2.95148">
        <ele>870.4</ele>
        <time>2014-11-17T17:34:13Z</time>
      </trkpt>
      <trkpt lat="45.87548" lon="2.95149">
        <ele>869.5</ele>
        <time>2014-11-17T17:34:13Z</time>
      </trkpt>
      <trkpt lat="45.87554" lon="2.95152">
        <ele>869.1</ele>
        <time>2014-11-17T17:34:13Z</time>
      </trkpt>
      <trkpt lat="45.87559" lon="2.95155">
        <ele>868.7</ele>
        <time>2014-11-17T17:34:13Z</time>
      </trkpt>
      <trkpt lat="45.87567" lon="2.95159">
        <ele>868.1</ele>
        <time>2014-11-17T17:34:13Z</time>
      </trkpt>
      <trkpt lat="45.87573" lon="2.95162">
        <ele>867.6</ele>
        <time>2014-11-17T17:34:13Z</time>
      </trkpt>
      <trkpt lat="45.87578" lon="2.95162">
        <ele>867.1</ele>
        <time>2014-11-17T17:34:13Z</time>
      </trkpt>
      <trkpt lat="45.87587" lon="2.95162">
        <ele>866.1</ele>
        <time>2014-11-17T17:34:13Z</time>
      </trkpt>
      <trkpt lat="45.87596" lon="2.95161">
        <ele>865.1</ele>
        <time>2014-11-17T17:34:13Z</time>
      </trkpt>
      <trkpt lat="45.87602" lon="2.95159">
        <ele>864.3</ele>
        <time>2014-11-17T17:34:13Z</time>
      </trkpt>
      <trkpt lat="45.87609" lon="2.95158">
        <ele>863.6</ele>
        <time>2014-11-17T17:34:13Z</time>
      </trkpt>
      <trkpt lat="45.87613" lon="2.95158">
        <ele>863.3</ele>
        <time>2014-11-17T17:34:13Z</time>
      </trkpt>
      <trkpt lat="45.87619" lon="2.9516">
        <ele>862.9</ele>
        <time>2014-11-17T17:34:13Z</time>
      </trkpt>
      <trkpt lat="45.87625" lon="2.95155">
        <ele>862.1</ele>
        <time>2014-11-17T17:34:13Z</time>
      </trkpt>
      <trkpt lat="45.87629" lon="2.9515">
        <ele>861.5</ele>
        <time>2014-11-17T17:34:13Z</time>
      </trkpt>
      <trkpt lat="45.87634" lon="2.95145">
        <ele>860.8</ele>
        <time>2014-11-17T17:34:13Z</time>
      </trkpt>
      <trkpt lat="45.87634" lon="2.95139">
        <ele>860.3</ele>
        <time>2014-11-17T17:34:13Z</time>
      </trkpt>
      <trkpt lat="45.87636" lon="2.9513">
        <ele>859.8</ele>
        <time>2014-11-17T17:34:13Z</time>
      </trkpt>
      <trkpt lat="45.87641" lon="2.95122">
        <ele>859.3</ele>
        <time>2014-11-17T17:34:13Z</time>
      </trkpt>
      <trkpt lat="45.87647" lon="2.95114">
        <ele>858.5</ele>
        <time>2014-11-17T17:34:13Z</time>
      </trkpt>
      <trkpt lat="45.87652" lon="2.95104">
        <ele>857.7</ele>
        <time>2014-11-17T17:34:13Z</time>
      </trkpt>
      <trkpt lat="45.87654" lon="2.95102">
        <ele>857.5</ele>
        <time>2014-11-17T17:34:13Z</time>
      </trkpt>
      <trkpt lat="45.87657" lon="2.95097">
        <ele>857</ele>
        <time>2014-11-17T17:34:13Z</time>
      </trkpt>
      <trkpt lat="45.87663" lon="2.95092">
        <ele>856.5</ele>
        <time>2014-11-17T17:34:13Z</time>
      </trkpt>
      <trkpt lat="45.87668" lon="2.95087">
        <ele>856.2</ele>
        <time>2014-11-17T17:34:13Z</time>
      </trkpt>
      <trkpt lat="45.87673" lon="2.95085">
        <ele>856.3</ele>
        <time>2014-11-17T17:34:13Z</time>
      </trkpt>
      <trkpt lat="45.87678" lon="2.95081">
        <ele>856.4</ele>
        <time>2014-11-17T17:34:13Z</time>
      </trkpt>
      <trkpt lat="45.87682" lon="2.95072">
        <ele>856.6</ele>
        <time>2014-11-17T17:34:13Z</time>
      </trkpt>
      <trkpt lat="45.87685" lon="2.95066">
        <ele>856.7</ele>
        <time>2014-11-17T17:34:13Z</time>
      </trkpt>
      <trkpt lat="45.87686" lon="2.9506">
        <ele>856.7</ele>
        <time>2014-11-17T17:34:13Z</time>
      </trkpt>
      <trkpt lat="45.8769" lon="2.95055">
        <ele>856.8</ele>
        <time>2014-11-17T17:34:13Z</time>
      </trkpt>
      <trkpt lat="45.87695" lon="2.95049">
        <ele>857</ele>
        <time>2014-11-17T17:34:13Z</time>
      </trkpt>
      <trkpt lat="45.87699" lon="2.95043">
        <ele>857.1</ele>
        <time>2014-11-17T17:34:13Z</time>
      </trkpt>
      <trkpt lat="45.87701" lon="2.95039">
        <ele>857.1</ele>
        <time>2014-11-17T17:34:13Z</time>
      </trkpt>
      <trkpt lat="45.87704" lon="2.95028">
        <ele>857.3</ele>
        <time>2014-11-17T17:34:13Z</time>
      </trkpt>
      <trkpt lat="45.87705" lon="2.95022">
        <ele>857.3</ele>
        <time>2014-11-17T17:34:13Z</time>
      </trkpt>
      <trkpt lat="45.87706" lon="2.95016">
        <ele>857.2</ele>
        <time>2014-11-17T17:34:13Z</time>
      </trkpt>
      <trkpt lat="45.87708" lon="2.95009">
        <ele>857.1</ele>
        <time>2014-11-17T17:34:13Z</time>
      </trkpt>
      <trkpt lat="45.87708" lon="2.95001">
        <ele>857</ele>
        <time>2014-11-17T17:34:13Z</time>
      </trkpt>
      <trkpt lat="45.87709" lon="2.94991">
        <ele>856.8</ele>
        <time>2014-11-17T17:34:13Z</time>
      </trkpt>
      <trkpt lat="45.87709" lon="2.94985">
        <ele>856.7</ele>
        <time>2014-11-17T17:34:13Z</time>
      </trkpt>
      <trkpt lat="45.87709" lon="2.94975">
        <ele>856.5</ele>
        <time>2014-11-17T17:34:13Z</time>
      </trkpt>
      <trkpt lat="45.87708" lon="2.94966">
        <ele>856.3</ele>
        <time>2014-11-17T17:34:13Z</time>
      </trkpt>
      <trkpt lat="45.87707" lon="2.94959">
        <ele>856.1</ele>
        <time>2014-11-17T17:34:13Z</time>
      </trkpt>
      <trkpt lat="45.87706" lon="2.94952">
        <ele>855.8</ele>
        <time>2014-11-17T17:34:13Z</time>
      </trkpt>
      <trkpt lat="45.87705" lon="2.94941">
        <ele>855.5</ele>
        <time>2014-11-17T17:34:13Z</time>
      </trkpt>
      <trkpt lat="45.87702" lon="2.94928">
        <ele>855</ele>
        <time>2014-11-17T17:34:13Z</time>
      </trkpt>
      <trkpt lat="45.87702" lon="2.94918">
        <ele>854.5</ele>
        <time>2014-11-17T17:34:13Z</time>
      </trkpt>
      <trkpt lat="45.87701" lon="2.9491">
        <ele>854.2</ele>
        <time>2014-11-17T17:34:13Z</time>
      </trkpt>
      <trkpt lat="45.87699" lon="2.949">
        <ele>854</ele>
        <time>2014-11-17T17:34:13Z</time>
      </trkpt>
      <trkpt lat="45.87701" lon="2.94891">
        <ele>853.4</ele>
        <time>2014-11-17T17:34:13Z</time>
      </trkpt>
      <trkpt lat="45.87701" lon="2.94879">
        <ele>852.1</ele>
        <time>2014-11-17T17:34:13Z</time>
      </trkpt>
      <trkpt lat="45.87702" lon="2.9487">
        <ele>851.2</ele>
        <time>2014-11-17T17:34:13Z</time>
      </trkpt>
      <trkpt lat="45.87701" lon="2.94859">
        <ele>850</ele>
        <time>2014-11-17T17:34:13Z</time>
      </trkpt>
      <trkpt lat="45.87701" lon="2.94849">
        <ele>848.7</ele>
        <time>2014-11-17T17:34:13Z</time>
      </trkpt>
      <trkpt lat="45.87699" lon="2.9484">
        <ele>847.6</ele>
        <time>2014-11-17T17:34:13Z</time>
      </trkpt>
      <trkpt lat="45.87701" lon="2.94828">
        <ele>846.1</ele>
        <time>2014-11-17T17:34:13Z</time>
      </trkpt>
      <trkpt lat="45.87696" lon="2.94818">
        <ele>845.8</ele>
        <time>2014-11-17T17:34:13Z</time>
      </trkpt>
      <trkpt lat="45.87693" lon="2.94808">
        <ele>845.3</ele>
        <time>2014-11-17T17:34:13Z</time>
      </trkpt>
      <trkpt lat="45.87692" lon="2.948">
        <ele>844.8</ele>
        <time>2014-11-17T17:34:13Z</time>
      </trkpt>
      <trkpt lat="45.87691" lon="2.94796">
        <ele>844.5</ele>
        <time>2014-11-17T17:34:13Z</time>
      </trkpt>
      <trkpt lat="45.87692" lon="2.94788">
        <ele>843.9</ele>
        <time>2014-11-17T17:34:13Z</time>
      </trkpt>
      <trkpt lat="45.87693" lon="2.94781">
        <ele>843.4</ele>
        <time>2014-11-17T17:34:13Z</time>
      </trkpt>
      <trkpt lat="45.87696" lon="2.9477">
        <ele>842.6</ele>
        <time>2014-11-17T17:34:13Z</time>
      </trkpt>
      <trkpt lat="45.87697" lon="2.94763">
        <ele>842.2</ele>
        <time>2014-11-17T17:34:13Z</time>
      </trkpt>
      <trkpt lat="45.87701" lon="2.94756">
        <ele>841.5</ele>
        <time>2014-11-17T17:34:13Z</time>
      </trkpt>
      <trkpt lat="45.87703" lon="2.94746">
        <ele>840.9</ele>
        <time>2014-11-17T17:34:13Z</time>
      </trkpt>
      <trkpt lat="45.87702" lon="2.94736">
        <ele>840.6</ele>
        <time>2014-11-17T17:34:13Z</time>
      </trkpt>
      <trkpt lat="45.87707" lon="2.94729">
        <ele>839.9</ele>
        <time>2014-11-17T17:34:13Z</time>
      </trkpt>
      <trkpt lat="45.87713" lon="2.94722">
        <ele>839</ele>
        <time>2014-11-17T17:34:13Z</time>
      </trkpt>
      <trkpt lat="45.87717" lon="2.94717">
        <ele>838.5</ele>
        <time>2014-11-17T17:34:13Z</time>
      </trkpt>
      <trkpt lat="45.87721" lon="2.94711">
        <ele>838.1</ele>
        <time>2014-11-17T17:34:13Z</time>
      </trkpt>
      <trkpt lat="45.87726" lon="2.94702">
        <ele>837.6</ele>
        <time>2014-11-17T17:34:13Z</time>
      </trkpt>
      <trkpt lat="45.87731" lon="2.94697">
        <ele>837.1</ele>
        <time>2014-11-17T17:34:13Z</time>
      </trkpt>
      <trkpt lat="45.87734" lon="2.94693">
        <ele>836.7</ele>
        <time>2014-11-17T17:34:13Z</time>
      </trkpt>
      <trkpt lat="45.87738" lon="2.94689">
        <ele>836.4</ele>
        <time>2014-11-17T17:34:13Z</time>
      </trkpt>
      <trkpt lat="45.87743" lon="2.94686">
        <ele>836.2</ele>
        <time>2014-11-17T17:34:13Z</time>
      </trkpt>
      <trkpt lat="45.87747" lon="2.94682">
        <ele>836.1</ele>
        <time>2014-11-17T17:34:13Z</time>
      </trkpt>
      <trkpt lat="45.87752" lon="2.94678">
        <ele>836.1</ele>
        <time>2014-11-17T17:34:13Z</time>
      </trkpt>
      <trkpt lat="45.87757" lon="2.94675">
        <ele>836</ele>
        <time>2014-11-17T17:34:13Z</time>
      </trkpt>
      <trkpt lat="45.87763" lon="2.9467">
        <ele>835.9</ele>
        <time>2014-11-17T17:34:13Z</time>
      </trkpt>
      <trkpt lat="45.87769" lon="2.94665">
        <ele>835.7</ele>
        <time>2014-11-17T17:34:13Z</time>
      </trkpt>
      <trkpt lat="45.87775" lon="2.94661">
        <ele>835.4</ele>
        <time>2014-11-17T17:34:13Z</time>
      </trkpt>
      <trkpt lat="45.87781" lon="2.94657">
        <ele>835.2</ele>
        <time>2014-11-17T17:34:13Z</time>
      </trkpt>
      <trkpt lat="45.87787" lon="2.94653">
        <ele>835</ele>
        <time>2014-11-17T17:34:13Z</time>
      </trkpt>
      <trkpt lat="45.87792" lon="2.94649">
        <ele>834.8</ele>
        <time>2014-11-17T17:34:13Z</time>
      </trkpt>
      <trkpt lat="45.87799" lon="2.94644">
        <ele>834.4</ele>
        <time>2014-11-17T17:34:13Z</time>
      </trkpt>
      <trkpt lat="45.87804" lon="2.94642">
        <ele>834.1</ele>
        <time>2014-11-17T17:34:13Z</time>
      </trkpt>
      <trkpt lat="45.87812" lon="2.94638">
        <ele>834</ele>
        <time>2014-11-17T17:34:13Z</time>
      </trkpt>
      <trkpt lat="45.87816" lon="2.94636">
        <ele>834.1</ele>
        <time>2014-11-17T17:34:13Z</time>
      </trkpt>
      <trkpt lat="45.87823" lon="2.94632">
        <ele>834.1</ele>
        <time>2014-11-17T17:34:13Z</time>
      </trkpt>
      <trkpt lat="45.87829" lon="2.94629">
        <ele>834.1</ele>
        <time>2014-11-17T17:34:13Z</time>
      </trkpt>
      <trkpt lat="45.87835" lon="2.94626">
        <ele>834</ele>
        <time>2014-11-17T17:34:13Z</time>
      </trkpt>
      <trkpt lat="45.87842" lon="2.94624">
        <ele>834</ele>
        <time>2014-11-17T17:34:13Z</time>
      </trkpt>
      <trkpt lat="45.87848" lon="2.94623">
        <ele>834</ele>
        <time>2014-11-17T17:34:13Z</time>
      </trkpt>
      <trkpt lat="45.87854" lon="2.9462">
        <ele>834</ele>
        <time>2014-11-17T17:34:13Z</time>
      </trkpt>
      <trkpt lat="45.87861" lon="2.94619">
        <ele>834</ele>
        <time>2014-11-17T17:34:13Z</time>
      </trkpt>
      <trkpt lat="45.87868" lon="2.94616">
        <ele>833.7</ele>
        <time>2014-11-17T17:34:13Z</time>
      </trkpt>
      <trkpt lat="45.87874" lon="2.94615">
        <ele>833.5</ele>
        <time>2014-11-17T17:34:13Z</time>
      </trkpt>
      <trkpt lat="45.8788" lon="2.94615">
        <ele>833.3</ele>
        <time>2014-11-17T17:34:13Z</time>
      </trkpt>
      <trkpt lat="45.87887" lon="2.94614">
        <ele>833.1</ele>
        <time>2014-11-17T17:34:13Z</time>
      </trkpt>
      <trkpt lat="45.87892" lon="2.94614">
        <ele>832.8</ele>
        <time>2014-11-17T17:34:13Z</time>
      </trkpt>
      <trkpt lat="45.87897" lon="2.94613">
        <ele>832.4</ele>
        <time>2014-11-17T17:34:13Z</time>
      </trkpt>
      <trkpt lat="45.87903" lon="2.9461">
        <ele>832</ele>
        <time>2014-11-17T17:34:13Z</time>
      </trkpt>
      <trkpt lat="45.87909" lon="2.94607">
        <ele>831.5</ele>
        <time>2014-11-17T17:34:13Z</time>
      </trkpt>
      <trkpt lat="45.87913" lon="2.94603">
        <ele>831.2</ele>
        <time>2014-11-17T17:34:13Z</time>
      </trkpt>
      <trkpt lat="45.8792" lon="2.94597">
        <ele>830.5</ele>
        <time>2014-11-17T17:34:13Z</time>
      </trkpt>
      <trkpt lat="45.87925" lon="2.94593">
        <ele>829.8</ele>
        <time>2014-11-17T17:34:13Z</time>
      </trkpt>
      <trkpt lat="45.8793" lon="2.94588">
        <ele>829.1</ele>
        <time>2014-11-17T17:34:13Z</time>
      </trkpt>
      <trkpt lat="45.87934" lon="2.94583">
        <ele>828.5</ele>
        <time>2014-11-17T17:34:13Z</time>
      </trkpt>
      <trkpt lat="45.87938" lon="2.94576">
        <ele>828.2</ele>
        <time>2014-11-17T17:34:13Z</time>
      </trkpt>
      <trkpt lat="45.87941" lon="2.9457">
        <ele>828</ele>
        <time>2014-11-17T17:34:13Z</time>
      </trkpt>
      <trkpt lat="45.87945" lon="2.94566">
        <ele>827.5</ele>
        <time>2014-11-17T17:34:13Z</time>
      </trkpt>
      <trkpt lat="45.87949" lon="2.94562">
        <ele>827.3</ele>
        <time>2014-11-17T17:34:13Z</time>
      </trkpt>
      <trkpt lat="45.87953" lon="2.94557">
        <ele>827</ele>
        <time>2014-11-17T17:34:13Z</time>
      </trkpt>
      <trkpt lat="45.87958" lon="2.94552">
        <ele>826.7</ele>
        <time>2014-11-17T17:34:13Z</time>
      </trkpt>
      <trkpt lat="45.87963" lon="2.94548">
        <ele>826.3</ele>
        <time>2014-11-17T17:34:13Z</time>
      </trkpt>
      <trkpt lat="45.87969" lon="2.94542">
        <ele>825.9</ele>
        <time>2014-11-17T17:34:13Z</time>
      </trkpt>
      <trkpt lat="45.87976" lon="2.94537">
        <ele>825.6</ele>
        <time>2014-11-17T17:34:13Z</time>
      </trkpt>
      <trkpt lat="45.87982" lon="2.94532">
        <ele>825.6</ele>
        <time>2014-11-17T17:34:13Z</time>
      </trkpt>
      <trkpt lat="45.87986" lon="2.94527">
        <ele>825.5</ele>
        <time>2014-11-17T17:34:13Z</time>
      </trkpt>
      <trkpt lat="45.87992" lon="2.94521">
        <ele>825.4</ele>
        <time>2014-11-17T17:34:13Z</time>
      </trkpt>
      <trkpt lat="45.87996" lon="2.94517">
        <ele>825.2</ele>
        <time>2014-11-17T17:34:13Z</time>
      </trkpt>
      <trkpt lat="45.88001" lon="2.94514">
        <ele>825</ele>
        <time>2014-11-17T17:34:13Z</time>
      </trkpt>
      <trkpt lat="45.88005" lon="2.94511">
        <ele>824.8</ele>
        <time>2014-11-17T17:34:13Z</time>
      </trkpt>
      <trkpt lat="45.8801" lon="2.94505">
        <ele>824.6</ele>
        <time>2014-11-17T17:34:13Z</time>
      </trkpt>
      <trkpt lat="45.88016" lon="2.94499">
        <ele>824.4</ele>
        <time>2014-11-17T17:34:13Z</time>
      </trkpt>
      <trkpt lat="45.88018" lon="2.94492">
        <ele>824.3</ele>
        <time>2014-11-17T17:34:13Z</time>
      </trkpt>
      <trkpt lat="45.88022" lon="2.94486">
        <ele>823.9</ele>
        <time>2014-11-17T17:34:13Z</time>
      </trkpt>
      <trkpt lat="45.88028" lon="2.94482">
        <ele>823.3</ele>
        <time>2014-11-17T17:34:13Z</time>
      </trkpt>
      <trkpt lat="45.88033" lon="2.9448">
        <ele>823</ele>
        <time>2014-11-17T17:34:13Z</time>
      </trkpt>
      <trkpt lat="45.88038" lon="2.94478">
        <ele>822.8</ele>
        <time>2014-11-17T17:34:13Z</time>
      </trkpt>
      <trkpt lat="45.88044" lon="2.94476">
        <ele>822.5</ele>
        <time>2014-11-17T17:34:13Z</time>
      </trkpt>
      <trkpt lat="45.88051" lon="2.94474">
        <ele>822.2</ele>
        <time>2014-11-17T17:34:13Z</time>
      </trkpt>
      <trkpt lat="45.88059" lon="2.94474">
        <ele>822.1</ele>
        <time>2014-11-17T17:34:13Z</time>
      </trkpt>
      <trkpt lat="45.88068" lon="2.94473">
        <ele>822.4</ele>
        <time>2014-11-17T17:34:13Z</time>
      </trkpt>
      <trkpt lat="45.88075" lon="2.94472">
        <ele>822.7</ele>
        <time>2014-11-17T17:34:13Z</time>
      </trkpt>
      <trkpt lat="45.88074" lon="2.94477">
        <ele>822.6</ele>
        <time>2014-11-17T17:34:13Z</time>
      </trkpt>
      <trkpt lat="45.88077" lon="2.94478">
        <ele>822.6</ele>
        <time>2014-11-17T17:34:13Z</time>
      </trkpt>
      <trkpt lat="45.88082" lon="2.94477">
        <ele>822.8</ele>
        <time>2014-11-17T17:34:13Z</time>
      </trkpt>
      <trkpt lat="45.88087" lon="2.94477">
        <ele>822.7</ele>
        <time>2014-11-17T17:34:13Z</time>
      </trkpt>
      <trkpt lat="45.88093" lon="2.94476">
        <ele>822.6</ele>
        <time>2014-11-17T17:34:13Z</time>
      </trkpt>
      <trkpt lat="45.88096" lon="2.94477">
        <ele>822.4</ele>
        <time>2014-11-17T17:34:13Z</time>
      </trkpt>
      <trkpt lat="45.88101" lon="2.94478">
        <ele>822.3</ele>
        <time>2014-11-17T17:34:13Z</time>
      </trkpt>
      <trkpt lat="45.88107" lon="2.94478">
        <ele>822.1</ele>
        <time>2014-11-17T17:34:13Z</time>
      </trkpt>
      <trkpt lat="45.88112" lon="2.94478">
        <ele>822</ele>
        <time>2014-11-17T17:34:13Z</time>
      </trkpt>
      <trkpt lat="45.88117" lon="2.9448">
        <ele>822</ele>
        <time>2014-11-17T17:34:13Z</time>
      </trkpt>
      <trkpt lat="45.88124" lon="2.94481">
        <ele>822</ele>
        <time>2014-11-17T17:34:13Z</time>
      </trkpt>
      <trkpt lat="45.8813" lon="2.94483">
        <ele>822</ele>
        <time>2014-11-17T17:34:13Z</time>
      </trkpt>
      <trkpt lat="45.88137" lon="2.94485">
        <ele>822</ele>
        <time>2014-11-17T17:34:13Z</time>
      </trkpt>
      <trkpt lat="45.88143" lon="2.9449">
        <ele>822</ele>
        <time>2014-11-17T17:34:13Z</time>
      </trkpt>
      <trkpt lat="45.88149" lon="2.94492">
        <ele>822</ele>
        <time>2014-11-17T17:34:13Z</time>
      </trkpt>
      <trkpt lat="45.88155" lon="2.94495">
        <ele>822</ele>
        <time>2014-11-17T17:34:13Z</time>
      </trkpt>
      <trkpt lat="45.88162" lon="2.94497">
        <ele>822</ele>
        <time>2014-11-17T17:34:13Z</time>
      </trkpt>
      <trkpt lat="45.88168" lon="2.94497">
        <ele>822</ele>
        <time>2014-11-17T17:34:13Z</time>
      </trkpt>
      <trkpt lat="45.88175" lon="2.94498">
        <ele>822</ele>
        <time>2014-11-17T17:34:13Z</time>
      </trkpt>
      <trkpt lat="45.8818" lon="2.94498">
        <ele>822</ele>
        <time>2014-11-17T17:34:13Z</time>
      </trkpt>
      <trkpt lat="45.88186" lon="2.94497">
        <ele>822</ele>
        <time>2014-11-17T17:34:13Z</time>
      </trkpt>
      <trkpt lat="45.88194" lon="2.94497">
        <ele>822</ele>
        <time>2014-11-17T17:34:13Z</time>
      </trkpt>
      <trkpt lat="45.88203" lon="2.94496">
        <ele>822</ele>
        <time>2014-11-17T17:34:13Z</time>
      </trkpt>
      <trkpt lat="45.8821" lon="2.94495">
        <ele>821.9</ele>
        <time>2014-11-17T17:34:13Z</time>
      </trkpt>
      <trkpt lat="45.88216" lon="2.94496">
        <ele>821.9</ele>
        <time>2014-11-17T17:34:13Z</time>
      </trkpt>
      <trkpt lat="45.88224" lon="2.94496">
        <ele>821.9</ele>
        <time>2014-11-17T17:34:13Z</time>
      </trkpt>
      <trkpt lat="45.88232" lon="2.94498">
        <ele>822</ele>
        <time>2014-11-17T17:34:13Z</time>
      </trkpt>
      <trkpt lat="45.88239" lon="2.94498">
        <ele>822</ele>
        <time>2014-11-17T17:34:13Z</time>
      </trkpt>
      <trkpt lat="45.88246" lon="2.94499">
        <ele>822</ele>
        <time>2014-11-17T17:34:13Z</time>
      </trkpt>
      <trkpt lat="45.88252" lon="2.94499">
        <ele>822</ele>
        <time>2014-11-17T17:34:13Z</time>
      </trkpt>
      <trkpt lat="45.8826" lon="2.94498">
        <ele>822</ele>
        <time>2014-11-17T17:34:13Z</time>
      </trkpt>
      <trkpt lat="45.88265" lon="2.94497">
        <ele>821.9</ele>
        <time>2014-11-17T17:34:13Z</time>
      </trkpt>
      <trkpt lat="45.88271" lon="2.94498">
        <ele>822</ele>
        <time>2014-11-17T17:34:13Z</time>
      </trkpt>
      <trkpt lat="45.88276" lon="2.94502">
        <ele>822</ele>
        <time>2014-11-17T17:34:13Z</time>
      </trkpt>
      <trkpt lat="45.88285" lon="2.94503">
        <ele>821.8</ele>
        <time>2014-11-17T17:34:13Z</time>
      </trkpt>
      <trkpt lat="45.88292" lon="2.94506">
        <ele>821.6</ele>
        <time>2014-11-17T17:34:13Z</time>
      </trkpt>
      <trkpt lat="45.88298" lon="2.94511">
        <ele>821.6</ele>
        <time>2014-11-17T17:34:13Z</time>
      </trkpt>
      <trkpt lat="45.88304" lon="2.94517">
        <ele>821.6</ele>
        <time>2014-11-17T17:34:13Z</time>
      </trkpt>
      <trkpt lat="45.88308" lon="2.94523">
        <ele>821.7</ele>
        <time>2014-11-17T17:34:13Z</time>
      </trkpt>
      <trkpt lat="45.88311" lon="2.94526">
        <ele>821.7</ele>
        <time>2014-11-17T17:34:13Z</time>
      </trkpt>
      <trkpt lat="45.88312" lon="2.94526">
        <ele>821.7</ele>
        <time>2014-11-17T17:34:13Z</time>
      </trkpt>
      <trkpt lat="45.88311" lon="2.94526">
        <ele>821.7</ele>
        <time>2014-11-17T17:34:13Z</time>
      </trkpt>
      <trkpt lat="45.88312" lon="2.94529">
        <ele>821.8</ele>
        <time>2014-11-17T17:34:13Z</time>
      </trkpt>
      <trkpt lat="45.88313" lon="2.9453">
        <ele>821.7</ele>
        <time>2014-11-17T17:34:13Z</time>
      </trkpt>
      <trkpt lat="45.88315" lon="2.94531">
        <ele>821.7</ele>
        <time>2014-11-17T17:34:13Z</time>
      </trkpt>
      <trkpt lat="45.88316" lon="2.94534">
        <ele>821.6</ele>
        <time>2014-11-17T17:34:13Z</time>
      </trkpt>
      <trkpt lat="45.88317" lon="2.94537">
        <ele>821.6</ele>
        <time>2014-11-17T17:34:13Z</time>
      </trkpt>
      <trkpt lat="45.88318" lon="2.94536">
        <ele>821.5</ele>
        <time>2014-11-17T17:34:13Z</time>
      </trkpt>
      <trkpt lat="45.88319" lon="2.94534">
        <ele>821.5</ele>
        <time>2014-11-17T17:34:13Z</time>
      </trkpt>
      <trkpt lat="45.8832" lon="2.94533">
        <ele>821.5</ele>
        <time>2014-11-17T17:34:13Z</time>
      </trkpt>
      <trkpt lat="45.88321" lon="2.94532">
        <ele>821.5</ele>
        <time>2014-11-17T17:34:13Z</time>
      </trkpt>
      <trkpt lat="45.88321" lon="2.94531">
        <ele>821.5</ele>
        <time>2014-11-17T17:34:13Z</time>
      </trkpt>
      <trkpt lat="45.88322" lon="2.94531">
        <ele>821.4</ele>
        <time>2014-11-17T17:34:13Z</time>
      </trkpt>
      <trkpt lat="45.88321" lon="2.94532">
        <ele>821.4</ele>
        <time>2014-11-17T17:34:13Z</time>
      </trkpt>
      <trkpt lat="45.88319" lon="2.94536">
        <ele>821.5</ele>
        <time>2014-11-17T17:34:13Z</time>
      </trkpt>
      <trkpt lat="45.8832" lon="2.9454">
        <ele>821.5</ele>
        <time>2014-11-17T17:34:13Z</time>
      </trkpt>
      <trkpt lat="45.88323" lon="2.94545">
        <ele>821.4</ele>
        <time>2014-11-17T17:34:13Z</time>
      </trkpt>
      <trkpt lat="45.88325" lon="2.94554">
        <ele>821.3</ele>
        <time>2014-11-17T17:34:13Z</time>
      </trkpt>
      <trkpt lat="45.88327" lon="2.94563">
        <ele>821.2</ele>
        <time>2014-11-17T17:34:13Z</time>
      </trkpt>
      <trkpt lat="45.88328" lon="2.94571">
        <ele>821.2</ele>
        <time>2014-11-17T17:34:13Z</time>
      </trkpt>
      <trkpt lat="45.8833" lon="2.94581">
        <ele>821.1</ele>
        <time>2014-11-17T17:34:13Z</time>
      </trkpt>
      <trkpt lat="45.88332" lon="2.9459">
        <ele>821.3</ele>
        <time>2014-11-17T17:34:13Z</time>
      </trkpt>
      <trkpt lat="45.88334" lon="2.94599">
        <ele>821.6</ele>
        <time>2014-11-17T17:34:13Z</time>
      </trkpt>
      <trkpt lat="45.88336" lon="2.94608">
        <ele>821.8</ele>
        <time>2014-11-17T17:34:13Z</time>
      </trkpt>
      <trkpt lat="45.88339" lon="2.94616">
        <ele>821.7</ele>
        <time>2014-11-17T17:34:13Z</time>
      </trkpt>
      <trkpt lat="45.88341" lon="2.94624">
        <ele>821.6</ele>
        <time>2014-11-17T17:34:13Z</time>
      </trkpt>
      <trkpt lat="45.88343" lon="2.94632">
        <ele>821.4</ele>
        <time>2014-11-17T17:34:13Z</time>
      </trkpt>
      <trkpt lat="45.88345" lon="2.9464">
        <ele>821.2</ele>
        <time>2014-11-17T17:34:13Z</time>
      </trkpt>
      <trkpt lat="45.88347" lon="2.94647">
        <ele>821.1</ele>
        <time>2014-11-17T17:34:13Z</time>
      </trkpt>
      <trkpt lat="45.88349" lon="2.94657">
        <ele>821.2</ele>
        <time>2014-11-17T17:34:13Z</time>
      </trkpt>
      <trkpt lat="45.88351" lon="2.94665">
        <ele>821.3</ele>
        <time>2014-11-17T17:34:13Z</time>
      </trkpt>
      <trkpt lat="45.88353" lon="2.94673">
        <ele>821.3</ele>
        <time>2014-11-17T17:34:13Z</time>
      </trkpt>
      <trkpt lat="45.88353" lon="2.94681">
        <ele>821.3</ele>
        <time>2014-11-17T17:34:13Z</time>
      </trkpt>
      <trkpt lat="45.88354" lon="2.94686">
        <ele>821.3</ele>
        <time>2014-11-17T17:34:13Z</time>
      </trkpt>
      <trkpt lat="45.88354" lon="2.94689">
        <ele>821.3</ele>
        <time>2014-11-17T17:34:13Z</time>
      </trkpt>
      <trkpt lat="45.88354" lon="2.94692">
        <ele>821.3</ele>
        <time>2014-11-17T17:34:13Z</time>
      </trkpt>
      <trkpt lat="45.88353" lon="2.94694">
        <ele>821.3</ele>
        <time>2014-11-17T17:34:13Z</time>
      </trkpt>
      <trkpt lat="45.88353" lon="2.94696">
        <ele>821.3</ele>
        <time>2014-11-17T17:34:13Z</time>
      </trkpt>
      <trkpt lat="45.88353" lon="2.94705">
        <ele>821.2</ele>
        <time>2014-11-17T17:34:13Z</time>
      </trkpt>
      <trkpt lat="45.88354" lon="2.94713">
        <ele>821.1</ele>
        <time>2014-11-17T17:34:13Z</time>
      </trkpt>
      <trkpt lat="45.88354" lon="2.94718">
        <ele>821</ele>
        <time>2014-11-17T17:34:13Z</time>
      </trkpt>
      <trkpt lat="45.88355" lon="2.94724">
        <ele>820.9</ele>
        <time>2014-11-17T17:34:13Z</time>
      </trkpt>
      <trkpt lat="45.88355" lon="2.94731">
        <ele>820.7</ele>
        <time>2014-11-17T17:34:13Z</time>
      </trkpt>
      <trkpt lat="45.88355" lon="2.94738">
        <ele>820.6</ele>
        <time>2014-11-17T17:34:13Z</time>
      </trkpt>
      <trkpt lat="45.88355" lon="2.94742">
        <ele>820.4</ele>
        <time>2014-11-17T17:34:13Z</time>
      </trkpt>
      <trkpt lat="45.88354" lon="2.94748">
        <ele>820.3</ele>
        <time>2014-11-17T17:34:13Z</time>
      </trkpt>
      <trkpt lat="45.88352" lon="2.94755">
        <ele>820.3</ele>
        <time>2014-11-17T17:34:13Z</time>
      </trkpt>
      <trkpt lat="45.88352" lon="2.94762">
        <ele>820.3</ele>
        <time>2014-11-17T17:34:13Z</time>
      </trkpt>
      <trkpt lat="45.88351" lon="2.9477">
        <ele>820.4</ele>
        <time>2014-11-17T17:34:13Z</time>
      </trkpt>
      <trkpt lat="45.88349" lon="2.94777">
        <ele>820.4</ele>
        <time>2014-11-17T17:34:13Z</time>
      </trkpt>
      <trkpt lat="45.88347" lon="2.94785">
        <ele>820.5</ele>
        <time>2014-11-17T17:34:13Z</time>
      </trkpt>
      <trkpt lat="45.88345" lon="2.94794">
        <ele>820.6</ele>
        <time>2014-11-17T17:34:13Z</time>
      </trkpt>
      <trkpt lat="45.88344" lon="2.94804">
        <ele>820.6</ele>
        <time>2014-11-17T17:34:13Z</time>
      </trkpt>
      <trkpt lat="45.88342" lon="2.94813">
        <ele>820.7</ele>
        <time>2014-11-17T17:34:13Z</time>
      </trkpt>
      <trkpt lat="45.8834" lon="2.94821">
        <ele>820.8</ele>
        <time>2014-11-17T17:34:13Z</time>
      </trkpt>
      <trkpt lat="45.88338" lon="2.94831">
        <ele>820.8</ele>
        <time>2014-11-17T17:34:13Z</time>
      </trkpt>
      <trkpt lat="45.88336" lon="2.9484">
        <ele>820.9</ele>
        <time>2014-11-17T17:34:13Z</time>
      </trkpt>
      <trkpt lat="45.88335" lon="2.94849">
        <ele>820.9</ele>
        <time>2014-11-17T17:34:13Z</time>
      </trkpt>
      <trkpt lat="45.88335" lon="2.94859">
        <ele>820.9</ele>
        <time>2014-11-17T17:34:13Z</time>
      </trkpt>
      <trkpt lat="45.88336" lon="2.94865">
        <ele>820.9</ele>
        <time>2014-11-17T17:34:13Z</time>
      </trkpt>
      <trkpt lat="45.88337" lon="2.94871">
        <ele>820.8</ele>
        <time>2014-11-17T17:34:13Z</time>
      </trkpt>
      <trkpt lat="45.88339" lon="2.94877">
        <ele>820.7</ele>
        <time>2014-11-17T17:34:13Z</time>
      </trkpt>
      <trkpt lat="45.8834" lon="2.94883">
        <ele>820.6</ele>
        <time>2014-11-17T17:34:13Z</time>
      </trkpt>
      <trkpt lat="45.88342" lon="2.94888">
        <ele>820.4</ele>
        <time>2014-11-17T17:34:13Z</time>
      </trkpt>
      <trkpt lat="45.88344" lon="2.94894">
        <ele>820.4</ele>
        <time>2014-11-17T17:34:13Z</time>
      </trkpt>
      <trkpt lat="45.88347" lon="2.94901">
        <ele>820.4</ele>
        <time>2014-11-17T17:34:13Z</time>
      </trkpt>
      <trkpt lat="45.88352" lon="2.94905">
        <ele>820.3</ele>
        <time>2014-11-17T17:34:13Z</time>
      </trkpt>
      <trkpt lat="45.88354" lon="2.94913">
        <ele>820.4</ele>
        <time>2014-11-17T17:34:13Z</time>
      </trkpt>
      <trkpt lat="45.88355" lon="2.94919">
        <ele>820.5</ele>
        <time>2014-11-17T17:34:13Z</time>
      </trkpt>
      <trkpt lat="45.88359" lon="2.94927">
        <ele>820.5</ele>
        <time>2014-11-17T17:34:13Z</time>
      </trkpt>
      <trkpt lat="45.8836" lon="2.94934">
        <ele>820.7</ele>
        <time>2014-11-17T17:34:13Z</time>
      </trkpt>
      <trkpt lat="45.88363" lon="2.9494">
        <ele>820.8</ele>
        <time>2014-11-17T17:34:13Z</time>
      </trkpt>
      <trkpt lat="45.88367" lon="2.94946">
        <ele>820.8</ele>
        <time>2014-11-17T17:34:13Z</time>
      </trkpt>
      <trkpt lat="45.88369" lon="2.94955">
        <ele>821.1</ele>
        <time>2014-11-17T17:34:13Z</time>
      </trkpt>
      <trkpt lat="45.8837" lon="2.94964">
        <ele>821.4</ele>
        <time>2014-11-17T17:34:13Z</time>
      </trkpt>
      <trkpt lat="45.88371" lon="2.94973">
        <ele>821.7</ele>
        <time>2014-11-17T17:34:13Z</time>
      </trkpt>
      <trkpt lat="45.88371" lon="2.94983">
        <ele>821.8</ele>
        <time>2014-11-17T17:34:13Z</time>
      </trkpt>
      <trkpt lat="45.88372" lon="2.94992">
        <ele>821.9</ele>
        <time>2014-11-17T17:34:13Z</time>
      </trkpt>
      <trkpt lat="45.88372" lon="2.95001">
        <ele>822</ele>
        <time>2014-11-17T17:34:13Z</time>
      </trkpt>
      <trkpt lat="45.88372" lon="2.9501">
        <ele>822.2</ele>
        <time>2014-11-17T17:34:13Z</time>
      </trkpt>
      <trkpt lat="45.88371" lon="2.95019">
        <ele>822.4</ele>
        <time>2014-11-17T17:34:13Z</time>
      </trkpt>
      <trkpt lat="45.88372" lon="2.95029">
        <ele>822.6</ele>
        <time>2014-11-17T17:34:13Z</time>
      </trkpt>
      <trkpt lat="45.88371" lon="2.95037">
        <ele>823</ele>
        <time>2014-11-17T17:34:13Z</time>
      </trkpt>
      <trkpt lat="45.88371" lon="2.95046">
        <ele>823.3</ele>
        <time>2014-11-17T17:34:13Z</time>
      </trkpt>
      <trkpt lat="45.88371" lon="2.95053">
        <ele>823.6</ele>
        <time>2014-11-17T17:34:13Z</time>
      </trkpt>
      <trkpt lat="45.88371" lon="2.95061">
        <ele>823.7</ele>
        <time>2014-11-17T17:34:13Z</time>
      </trkpt>
      <trkpt lat="45.88371" lon="2.95069">
        <ele>823.8</ele>
        <time>2014-11-17T17:34:13Z</time>
      </trkpt>
      <trkpt lat="45.88372" lon="2.95078">
        <ele>823.9</ele>
        <time>2014-11-17T17:34:13Z</time>
      </trkpt>
      <trkpt lat="45.88372" lon="2.95087">
        <ele>824.1</ele>
        <time>2014-11-17T17:34:13Z</time>
      </trkpt>
      <trkpt lat="45.88373" lon="2.95095">
        <ele>824.4</ele>
        <time>2014-11-17T17:34:13Z</time>
      </trkpt>
      <trkpt lat="45.88374" lon="2.95105">
        <ele>824.8</ele>
        <time>2014-11-17T17:34:13Z</time>
      </trkpt>
      <trkpt lat="45.88376" lon="2.95115">
        <ele>825.1</ele>
        <time>2014-11-17T17:34:13Z</time>
      </trkpt>
      <trkpt lat="45.88378" lon="2.95123">
        <ele>825.2</ele>
        <time>2014-11-17T17:34:13Z</time>
      </trkpt>
      <trkpt lat="45.88378" lon="2.95133">
        <ele>825.3</ele>
        <time>2014-11-17T17:34:13Z</time>
      </trkpt>
      <trkpt lat="45.88381" lon="2.95142">
        <ele>825.3</ele>
        <time>2014-11-17T17:34:13Z</time>
      </trkpt>
      <trkpt lat="45.88384" lon="2.9515">
        <ele>825.2</ele>
        <time>2014-11-17T17:34:13Z</time>
      </trkpt>
      <trkpt lat="45.88386" lon="2.95158">
        <ele>825.1</ele>
        <time>2014-11-17T17:34:13Z</time>
      </trkpt>
      <trkpt lat="45.88388" lon="2.95166">
        <ele>825.1</ele>
        <time>2014-11-17T17:34:13Z</time>
      </trkpt>
      <trkpt lat="45.88389" lon="2.95173">
        <ele>824.5</ele>
        <time>2014-11-17T17:34:13Z</time>
      </trkpt>
      <trkpt lat="45.88389" lon="2.95181">
        <ele>823.9</ele>
        <time>2014-11-17T17:34:13Z</time>
      </trkpt>
      <trkpt lat="45.88391" lon="2.95188">
        <ele>823.4</ele>
        <time>2014-11-17T17:34:13Z</time>
      </trkpt>
      <trkpt lat="45.88391" lon="2.95195">
        <ele>822.8</ele>
        <time>2014-11-17T17:34:13Z</time>
      </trkpt>
      <trkpt lat="45.8839" lon="2.95202">
        <ele>822.4</ele>
        <time>2014-11-17T17:34:13Z</time>
      </trkpt>
      <trkpt lat="45.8839" lon="2.95211">
        <ele>821.8</ele>
        <time>2014-11-17T17:34:13Z</time>
      </trkpt>
      <trkpt lat="45.8839" lon="2.95221">
        <ele>821.1</ele>
        <time>2014-11-17T17:34:13Z</time>
      </trkpt>
      <trkpt lat="45.88391" lon="2.95229">
        <ele>820.7</ele>
        <time>2014-11-17T17:34:13Z</time>
      </trkpt>
      <trkpt lat="45.88393" lon="2.95238">
        <ele>820.3</ele>
        <time>2014-11-17T17:34:13Z</time>
      </trkpt>
      <trkpt lat="45.88393" lon="2.95248">
        <ele>819.9</ele>
        <time>2014-11-17T17:34:13Z</time>
      </trkpt>
      <trkpt lat="45.88395" lon="2.95255">
        <ele>819.7</ele>
        <time>2014-11-17T17:34:13Z</time>
      </trkpt>
      <trkpt lat="45.88396" lon="2.95263">
        <ele>819.6</ele>
        <time>2014-11-17T17:34:13Z</time>
      </trkpt>
      <trkpt lat="45.88397" lon="2.95272">
        <ele>819.5</ele>
        <time>2014-11-17T17:34:13Z</time>
      </trkpt>
      <trkpt lat="45.88397" lon="2.95281">
        <ele>819.3</ele>
        <time>2014-11-17T17:34:13Z</time>
      </trkpt>
      <trkpt lat="45.88399" lon="2.95289">
        <ele>819</ele>
        <time>2014-11-17T17:34:13Z</time>
      </trkpt>
      <trkpt lat="45.88399" lon="2.95299">
        <ele>818.8</ele>
        <time>2014-11-17T17:34:13Z</time>
      </trkpt>
      <trkpt lat="45.884" lon="2.95311">
        <ele>818.6</ele>
        <time>2014-11-17T17:34:13Z</time>
      </trkpt>
      <trkpt lat="45.884" lon="2.95319">
        <ele>818.6</ele>
        <time>2014-11-17T17:34:13Z</time>
      </trkpt>
      <trkpt lat="45.884" lon="2.95321">
        <ele>818.6</ele>
        <time>2014-11-17T17:34:13Z</time>
      </trkpt>
      <trkpt lat="45.884" lon="2.95323">
        <ele>818.6</ele>
        <time>2014-11-17T17:34:13Z</time>
      </trkpt>
      <trkpt lat="45.884" lon="2.95324">
        <ele>818.6</ele>
        <time>2014-11-17T17:34:13Z</time>
      </trkpt>
      <trkpt lat="45.884" lon="2.95325">
        <ele>818.6</ele>
        <time>2014-11-17T17:34:13Z</time>
      </trkpt>
      <trkpt lat="45.884" lon="2.95327">
        <ele>818.6</ele>
        <time>2014-11-17T17:34:13Z</time>
      </trkpt>
      <trkpt lat="45.884" lon="2.95334">
        <ele>818.6</ele>
        <time>2014-11-17T17:34:13Z</time>
      </trkpt>
      <trkpt lat="45.88403" lon="2.95343">
        <ele>818.2</ele>
        <time>2014-11-17T17:34:13Z</time>
      </trkpt>
      <trkpt lat="45.88405" lon="2.9535">
        <ele>817.8</ele>
        <time>2014-11-17T17:34:13Z</time>
      </trkpt>
      <trkpt lat="45.88408" lon="2.95359">
        <ele>817.4</ele>
        <time>2014-11-17T17:34:13Z</time>
      </trkpt>
      <trkpt lat="45.88408" lon="2.95368">
        <ele>817.4</ele>
        <time>2014-11-17T17:34:13Z</time>
      </trkpt>
      <trkpt lat="45.88409" lon="2.95374">
        <ele>817.4</ele>
        <time>2014-11-17T17:34:13Z</time>
      </trkpt>
      <trkpt lat="45.88411" lon="2.95384">
        <ele>817.4</ele>
        <time>2014-11-17T17:34:13Z</time>
      </trkpt>
      <trkpt lat="45.8841" lon="2.95395">
        <ele>817.6</ele>
        <time>2014-11-17T17:34:13Z</time>
      </trkpt>
      <trkpt lat="45.8841" lon="2.95406">
        <ele>817.8</ele>
        <time>2014-11-17T17:34:13Z</time>
      </trkpt>
      <trkpt lat="45.8841" lon="2.95415">
        <ele>818</ele>
        <time>2014-11-17T17:34:13Z</time>
      </trkpt>
      <trkpt lat="45.88411" lon="2.95425">
        <ele>817.8</ele>
        <time>2014-11-17T17:34:13Z</time>
      </trkpt>
      <trkpt lat="45.88412" lon="2.95433">
        <ele>817.5</ele>
        <time>2014-11-17T17:34:13Z</time>
      </trkpt>
      <trkpt lat="45.88412" lon="2.95435">
        <ele>817.5</ele>
        <time>2014-11-17T17:34:13Z</time>
      </trkpt>
      <trkpt lat="45.88411" lon="2.95438">
        <ele>817.4</ele>
        <time>2014-11-17T17:34:13Z</time>
      </trkpt>
      <trkpt lat="45.88411" lon="2.95443">
        <ele>817.3</ele>
        <time>2014-11-17T17:34:13Z</time>
      </trkpt>
      <trkpt lat="45.88411" lon="2.9545">
        <ele>817.2</ele>
        <time>2014-11-17T17:34:13Z</time>
      </trkpt>
      <trkpt lat="45.88411" lon="2.95457">
        <ele>817.2</ele>
        <time>2014-11-17T17:34:13Z</time>
      </trkpt>
      <trkpt lat="45.88411" lon="2.95465">
        <ele>817.2</ele>
        <time>2014-11-17T17:34:13Z</time>
      </trkpt>
      <trkpt lat="45.88411" lon="2.95474">
        <ele>817.2</ele>
        <time>2014-11-17T17:34:13Z</time>
      </trkpt>
      <trkpt lat="45.88413" lon="2.95482">
        <ele>817.1</ele>
        <time>2014-11-17T17:34:13Z</time>
      </trkpt>
      <trkpt lat="45.88414" lon="2.9549">
        <ele>817</ele>
        <time>2014-11-17T17:34:13Z</time>
      </trkpt>
      <trkpt lat="45.88413" lon="2.95496">
        <ele>817</ele>
        <time>2014-11-17T17:34:13Z</time>
      </trkpt>
      <trkpt lat="45.88413" lon="2.95505">
        <ele>817</ele>
        <time>2014-11-17T17:34:13Z</time>
      </trkpt>
      <trkpt lat="45.88414" lon="2.95512">
        <ele>817</ele>
        <time>2014-11-17T17:34:13Z</time>
      </trkpt>
      <trkpt lat="45.88413" lon="2.95521">
        <ele>817</ele>
        <time>2014-11-17T17:34:13Z</time>
      </trkpt>
      <trkpt lat="45.88414" lon="2.95528">
        <ele>817</ele>
        <time>2014-11-17T17:34:13Z</time>
      </trkpt>
      <trkpt lat="45.88414" lon="2.95536">
        <ele>817</ele>
        <time>2014-11-17T17:34:13Z</time>
      </trkpt>
      <trkpt lat="45.88413" lon="2.95546">
        <ele>817</ele>
        <time>2014-11-17T17:34:13Z</time>
      </trkpt>
      <trkpt lat="45.88414" lon="2.95554">
        <ele>817</ele>
        <time>2014-11-17T17:34:13Z</time>
      </trkpt>
      <trkpt lat="45.88414" lon="2.95561">
        <ele>817</ele>
        <time>2014-11-17T17:34:13Z</time>
      </trkpt>
      <trkpt lat="45.88414" lon="2.9557">
        <ele>817</ele>
        <time>2014-11-17T17:34:13Z</time>
      </trkpt>
      <trkpt lat="45.88414" lon="2.95578">
        <ele>817</ele>
        <time>2014-11-17T17:34:13Z</time>
      </trkpt>
      <trkpt lat="45.88415" lon="2.95587">
        <ele>817</ele>
        <time>2014-11-17T17:34:13Z</time>
      </trkpt>
      <trkpt lat="45.88416" lon="2.95596">
        <ele>817</ele>
        <time>2014-11-17T17:34:13Z</time>
      </trkpt>
      <trkpt lat="45.88417" lon="2.95604">
        <ele>817</ele>
        <time>2014-11-17T17:34:13Z</time>
      </trkpt>
      <trkpt lat="45.88418" lon="2.95612">
        <ele>816.9</ele>
        <time>2014-11-17T17:34:13Z</time>
      </trkpt>
      <trkpt lat="45.88419" lon="2.95621">
        <ele>816.6</ele>
        <time>2014-11-17T17:34:13Z</time>
      </trkpt>
      <trkpt lat="45.8842" lon="2.95629">
        <ele>816.3</ele>
        <time>2014-11-17T17:34:13Z</time>
      </trkpt>
      <trkpt lat="45.8842" lon="2.95637">
        <ele>816.1</ele>
        <time>2014-11-17T17:34:13Z</time>
      </trkpt>
      <trkpt lat="45.88421" lon="2.95644">
        <ele>816.2</ele>
        <time>2014-11-17T17:34:13Z</time>
      </trkpt>
      <trkpt lat="45.88421" lon="2.95653">
        <ele>816.5</ele>
        <time>2014-11-17T17:34:13Z</time>
      </trkpt>
      <trkpt lat="45.88422" lon="2.95661">
        <ele>816.8</ele>
        <time>2014-11-17T17:34:13Z</time>
      </trkpt>
      <trkpt lat="45.88422" lon="2.95669">
        <ele>817</ele>
        <time>2014-11-17T17:34:13Z</time>
      </trkpt>
      <trkpt lat="45.88423" lon="2.95677">
        <ele>816.9</ele>
        <time>2014-11-17T17:34:13Z</time>
      </trkpt>
      <trkpt lat="45.88423" lon="2.95685">
        <ele>816.8</ele>
        <time>2014-11-17T17:34:13Z</time>
      </trkpt>
      <trkpt lat="45.88423" lon="2.95693">
        <ele>816.8</ele>
        <time>2014-11-17T17:34:13Z</time>
      </trkpt>
      <trkpt lat="45.88424" lon="2.957">
        <ele>816.9</ele>
        <time>2014-11-17T17:34:13Z</time>
      </trkpt>
      <trkpt lat="45.88424" lon="2.95707">
        <ele>817.2</ele>
        <time>2014-11-17T17:34:13Z</time>
      </trkpt>
      <trkpt lat="45.88424" lon="2.95715">
        <ele>817.5</ele>
        <time>2014-11-17T17:34:13Z</time>
      </trkpt>
      <trkpt lat="45.88426" lon="2.95722">
        <ele>817.6</ele>
        <time>2014-11-17T17:34:13Z</time>
      </trkpt>
      <trkpt lat="45.88427" lon="2.9573">
        <ele>817.6</ele>
        <time>2014-11-17T17:34:13Z</time>
      </trkpt>
      <trkpt lat="45.88428" lon="2.95738">
        <ele>817.6</ele>
        <time>2014-11-17T17:34:13Z</time>
      </trkpt>
      <trkpt lat="45.88429" lon="2.95746">
        <ele>817.6</ele>
        <time>2014-11-17T17:34:13Z</time>
      </trkpt>
      <trkpt lat="45.8843" lon="2.95754">
        <ele>817.6</ele>
        <time>2014-11-17T17:34:13Z</time>
      </trkpt>
      <trkpt lat="45.88431" lon="2.95762">
        <ele>817.7</ele>
        <time>2014-11-17T17:34:13Z</time>
      </trkpt>
      <trkpt lat="45.88433" lon="2.9577">
        <ele>817.7</ele>
        <time>2014-11-17T17:34:13Z</time>
      </trkpt>
      <trkpt lat="45.88432" lon="2.95778">
        <ele>817.9</ele>
        <time>2014-11-17T17:34:13Z</time>
      </trkpt>
      <trkpt lat="45.88432" lon="2.95786">
        <ele>818</ele>
        <time>2014-11-17T17:34:13Z</time>
      </trkpt>
      <trkpt lat="45.88433" lon="2.95793">
        <ele>818.1</ele>
        <time>2014-11-17T17:34:13Z</time>
      </trkpt>
      <trkpt lat="45.88434" lon="2.95802">
        <ele>818.3</ele>
        <time>2014-11-17T17:34:13Z</time>
      </trkpt>
      <trkpt lat="45.88435" lon="2.95809">
        <ele>818.3</ele>
        <time>2014-11-17T17:34:13Z</time>
      </trkpt>
      <trkpt lat="45.88437" lon="2.95818">
        <ele>818.3</ele>
        <time>2014-11-17T17:34:13Z</time>
      </trkpt>
      <trkpt lat="45.88438" lon="2.95825">
        <ele>818.2</ele>
        <time>2014-11-17T17:34:13Z</time>
      </trkpt>
      <trkpt lat="45.88439" lon="2.95833">
        <ele>818.2</ele>
        <time>2014-11-17T17:34:13Z</time>
      </trkpt>
      <trkpt lat="45.8844" lon="2.95842">
        <ele>818.2</ele>
        <time>2014-11-17T17:34:13Z</time>
      </trkpt>
      <trkpt lat="45.88439" lon="2.9585">
        <ele>818.2</ele>
        <time>2014-11-17T17:34:13Z</time>
      </trkpt>
      <trkpt lat="45.88439" lon="2.95859">
        <ele>818.2</ele>
        <time>2014-11-17T17:34:13Z</time>
      </trkpt>
      <trkpt lat="45.8844" lon="2.95866">
        <ele>818.2</ele>
        <time>2014-11-17T17:34:13Z</time>
      </trkpt>
      <trkpt lat="45.88439" lon="2.95875">
        <ele>818.2</ele>
        <time>2014-11-17T17:34:13Z</time>
      </trkpt>
      <trkpt lat="45.88441" lon="2.95883">
        <ele>818.1</ele>
        <time>2014-11-17T17:34:13Z</time>
      </trkpt>
      <trkpt lat="45.88443" lon="2.9589">
        <ele>818.1</ele>
        <time>2014-11-17T17:34:13Z</time>
      </trkpt>
      <trkpt lat="45.88443" lon="2.95898">
        <ele>818.4</ele>
        <time>2014-11-17T17:34:13Z</time>
      </trkpt>
      <trkpt lat="45.88446" lon="2.95905">
        <ele>818.6</ele>
        <time>2014-11-17T17:34:13Z</time>
      </trkpt>
      <trkpt lat="45.88449" lon="2.95912">
        <ele>818.7</ele>
        <time>2014-11-17T17:34:13Z</time>
      </trkpt>
      <trkpt lat="45.8845" lon="2.95918">
        <ele>818.9</ele>
        <time>2014-11-17T17:34:13Z</time>
      </trkpt>
      <trkpt lat="45.88452" lon="2.95926">
        <ele>819</ele>
        <time>2014-11-17T17:34:13Z</time>
      </trkpt>
      <trkpt lat="45.88455" lon="2.95933">
        <ele>819.2</ele>
        <time>2014-11-17T17:34:13Z</time>
      </trkpt>
      <trkpt lat="45.88458" lon="2.95939">
        <ele>819.3</ele>
        <time>2014-11-17T17:34:13Z</time>
      </trkpt>
      <trkpt lat="45.88461" lon="2.95946">
        <ele>819.4</ele>
        <time>2014-11-17T17:34:13Z</time>
      </trkpt>
      <trkpt lat="45.88463" lon="2.95953">
        <ele>819.2</ele>
        <time>2014-11-17T17:34:13Z</time>
      </trkpt>
      <trkpt lat="45.88466" lon="2.9596">
        <ele>819.1</ele>
        <time>2014-11-17T17:34:13Z</time>
      </trkpt>
      <trkpt lat="45.88469" lon="2.95968">
        <ele>819</ele>
        <time>2014-11-17T17:34:13Z</time>
      </trkpt>
      <trkpt lat="45.88472" lon="2.95975">
        <ele>819</ele>
        <time>2014-11-17T17:34:13Z</time>
      </trkpt>
      <trkpt lat="45.88475" lon="2.95983">
        <ele>819</ele>
        <time>2014-11-17T17:34:13Z</time>
      </trkpt>
      <trkpt lat="45.88478" lon="2.95991">
        <ele>819</ele>
        <time>2014-11-17T17:34:13Z</time>
      </trkpt>
      <trkpt lat="45.88481" lon="2.95998">
        <ele>819</ele>
        <time>2014-11-17T17:34:13Z</time>
      </trkpt>
      <trkpt lat="45.88484" lon="2.96005">
        <ele>819</ele>
        <time>2014-11-17T17:34:13Z</time>
      </trkpt>
      <trkpt lat="45.88486" lon="2.96011">
        <ele>819</ele>
        <time>2014-11-17T17:34:13Z</time>
      </trkpt>
      <trkpt lat="45.88488" lon="2.96017">
        <ele>819</ele>
        <time>2014-11-17T17:34:13Z</time>
      </trkpt>
      <trkpt lat="45.88492" lon="2.96025">
        <ele>819</ele>
        <time>2014-11-17T17:34:13Z</time>
      </trkpt>
      <trkpt lat="45.88495" lon="2.96031">
        <ele>819</ele>
        <time>2014-11-17T17:34:13Z</time>
      </trkpt>
      <trkpt lat="45.88497" lon="2.96037">
        <ele>819</ele>
        <time>2014-11-17T17:34:13Z</time>
      </trkpt>
      <trkpt lat="45.885" lon="2.96044">
        <ele>819</ele>
        <time>2014-11-17T17:34:13Z</time>
      </trkpt>
      <trkpt lat="45.88503" lon="2.96052">
        <ele>819</ele>
        <time>2014-11-17T17:34:13Z</time>
      </trkpt>
      <trkpt lat="45.88507" lon="2.96058">
        <ele>819</ele>
        <time>2014-11-17T17:34:13Z</time>
      </trkpt>
      <trkpt lat="45.88509" lon="2.96065">
        <ele>819</ele>
        <time>2014-11-17T17:34:13Z</time>
      </trkpt>
      <trkpt lat="45.88512" lon="2.96072">
        <ele>819</ele>
        <time>2014-11-17T17:34:13Z</time>
      </trkpt>
      <trkpt lat="45.88515" lon="2.96079">
        <ele>819</ele>
        <time>2014-11-17T17:34:13Z</time>
      </trkpt>
      <trkpt lat="45.88518" lon="2.96086">
        <ele>819</ele>
        <time>2014-11-17T17:34:13Z</time>
      </trkpt>
      <trkpt lat="45.88521" lon="2.96093">
        <ele>819</ele>
        <time>2014-11-17T17:34:13Z</time>
      </trkpt>
      <trkpt lat="45.88524" lon="2.96098">
        <ele>819</ele>
        <time>2014-11-17T17:34:13Z</time>
      </trkpt>
      <trkpt lat="45.88526" lon="2.96102">
        <ele>819</ele>
        <time>2014-11-17T17:34:13Z</time>
      </trkpt>
      <trkpt lat="45.88527" lon="2.96105">
        <ele>819</ele>
        <time>2014-11-17T17:34:13Z</time>
      </trkpt>
      <trkpt lat="45.8853" lon="2.96108">
        <ele>819</ele>
        <time>2014-11-17T17:34:13Z</time>
      </trkpt>
      <trkpt lat="45.8853" lon="2.9611">
        <ele>819</ele>
        <time>2014-11-17T17:34:13Z</time>
      </trkpt>
      <trkpt lat="45.88529" lon="2.96109">
        <ele>819</ele>
        <time>2014-11-17T17:34:13Z</time>
      </trkpt>
      <trkpt lat="45.88529" lon="2.96114">
        <ele>819</ele>
        <time>2014-11-17T17:34:13Z</time>
      </trkpt>
      <trkpt lat="45.8853" lon="2.96117">
        <ele>819</ele>
        <time>2014-11-17T17:34:13Z</time>
      </trkpt>
      <trkpt lat="45.88533" lon="2.96123">
        <ele>819</ele>
        <time>2014-11-17T17:34:13Z</time>
      </trkpt>
      <trkpt lat="45.88536" lon="2.96128">
        <ele>819</ele>
        <time>2014-11-17T17:34:13Z</time>
      </trkpt>
      <trkpt lat="45.88539" lon="2.96136">
        <ele>819</ele>
        <time>2014-11-17T17:34:13Z</time>
      </trkpt>
      <trkpt lat="45.88543" lon="2.96143">
        <ele>818.9</ele>
        <time>2014-11-17T17:34:13Z</time>
      </trkpt>
      <trkpt lat="45.88546" lon="2.9615">
        <ele>818.7</ele>
        <time>2014-11-17T17:34:13Z</time>
      </trkpt>
      <trkpt lat="45.88549" lon="2.96156">
        <ele>818.5</ele>
        <time>2014-11-17T17:34:13Z</time>
      </trkpt>
      <trkpt lat="45.88552" lon="2.96164">
        <ele>818.2</ele>
        <time>2014-11-17T17:34:13Z</time>
      </trkpt>
      <trkpt lat="45.88555" lon="2.9617">
        <ele>818.1</ele>
        <time>2014-11-17T17:34:13Z</time>
      </trkpt>
      <trkpt lat="45.88559" lon="2.96177">
        <ele>818.3</ele>
        <time>2014-11-17T17:34:13Z</time>
      </trkpt>
      <trkpt lat="45.88562" lon="2.96183">
        <ele>818.4</ele>
        <time>2014-11-17T17:34:13Z</time>
      </trkpt>
      <trkpt lat="45.88566" lon="2.96191">
        <ele>818.5</ele>
        <time>2014-11-17T17:34:13Z</time>
      </trkpt>
      <trkpt lat="45.88568" lon="2.96197">
        <ele>818.5</ele>
        <time>2014-11-17T17:34:13Z</time>
      </trkpt>
      <trkpt lat="45.88569" lon="2.96201">
        <ele>818.4</ele>
        <time>2014-11-17T17:34:13Z</time>
      </trkpt>
      <trkpt lat="45.8857" lon="2.96201">
        <ele>818.4</ele>
        <time>2014-11-17T17:34:13Z</time>
      </trkpt>
      <trkpt lat="45.88573" lon="2.96209">
        <ele>818.2</ele>
        <time>2014-11-17T17:34:13Z</time>
      </trkpt>
      <trkpt lat="45.88575" lon="2.96215">
        <ele>818.1</ele>
        <time>2014-11-17T17:34:13Z</time>
      </trkpt>
      <trkpt lat="45.88579" lon="2.96217">
        <ele>818</ele>
        <time>2014-11-17T17:34:13Z</time>
      </trkpt>
      <trkpt lat="45.88579" lon="2.96224">
        <ele>818</ele>
        <time>2014-11-17T17:34:13Z</time>
      </trkpt>
      <trkpt lat="45.88581" lon="2.96224">
        <ele>818</ele>
        <time>2014-11-17T17:34:13Z</time>
      </trkpt>
      <trkpt lat="45.88585" lon="2.96229">
        <ele>817.9</ele>
        <time>2014-11-17T17:34:13Z</time>
      </trkpt>
      <trkpt lat="45.88587" lon="2.96234">
        <ele>817.9</ele>
        <time>2014-11-17T17:34:13Z</time>
      </trkpt>
      <trkpt lat="45.88593" lon="2.9624">
        <ele>817.7</ele>
        <time>2014-11-17T17:34:13Z</time>
      </trkpt>
      <trkpt lat="45.88595" lon="2.96247">
        <ele>817.6</ele>
        <time>2014-11-17T17:34:13Z</time>
      </trkpt>
      <trkpt lat="45.88598" lon="2.96254">
        <ele>817.5</ele>
        <time>2014-11-17T17:34:13Z</time>
      </trkpt>
      <trkpt lat="45.88601" lon="2.96261">
        <ele>817.4</ele>
        <time>2014-11-17T17:34:13Z</time>
      </trkpt>
      <trkpt lat="45.88604" lon="2.96267">
        <ele>817.3</ele>
        <time>2014-11-17T17:34:13Z</time>
      </trkpt>
      <trkpt lat="45.88607" lon="2.96274">
        <ele>817.2</ele>
        <time>2014-11-17T17:34:13Z</time>
      </trkpt>
      <trkpt lat="45.88607" lon="2.96281">
        <ele>817.2</ele>
        <time>2014-11-17T17:34:13Z</time>
      </trkpt>
      <trkpt lat="45.88609" lon="2.96288">
        <ele>817.1</ele>
        <time>2014-11-17T17:34:13Z</time>
      </trkpt>
      <trkpt lat="45.88611" lon="2.96297">
        <ele>817</ele>
        <time>2014-11-17T17:34:13Z</time>
      </trkpt>
      <trkpt lat="45.88613" lon="2.96304">
        <ele>816.9</ele>
        <time>2014-11-17T17:34:13Z</time>
      </trkpt>
      <trkpt lat="45.88613" lon="2.9631">
        <ele>816.9</ele>
        <time>2014-11-17T17:34:13Z</time>
      </trkpt>
      <trkpt lat="45.88614" lon="2.96319">
        <ele>816.9</ele>
        <time>2014-11-17T17:34:13Z</time>
      </trkpt>
      <trkpt lat="45.88615" lon="2.96326">
        <ele>816.9</ele>
        <time>2014-11-17T17:34:13Z</time>
      </trkpt>
      <trkpt lat="45.88617" lon="2.96333">
        <ele>816.8</ele>
        <time>2014-11-17T17:34:13Z</time>
      </trkpt>
      <trkpt lat="45.88618" lon="2.96341">
        <ele>816.7</ele>
        <time>2014-11-17T17:34:13Z</time>
      </trkpt>
      <trkpt lat="45.8862" lon="2.96348">
        <ele>816.7</ele>
        <time>2014-11-17T17:34:13Z</time>
      </trkpt>
      <trkpt lat="45.88622" lon="2.96355">
        <ele>816.6</ele>
        <time>2014-11-17T17:34:13Z</time>
      </trkpt>
      <trkpt lat="45.88626" lon="2.96363">
        <ele>816.5</ele>
        <time>2014-11-17T17:34:13Z</time>
      </trkpt>
      <trkpt lat="45.88629" lon="2.9637">
        <ele>816.3</ele>
        <time>2014-11-17T17:34:13Z</time>
      </trkpt>
      <trkpt lat="45.88633" lon="2.96379">
        <ele>816.2</ele>
        <time>2014-11-17T17:34:13Z</time>
      </trkpt>
      <trkpt lat="45.88636" lon="2.96385">
        <ele>816.1</ele>
        <time>2014-11-17T17:34:13Z</time>
      </trkpt>
      <trkpt lat="45.8864" lon="2.96393">
        <ele>816</ele>
        <time>2014-11-17T17:34:13Z</time>
      </trkpt>
      <trkpt lat="45.88644" lon="2.96401">
        <ele>815.7</ele>
        <time>2014-11-17T17:34:13Z</time>
      </trkpt>
      <trkpt lat="45.88647" lon="2.96407">
        <ele>815.5</ele>
        <time>2014-11-17T17:34:13Z</time>
      </trkpt>
      <trkpt lat="45.88651" lon="2.96414">
        <ele>815.2</ele>
        <time>2014-11-17T17:34:13Z</time>
      </trkpt>
      <trkpt lat="45.88654" lon="2.96419">
        <ele>814.9</ele>
        <time>2014-11-17T17:34:13Z</time>
      </trkpt>
      <trkpt lat="45.88658" lon="2.96426">
        <ele>814.7</ele>
        <time>2014-11-17T17:34:13Z</time>
      </trkpt>
      <trkpt lat="45.88662" lon="2.96433">
        <ele>814.4</ele>
        <time>2014-11-17T17:34:13Z</time>
      </trkpt>
      <trkpt lat="45.88666" lon="2.96439">
        <ele>814.1</ele>
        <time>2014-11-17T17:34:13Z</time>
      </trkpt>
      <trkpt lat="45.8867" lon="2.96445">
        <ele>813.9</ele>
        <time>2014-11-17T17:34:13Z</time>
      </trkpt>
      <trkpt lat="45.88674" lon="2.96451">
        <ele>813.5</ele>
        <time>2014-11-17T17:34:13Z</time>
      </trkpt>
      <trkpt lat="45.88677" lon="2.96457">
        <ele>813.2</ele>
        <time>2014-11-17T17:34:13Z</time>
      </trkpt>
      <trkpt lat="45.88681" lon="2.96464">
        <ele>812.8</ele>
        <time>2014-11-17T17:34:13Z</time>
      </trkpt>
      <trkpt lat="45.88684" lon="2.9647">
        <ele>812.4</ele>
        <time>2014-11-17T17:34:13Z</time>
      </trkpt>
      <trkpt lat="45.88688" lon="2.96477">
        <ele>812</ele>
        <time>2014-11-17T17:34:13Z</time>
      </trkpt>
      <trkpt lat="45.88691" lon="2.96483">
        <ele>811.7</ele>
        <time>2014-11-17T17:34:13Z</time>
      </trkpt>
      <trkpt lat="45.88696" lon="2.96492">
        <ele>811.3</ele>
        <time>2014-11-17T17:34:13Z</time>
      </trkpt>
      <trkpt lat="45.88698" lon="2.96495">
        <ele>811</ele>
        <time>2014-11-17T17:34:13Z</time>
      </trkpt>
      <trkpt lat="45.88702" lon="2.96499">
        <ele>810.8</ele>
        <time>2014-11-17T17:34:13Z</time>
      </trkpt>
      <trkpt lat="45.88707" lon="2.965">
        <ele>810.6</ele>
        <time>2014-11-17T17:34:13Z</time>
      </trkpt>
      <trkpt lat="45.88712" lon="2.96502">
        <ele>810.4</ele>
        <time>2014-11-17T17:34:13Z</time>
      </trkpt>
      <trkpt lat="45.88716" lon="2.96504">
        <ele>810.2</ele>
        <time>2014-11-17T17:34:13Z</time>
      </trkpt>
      <trkpt lat="45.88721" lon="2.96505">
        <ele>810</ele>
        <time>2014-11-17T17:34:13Z</time>
      </trkpt>
      <trkpt lat="45.88726" lon="2.96505">
        <ele>809.8</ele>
        <time>2014-11-17T17:34:13Z</time>
      </trkpt>
      <trkpt lat="45.88729" lon="2.96505">
        <ele>809.5</ele>
        <time>2014-11-17T17:34:13Z</time>
      </trkpt>
      <trkpt lat="45.88731" lon="2.96506">
        <ele>809.4</ele>
        <time>2014-11-17T17:34:13Z</time>
      </trkpt>
      <trkpt lat="45.88737" lon="2.96509">
        <ele>808.9</ele>
        <time>2014-11-17T17:34:13Z</time>
      </trkpt>
      <trkpt lat="45.88742" lon="2.96513">
        <ele>808.6</ele>
        <time>2014-11-17T17:34:13Z</time>
      </trkpt>
      <trkpt lat="45.88747" lon="2.96517">
        <ele>808.2</ele>
        <time>2014-11-17T17:34:13Z</time>
      </trkpt>
      <trkpt lat="45.88752" lon="2.96522">
        <ele>807.8</ele>
        <time>2014-11-17T17:34:13Z</time>
      </trkpt>
      <trkpt lat="45.88756" lon="2.96526">
        <ele>807.4</ele>
        <time>2014-11-17T17:34:13Z</time>
      </trkpt>
      <trkpt lat="45.88761" lon="2.96531">
        <ele>806.9</ele>
        <time>2014-11-17T17:34:13Z</time>
      </trkpt>
      <trkpt lat="45.88765" lon="2.96536">
        <ele>806.3</ele>
        <time>2014-11-17T17:34:13Z</time>
      </trkpt>
      <trkpt lat="45.88771" lon="2.96541">
        <ele>805.7</ele>
        <time>2014-11-17T17:34:13Z</time>
      </trkpt>
      <trkpt lat="45.88777" lon="2.96544">
        <ele>805.1</ele>
        <time>2014-11-17T17:34:13Z</time>
      </trkpt>
      <trkpt lat="45.88783" lon="2.96548">
        <ele>804.6</ele>
        <time>2014-11-17T17:34:13Z</time>
      </trkpt>
      <trkpt lat="45.88787" lon="2.96551">
        <ele>804.3</ele>
        <time>2014-11-17T17:34:13Z</time>
      </trkpt>
      <trkpt lat="45.88792" lon="2.96554">
        <ele>804</ele>
        <time>2014-11-17T17:34:13Z</time>
      </trkpt>
      <trkpt lat="45.88797" lon="2.96557">
        <ele>803.6</ele>
        <time>2014-11-17T17:34:13Z</time>
      </trkpt>
      <trkpt lat="45.88801" lon="2.96559">
        <ele>803.3</ele>
        <time>2014-11-17T17:34:13Z</time>
      </trkpt>
      <trkpt lat="45.88805" lon="2.96562">
        <ele>803</ele>
        <time>2014-11-17T17:34:13Z</time>
      </trkpt>
      <trkpt lat="45.8881" lon="2.96564">
        <ele>802.6</ele>
        <time>2014-11-17T17:34:13Z</time>
      </trkpt>
      <trkpt lat="45.88814" lon="2.96566">
        <ele>802.2</ele>
        <time>2014-11-17T17:34:13Z</time>
      </trkpt>
      <trkpt lat="45.88821" lon="2.96569">
        <ele>801.6</ele>
        <time>2014-11-17T17:34:13Z</time>
      </trkpt>
      <trkpt lat="45.88825" lon="2.96569">
        <ele>801.2</ele>
        <time>2014-11-17T17:34:13Z</time>
      </trkpt>
      <trkpt lat="45.88831" lon="2.9657">
        <ele>800.7</ele>
        <time>2014-11-17T17:34:13Z</time>
      </trkpt>
      <trkpt lat="45.88838" lon="2.96572">
        <ele>800.3</ele>
        <time>2014-11-17T17:34:13Z</time>
      </trkpt>
      <trkpt lat="45.88844" lon="2.96575">
        <ele>800</ele>
        <time>2014-11-17T17:34:13Z</time>
      </trkpt>
      <trkpt lat="45.88847" lon="2.96574">
        <ele>799.8</ele>
        <time>2014-11-17T17:34:13Z</time>
      </trkpt>
      <trkpt lat="45.88852" lon="2.96578">
        <ele>799.6</ele>
        <time>2014-11-17T17:34:13Z</time>
      </trkpt>
      <trkpt lat="45.88858" lon="2.96581">
        <ele>799.2</ele>
        <time>2014-11-17T17:34:13Z</time>
      </trkpt>
      <trkpt lat="45.88865" lon="2.96585">
        <ele>798.9</ele>
        <time>2014-11-17T17:34:13Z</time>
      </trkpt>
      <trkpt lat="45.88869" lon="2.96587">
        <ele>798.7</ele>
        <time>2014-11-17T17:34:13Z</time>
      </trkpt>
      <trkpt lat="45.88874" lon="2.96591">
        <ele>798.5</ele>
        <time>2014-11-17T17:34:13Z</time>
      </trkpt>
      <trkpt lat="45.8888" lon="2.96594">
        <ele>798.3</ele>
        <time>2014-11-17T17:34:13Z</time>
      </trkpt>
      <trkpt lat="45.88884" lon="2.96594">
        <ele>798.2</ele>
        <time>2014-11-17T17:34:13Z</time>
      </trkpt>
      <trkpt lat="45.88891" lon="2.96598">
        <ele>797.9</ele>
        <time>2014-11-17T17:34:13Z</time>
      </trkpt>
      <trkpt lat="45.88897" lon="2.96603">
        <ele>797.7</ele>
        <time>2014-11-17T17:34:13Z</time>
      </trkpt>
      <trkpt lat="45.88902" lon="2.96603">
        <ele>797.5</ele>
        <time>2014-11-17T17:34:13Z</time>
      </trkpt>
      <trkpt lat="45.88907" lon="2.96608">
        <ele>797.4</ele>
        <time>2014-11-17T17:34:13Z</time>
      </trkpt>
      <trkpt lat="45.8891" lon="2.96615">
        <ele>797.2</ele>
        <time>2014-11-17T17:34:13Z</time>
      </trkpt>
      <trkpt lat="45.88913" lon="2.96623">
        <ele>797.1</ele>
        <time>2014-11-17T17:34:13Z</time>
      </trkpt>
      <trkpt lat="45.88914" lon="2.96629">
        <ele>797</ele>
        <time>2014-11-17T17:34:13Z</time>
      </trkpt>
      <trkpt lat="45.88917" lon="2.96637">
        <ele>797</ele>
        <time>2014-11-17T17:34:13Z</time>
      </trkpt>
      <trkpt lat="45.88918" lon="2.96645">
        <ele>796.7</ele>
        <time>2014-11-17T17:34:13Z</time>
      </trkpt>
      <trkpt lat="45.88919" lon="2.96655">
        <ele>796.3</ele>
        <time>2014-11-17T17:34:13Z</time>
      </trkpt>
      <trkpt lat="45.88919" lon="2.96663">
        <ele>796</ele>
        <time>2014-11-17T17:34:13Z</time>
      </trkpt>
      <trkpt lat="45.88919" lon="2.9667">
        <ele>795.9</ele>
        <time>2014-11-17T17:34:13Z</time>
      </trkpt>
      <trkpt lat="45.88921" lon="2.9668">
        <ele>795.8</ele>
        <time>2014-11-17T17:34:13Z</time>
      </trkpt>
      <trkpt lat="45.8892" lon="2.96688">
        <ele>795.9</ele>
        <time>2014-11-17T17:34:13Z</time>
      </trkpt>
      <trkpt lat="45.88917" lon="2.96694">
        <ele>796</ele>
        <time>2014-11-17T17:34:13Z</time>
      </trkpt>
      <trkpt lat="45.88915" lon="2.96702">
        <ele>795.8</ele>
        <time>2014-11-17T17:34:13Z</time>
      </trkpt>
      <trkpt lat="45.88913" lon="2.9671">
        <ele>795.7</ele>
        <time>2014-11-17T17:34:13Z</time>
      </trkpt>
      <trkpt lat="45.8891" lon="2.96717">
        <ele>795.6</ele>
        <time>2014-11-17T17:34:13Z</time>
      </trkpt>
      <trkpt lat="45.88911" lon="2.96724">
        <ele>795.4</ele>
        <time>2014-11-17T17:34:13Z</time>
      </trkpt>
      <trkpt lat="45.8891" lon="2.96732">
        <ele>795.3</ele>
        <time>2014-11-17T17:34:13Z</time>
      </trkpt>
      <trkpt lat="45.88909" lon="2.9674">
        <ele>795.2</ele>
        <time>2014-11-17T17:34:13Z</time>
      </trkpt>
      <trkpt lat="45.8891" lon="2.96749">
        <ele>795</ele>
        <time>2014-11-17T17:34:13Z</time>
      </trkpt>
      <trkpt lat="45.8891" lon="2.96758">
        <ele>794.8</ele>
        <time>2014-11-17T17:34:13Z</time>
      </trkpt>
      <trkpt lat="45.8891" lon="2.96768">
        <ele>794.5</ele>
        <time>2014-11-17T17:34:13Z</time>
      </trkpt>
      <trkpt lat="45.88909" lon="2.96777">
        <ele>794.3</ele>
        <time>2014-11-17T17:34:13Z</time>
      </trkpt>
      <trkpt lat="45.88909" lon="2.96786">
        <ele>794.3</ele>
        <time>2014-11-17T17:34:13Z</time>
      </trkpt>
      <trkpt lat="45.88907" lon="2.96793">
        <ele>794.4</ele>
        <time>2014-11-17T17:34:13Z</time>
      </trkpt>
      <trkpt lat="45.88905" lon="2.96801">
        <ele>794.4</ele>
        <time>2014-11-17T17:34:13Z</time>
      </trkpt>
      <trkpt lat="45.88903" lon="2.96811">
        <ele>794.4</ele>
        <time>2014-11-17T17:34:13Z</time>
      </trkpt>
      <trkpt lat="45.88902" lon="2.96819">
        <ele>794.3</ele>
        <time>2014-11-17T17:34:13Z</time>
      </trkpt>
      <trkpt lat="45.88901" lon="2.96827">
        <ele>794.1</ele>
        <time>2014-11-17T17:34:13Z</time>
      </trkpt>
      <trkpt lat="45.889" lon="2.96834">
        <ele>794</ele>
        <time>2014-11-17T17:34:13Z</time>
      </trkpt>
      <trkpt lat="45.88898" lon="2.96841">
        <ele>794</ele>
        <time>2014-11-17T17:34:13Z</time>
      </trkpt>
      <trkpt lat="45.88896" lon="2.96849">
        <ele>794</ele>
        <time>2014-11-17T17:34:13Z</time>
      </trkpt>
      <trkpt lat="45.88893" lon="2.96858">
        <ele>794</ele>
        <time>2014-11-17T17:34:13Z</time>
      </trkpt>
      <trkpt lat="45.88892" lon="2.96867">
        <ele>793.8</ele>
        <time>2014-11-17T17:34:13Z</time>
      </trkpt>
      <trkpt lat="45.88889" lon="2.96874">
        <ele>793.5</ele>
        <time>2014-11-17T17:34:13Z</time>
      </trkpt>
      <trkpt lat="45.88889" lon="2.96883">
        <ele>793.2</ele>
        <time>2014-11-17T17:34:13Z</time>
      </trkpt>
      <trkpt lat="45.88889" lon="2.96891">
        <ele>793.1</ele>
        <time>2014-11-17T17:34:13Z</time>
      </trkpt>
      <trkpt lat="45.88887" lon="2.96898">
        <ele>793.5</ele>
        <time>2014-11-17T17:34:13Z</time>
      </trkpt>
      <trkpt lat="45.88884" lon="2.96906">
        <ele>793.8</ele>
        <time>2014-11-17T17:34:13Z</time>
      </trkpt>
      <trkpt lat="45.88883" lon="2.96913">
        <ele>794.1</ele>
        <time>2014-11-17T17:34:13Z</time>
      </trkpt>
      <trkpt lat="45.88882" lon="2.96921">
        <ele>794.1</ele>
        <time>2014-11-17T17:34:13Z</time>
      </trkpt>
      <trkpt lat="45.88879" lon="2.96928">
        <ele>793.9</ele>
        <time>2014-11-17T17:34:13Z</time>
      </trkpt>
      <trkpt lat="45.88879" lon="2.96937">
        <ele>793.6</ele>
        <time>2014-11-17T17:34:13Z</time>
      </trkpt>
      <trkpt lat="45.88877" lon="2.96946">
        <ele>793.4</ele>
        <time>2014-11-17T17:34:13Z</time>
      </trkpt>
      <trkpt lat="45.88876" lon="2.96953">
        <ele>793.4</ele>
        <time>2014-11-17T17:34:13Z</time>
      </trkpt>
      <trkpt lat="45.88876" lon="2.96961">
        <ele>793.5</ele>
        <time>2014-11-17T17:34:13Z</time>
      </trkpt>
      <trkpt lat="45.88874" lon="2.96968">
        <ele>793.5</ele>
        <time>2014-11-17T17:34:13Z</time>
      </trkpt>
      <trkpt lat="45.88871" lon="2.96976">
        <ele>793.5</ele>
        <time>2014-11-17T17:34:13Z</time>
      </trkpt>
      <trkpt lat="45.88867" lon="2.96981">
        <ele>793.5</ele>
        <time>2014-11-17T17:34:13Z</time>
      </trkpt>
      <trkpt lat="45.88865" lon="2.96991">
        <ele>793.3</ele>
        <time>2014-11-17T17:34:13Z</time>
      </trkpt>
      <trkpt lat="45.88861" lon="2.96998">
        <ele>793.1</ele>
        <time>2014-11-17T17:34:13Z</time>
      </trkpt>
      <trkpt lat="45.88858" lon="2.97005">
        <ele>792.9</ele>
        <time>2014-11-17T17:34:13Z</time>
      </trkpt>
      <trkpt lat="45.88855" lon="2.97011">
        <ele>792.7</ele>
        <time>2014-11-17T17:34:13Z</time>
      </trkpt>
      <trkpt lat="45.88852" lon="2.97017">
        <ele>792.6</ele>
        <time>2014-11-17T17:34:13Z</time>
      </trkpt>
      <trkpt lat="45.8885" lon="2.97023">
        <ele>792.5</ele>
        <time>2014-11-17T17:34:13Z</time>
      </trkpt>
      <trkpt lat="45.88848" lon="2.97028">
        <ele>792.5</ele>
        <time>2014-11-17T17:34:13Z</time>
      </trkpt>
      <trkpt lat="45.88845" lon="2.97034">
        <ele>792.6</ele>
        <time>2014-11-17T17:34:13Z</time>
      </trkpt>
      <trkpt lat="45.88842" lon="2.9704">
        <ele>792.7</ele>
        <time>2014-11-17T17:34:13Z</time>
      </trkpt>
      <trkpt lat="45.88838" lon="2.97047">
        <ele>792.8</ele>
        <time>2014-11-17T17:34:13Z</time>
      </trkpt>
      <trkpt lat="45.88834" lon="2.97053">
        <ele>793</ele>
        <time>2014-11-17T17:34:13Z</time>
      </trkpt>
      <trkpt lat="45.8883" lon="2.97059">
        <ele>792.8</ele>
        <time>2014-11-17T17:34:13Z</time>
      </trkpt>
      <trkpt lat="45.88828" lon="2.97063">
        <ele>792.6</ele>
        <time>2014-11-17T17:34:13Z</time>
      </trkpt>
      <trkpt lat="45.88824" lon="2.97071">
        <ele>792.3</ele>
        <time>2014-11-17T17:34:13Z</time>
      </trkpt>
      <trkpt lat="45.8882" lon="2.97077">
        <ele>792.1</ele>
        <time>2014-11-17T17:34:13Z</time>
      </trkpt>
      <trkpt lat="45.88817" lon="2.97084">
        <ele>792</ele>
        <time>2014-11-17T17:34:13Z</time>
      </trkpt>
      <trkpt lat="45.88814" lon="2.9709">
        <ele>792</ele>
        <time>2014-11-17T17:34:13Z</time>
      </trkpt>
      <trkpt lat="45.8881" lon="2.97095">
        <ele>792</ele>
        <time>2014-11-17T17:34:13Z</time>
      </trkpt>
      <trkpt lat="45.88807" lon="2.97101">
        <ele>792</ele>
        <time>2014-11-17T17:34:13Z</time>
      </trkpt>
      <trkpt lat="45.88802" lon="2.97109">
        <ele>792</ele>
        <time>2014-11-17T17:34:13Z</time>
      </trkpt>
      <trkpt lat="45.88799" lon="2.97113">
        <ele>792</ele>
        <time>2014-11-17T17:34:13Z</time>
      </trkpt>
      <trkpt lat="45.88795" lon="2.9712">
        <ele>791.8</ele>
        <time>2014-11-17T17:34:13Z</time>
      </trkpt>
      <trkpt lat="45.88793" lon="2.97126">
        <ele>791.7</ele>
        <time>2014-11-17T17:34:13Z</time>
      </trkpt>
      <trkpt lat="45.8879" lon="2.97132">
        <ele>791.7</ele>
        <time>2014-11-17T17:34:13Z</time>
      </trkpt>
      <trkpt lat="45.88786" lon="2.97135">
        <ele>791.7</ele>
        <time>2014-11-17T17:34:13Z</time>
      </trkpt>
      <trkpt lat="45.88782" lon="2.97142">
        <ele>791.7</ele>
        <time>2014-11-17T17:34:13Z</time>
      </trkpt>
      <trkpt lat="45.88778" lon="2.97147">
        <ele>791.7</ele>
        <time>2014-11-17T17:34:13Z</time>
      </trkpt>
      <trkpt lat="45.88774" lon="2.97155">
        <ele>791.4</ele>
        <time>2014-11-17T17:34:13Z</time>
      </trkpt>
      <trkpt lat="45.88771" lon="2.97164">
        <ele>791.3</ele>
        <time>2014-11-17T17:34:13Z</time>
      </trkpt>
      <trkpt lat="45.88767" lon="2.9717">
        <ele>791.4</ele>
        <time>2014-11-17T17:34:13Z</time>
      </trkpt>
      <trkpt lat="45.88763" lon="2.97177">
        <ele>791.5</ele>
        <time>2014-11-17T17:34:13Z</time>
      </trkpt>
      <trkpt lat="45.88762" lon="2.97185">
        <ele>791.6</ele>
        <time>2014-11-17T17:34:13Z</time>
      </trkpt>
      <trkpt lat="45.88758" lon="2.97194">
        <ele>791.7</ele>
        <time>2014-11-17T17:34:13Z</time>
      </trkpt>
      <trkpt lat="45.88754" lon="2.972">
        <ele>791.8</ele>
        <time>2014-11-17T17:34:13Z</time>
      </trkpt>
      <trkpt lat="45.8875" lon="2.97206">
        <ele>792</ele>
        <time>2014-11-17T17:34:13Z</time>
      </trkpt>
      <trkpt lat="45.88746" lon="2.97213">
        <ele>791.9</ele>
        <time>2014-11-17T17:34:13Z</time>
      </trkpt>
      <trkpt lat="45.88741" lon="2.97219">
        <ele>792</ele>
        <time>2014-11-17T17:34:13Z</time>
      </trkpt>
      <trkpt lat="45.88738" lon="2.97225">
        <ele>791.9</ele>
        <time>2014-11-17T17:34:13Z</time>
      </trkpt>
      <trkpt lat="45.88733" lon="2.97232">
        <ele>791.9</ele>
        <time>2014-11-17T17:34:13Z</time>
      </trkpt>
      <trkpt lat="45.88729" lon="2.97238">
        <ele>791.9</ele>
        <time>2014-11-17T17:34:13Z</time>
      </trkpt>
      <trkpt lat="45.88724" lon="2.97244">
        <ele>792</ele>
        <time>2014-11-17T17:34:13Z</time>
      </trkpt>
      <trkpt lat="45.8872" lon="2.9725">
        <ele>792</ele>
        <time>2014-11-17T17:34:13Z</time>
      </trkpt>
      <trkpt lat="45.88716" lon="2.97255">
        <ele>792</ele>
        <time>2014-11-17T17:34:13Z</time>
      </trkpt>
      <trkpt lat="45.88711" lon="2.9726">
        <ele>792</ele>
        <time>2014-11-17T17:34:13Z</time>
      </trkpt>
      <trkpt lat="45.88709" lon="2.97265">
        <ele>792</ele>
        <time>2014-11-17T17:34:13Z</time>
      </trkpt>
      <trkpt lat="45.88708" lon="2.97271">
        <ele>792</ele>
        <time>2014-11-17T17:34:13Z</time>
      </trkpt>
      <trkpt lat="45.88706" lon="2.97279">
        <ele>792</ele>
        <time>2014-11-17T17:34:13Z</time>
      </trkpt>
      <trkpt lat="45.88707" lon="2.97287">
        <ele>792</ele>
        <time>2014-11-17T17:34:13Z</time>
      </trkpt>
      <trkpt lat="45.88708" lon="2.97297">
        <ele>792</ele>
        <time>2014-11-17T17:34:13Z</time>
      </trkpt>
      <trkpt lat="45.88708" lon="2.97303">
        <ele>792</ele>
        <time>2014-11-17T17:34:13Z</time>
      </trkpt>
      <trkpt lat="45.88709" lon="2.97312">
        <ele>792.1</ele>
        <time>2014-11-17T17:34:13Z</time>
      </trkpt>
      <trkpt lat="45.88711" lon="2.97321">
        <ele>792.2</ele>
        <time>2014-11-17T17:34:13Z</time>
      </trkpt>
      <trkpt lat="45.88711" lon="2.9733">
        <ele>792.3</ele>
        <time>2014-11-17T17:34:13Z</time>
      </trkpt>
      <trkpt lat="45.88712" lon="2.97339">
        <ele>792.4</ele>
        <time>2014-11-17T17:34:13Z</time>
      </trkpt>
      <trkpt lat="45.88713" lon="2.97348">
        <ele>792.3</ele>
        <time>2014-11-17T17:34:13Z</time>
      </trkpt>
      <trkpt lat="45.88713" lon="2.97357">
        <ele>792.3</ele>
        <time>2014-11-17T17:34:13Z</time>
      </trkpt>
      <trkpt lat="45.88713" lon="2.97365">
        <ele>792.4</ele>
        <time>2014-11-17T17:34:13Z</time>
      </trkpt>
      <trkpt lat="45.88713" lon="2.97373">
        <ele>792.6</ele>
        <time>2014-11-17T17:34:13Z</time>
      </trkpt>
      <trkpt lat="45.88714" lon="2.97382">
        <ele>792.8</ele>
        <time>2014-11-17T17:34:13Z</time>
      </trkpt>
      <trkpt lat="45.88714" lon="2.97391">
        <ele>793</ele>
        <time>2014-11-17T17:34:13Z</time>
      </trkpt>
      <trkpt lat="45.88714" lon="2.974">
        <ele>793</ele>
        <time>2014-11-17T17:34:13Z</time>
      </trkpt>
      <trkpt lat="45.88715" lon="2.97408">
        <ele>793</ele>
        <time>2014-11-17T17:34:13Z</time>
      </trkpt>
      <trkpt lat="45.88715" lon="2.97417">
        <ele>793</ele>
        <time>2014-11-17T17:34:13Z</time>
      </trkpt>
      <trkpt lat="45.88715" lon="2.97425">
        <ele>793</ele>
        <time>2014-11-17T17:34:13Z</time>
      </trkpt>
      <trkpt lat="45.88715" lon="2.97434">
        <ele>793</ele>
        <time>2014-11-17T17:34:13Z</time>
      </trkpt>
      <trkpt lat="45.88715" lon="2.97442">
        <ele>793</ele>
        <time>2014-11-17T17:34:13Z</time>
      </trkpt>
      <trkpt lat="45.88716" lon="2.97451">
        <ele>793</ele>
        <time>2014-11-17T17:34:13Z</time>
      </trkpt>
      <trkpt lat="45.88716" lon="2.9746">
        <ele>793</ele>
        <time>2014-11-17T17:34:13Z</time>
      </trkpt>
      <trkpt lat="45.88716" lon="2.9747">
        <ele>793</ele>
        <time>2014-11-17T17:34:13Z</time>
      </trkpt>
      <trkpt lat="45.88716" lon="2.97478">
        <ele>793</ele>
        <time>2014-11-17T17:34:13Z</time>
      </trkpt>
      <trkpt lat="45.88715" lon="2.97486">
        <ele>792.9</ele>
        <time>2014-11-17T17:34:13Z</time>
      </trkpt>
      <trkpt lat="45.88716" lon="2.97495">
        <ele>792.8</ele>
        <time>2014-11-17T17:34:13Z</time>
      </trkpt>
      <trkpt lat="45.88716" lon="2.97503">
        <ele>792.7</ele>
        <time>2014-11-17T17:34:13Z</time>
      </trkpt>
      <trkpt lat="45.88717" lon="2.97511">
        <ele>792.5</ele>
        <time>2014-11-17T17:34:13Z</time>
      </trkpt>
      <trkpt lat="45.88716" lon="2.97519">
        <ele>792.2</ele>
        <time>2014-11-17T17:34:13Z</time>
      </trkpt>
      <trkpt lat="45.88716" lon="2.97527">
        <ele>792</ele>
        <time>2014-11-17T17:34:13Z</time>
      </trkpt>
      <trkpt lat="45.88716" lon="2.97536">
        <ele>792</ele>
        <time>2014-11-17T17:34:13Z</time>
      </trkpt>
      <trkpt lat="45.88714" lon="2.97544">
        <ele>792</ele>
        <time>2014-11-17T17:34:13Z</time>
      </trkpt>
      <trkpt lat="45.88714" lon="2.97555">
        <ele>792</ele>
        <time>2014-11-17T17:34:13Z</time>
      </trkpt>
      <trkpt lat="45.88714" lon="2.97565">
        <ele>792</ele>
        <time>2014-11-17T17:34:13Z</time>
      </trkpt>
      <trkpt lat="45.88715" lon="2.97575">
        <ele>792</ele>
        <time>2014-11-17T17:34:13Z</time>
      </trkpt>
      <trkpt lat="45.88716" lon="2.97584">
        <ele>792</ele>
        <time>2014-11-17T17:34:13Z</time>
      </trkpt>
      <trkpt lat="45.88716" lon="2.97592">
        <ele>792</ele>
        <time>2014-11-17T17:34:13Z</time>
      </trkpt>
      <trkpt lat="45.88716" lon="2.976">
        <ele>792</ele>
        <time>2014-11-17T17:34:13Z</time>
      </trkpt>
      <trkpt lat="45.88716" lon="2.97599">
        <ele>792</ele>
        <time>2014-11-17T17:34:13Z</time>
      </trkpt>
      <trkpt lat="45.88716" lon="2.976">
        <ele>792</ele>
        <time>2014-11-17T17:34:13Z</time>
      </trkpt>
      <trkpt lat="45.88716" lon="2.976">
        <ele>792</ele>
        <time>2014-11-17T17:34:13Z</time>
      </trkpt>
      <trkpt lat="45.88716" lon="2.976">
        <ele>792</ele>
        <time>2014-11-17T17:34:13Z</time>
      </trkpt>
      <trkpt lat="45.88717" lon="2.976">
        <ele>792</ele>
        <time>2014-11-17T17:34:13Z</time>
      </trkpt>
      <trkpt lat="45.88716" lon="2.976">
        <ele>792</ele>
        <time>2014-11-17T17:34:13Z</time>
      </trkpt>
      <trkpt lat="45.88716" lon="2.976">
        <ele>792</ele>
        <time>2014-11-17T17:34:13Z</time>
      </trkpt>
      <trkpt lat="45.88716" lon="2.976">
        <ele>792</ele>
        <time>2014-11-17T17:34:13Z</time>
      </trkpt>
      <trkpt lat="45.88719" lon="2.97603">
        <ele>792</ele>
        <time>2014-11-17T17:34:13Z</time>
      </trkpt>
      <trkpt lat="45.88721" lon="2.97611">
        <ele>792</ele>
        <time>2014-11-17T17:34:13Z</time>
      </trkpt>
      <trkpt lat="45.88721" lon="2.97618">
        <ele>792.3</ele>
        <time>2014-11-17T17:34:13Z</time>
      </trkpt>
      <trkpt lat="45.88722" lon="2.97625">
        <ele>792.5</ele>
        <time>2014-11-17T17:34:13Z</time>
      </trkpt>
      <trkpt lat="45.88724" lon="2.97633">
        <ele>792.7</ele>
        <time>2014-11-17T17:34:13Z</time>
      </trkpt>
      <trkpt lat="45.88728" lon="2.97643">
        <ele>792.5</ele>
        <time>2014-11-17T17:34:13Z</time>
      </trkpt>
      <trkpt lat="45.88732" lon="2.97651">
        <ele>792.1</ele>
        <time>2014-11-17T17:34:13Z</time>
      </trkpt>
      <trkpt lat="45.88735" lon="2.9766">
        <ele>792</ele>
        <time>2014-11-17T17:34:13Z</time>
      </trkpt>
      <trkpt lat="45.88738" lon="2.97669">
        <ele>792</ele>
        <time>2014-11-17T17:34:13Z</time>
      </trkpt>
      <trkpt lat="45.88743" lon="2.97677">
        <ele>792</ele>
        <time>2014-11-17T17:34:13Z</time>
      </trkpt>
      <trkpt lat="45.88748" lon="2.97686">
        <ele>792</ele>
        <time>2014-11-17T17:34:13Z</time>
      </trkpt>
      <trkpt lat="45.88749" lon="2.97694">
        <ele>792</ele>
        <time>2014-11-17T17:34:13Z</time>
      </trkpt>
      <trkpt lat="45.8875" lon="2.97702">
        <ele>792</ele>
        <time>2014-11-17T17:34:13Z</time>
      </trkpt>
      <trkpt lat="45.88752" lon="2.9771">
        <ele>792</ele>
        <time>2014-11-17T17:34:13Z</time>
      </trkpt>
      <trkpt lat="45.88755" lon="2.9772">
        <ele>792</ele>
        <time>2014-11-17T17:34:13Z</time>
      </trkpt>
      <trkpt lat="45.88756" lon="2.97727">
        <ele>792</ele>
        <time>2014-11-17T17:34:13Z</time>
      </trkpt>
      <trkpt lat="45.88756" lon="2.97736">
        <ele>792</ele>
        <time>2014-11-17T17:34:13Z</time>
      </trkpt>
      <trkpt lat="45.88756" lon="2.97745">
        <ele>792</ele>
        <time>2014-11-17T17:34:13Z</time>
      </trkpt>
      <trkpt lat="45.88757" lon="2.97753">
        <ele>792</ele>
        <time>2014-11-17T17:34:13Z</time>
      </trkpt>
      <trkpt lat="45.88757" lon="2.97762">
        <ele>792</ele>
        <time>2014-11-17T17:34:13Z</time>
      </trkpt>
      <trkpt lat="45.88757" lon="2.97769">
        <ele>792</ele>
        <time>2014-11-17T17:34:13Z</time>
      </trkpt>
      <trkpt lat="45.88758" lon="2.97778">
        <ele>792</ele>
        <time>2014-11-17T17:34:13Z</time>
      </trkpt>
      <trkpt lat="45.88759" lon="2.97786">
        <ele>791.6</ele>
        <time>2014-11-17T17:34:13Z</time>
      </trkpt>
      <trkpt lat="45.88759" lon="2.97793">
        <ele>791.3</ele>
        <time>2014-11-17T17:34:13Z</time>
      </trkpt>
      <trkpt lat="45.88759" lon="2.97801">
        <ele>790.9</ele>
        <time>2014-11-17T17:34:13Z</time>
      </trkpt>
      <trkpt lat="45.88758" lon="2.97808">
        <ele>790.7</ele>
        <time>2014-11-17T17:34:13Z</time>
      </trkpt>
      <trkpt lat="45.8876" lon="2.97815">
        <ele>790.6</ele>
        <time>2014-11-17T17:34:13Z</time>
      </trkpt>
      <trkpt lat="45.8876" lon="2.97822">
        <ele>790.6</ele>
        <time>2014-11-17T17:34:13Z</time>
      </trkpt>
      <trkpt lat="45.8876" lon="2.9783">
        <ele>790.7</ele>
        <time>2014-11-17T17:34:13Z</time>
      </trkpt>
      <trkpt lat="45.88759" lon="2.97838">
        <ele>790.7</ele>
        <time>2014-11-17T17:34:13Z</time>
      </trkpt>
      <trkpt lat="45.8876" lon="2.97845">
        <ele>790.8</ele>
        <time>2014-11-17T17:34:13Z</time>
      </trkpt>
      <trkpt lat="45.88758" lon="2.97852">
        <ele>790.9</ele>
        <time>2014-11-17T17:34:13Z</time>
      </trkpt>
      <trkpt lat="45.88758" lon="2.97859">
        <ele>791</ele>
        <time>2014-11-17T17:34:13Z</time>
      </trkpt>
      <trkpt lat="45.88757" lon="2.97867">
        <ele>790.9</ele>
        <time>2014-11-17T17:34:13Z</time>
      </trkpt>
      <trkpt lat="45.88757" lon="2.97875">
        <ele>790.9</ele>
        <time>2014-11-17T17:34:13Z</time>
      </trkpt>
      <trkpt lat="45.88756" lon="2.97883">
        <ele>790.8</ele>
        <time>2014-11-17T17:34:13Z</time>
      </trkpt>
      <trkpt lat="45.88754" lon="2.9789">
        <ele>790.8</ele>
        <time>2014-11-17T17:34:13Z</time>
      </trkpt>
      <trkpt lat="45.88753" lon="2.97898">
        <ele>790.9</ele>
        <time>2014-11-17T17:34:13Z</time>
      </trkpt>
      <trkpt lat="45.88753" lon="2.97907">
        <ele>790.9</ele>
        <time>2014-11-17T17:34:13Z</time>
      </trkpt>
      <trkpt lat="45.88752" lon="2.97915">
        <ele>790.9</ele>
        <time>2014-11-17T17:34:13Z</time>
      </trkpt>
      <trkpt lat="45.88753" lon="2.97924">
        <ele>790.9</ele>
        <time>2014-11-17T17:34:13Z</time>
      </trkpt>
      <trkpt lat="45.88752" lon="2.97931">
        <ele>790.9</ele>
        <time>2014-11-17T17:34:13Z</time>
      </trkpt>
      <trkpt lat="45.88751" lon="2.97938">
        <ele>791</ele>
        <time>2014-11-17T17:34:13Z</time>
      </trkpt>
      <trkpt lat="45.88751" lon="2.97946">
        <ele>791</ele>
        <time>2014-11-17T17:34:13Z</time>
      </trkpt>
      <trkpt lat="45.88752" lon="2.97953">
        <ele>790.9</ele>
        <time>2014-11-17T17:34:13Z</time>
      </trkpt>
      <trkpt lat="45.88753" lon="2.97958">
        <ele>790.9</ele>
        <time>2014-11-17T17:34:13Z</time>
      </trkpt>
      <trkpt lat="45.88756" lon="2.97961">
        <ele>790.8</ele>
        <time>2014-11-17T17:34:13Z</time>
      </trkpt>
      <trkpt lat="45.88757" lon="2.97966">
        <ele>790.7</ele>
        <time>2014-11-17T17:34:13Z</time>
      </trkpt>
      <trkpt lat="45.88759" lon="2.97974">
        <ele>790.7</ele>
        <time>2014-11-17T17:34:13Z</time>
      </trkpt>
      <trkpt lat="45.88759" lon="2.97982">
        <ele>791</ele>
        <time>2014-11-17T17:34:13Z</time>
      </trkpt>
      <trkpt lat="45.88757" lon="2.97989">
        <ele>791.4</ele>
        <time>2014-11-17T17:34:13Z</time>
      </trkpt>
      <trkpt lat="45.88755" lon="2.97997">
        <ele>791.7</ele>
        <time>2014-11-17T17:34:13Z</time>
      </trkpt>
      <trkpt lat="45.88755" lon="2.98007">
        <ele>791.7</ele>
        <time>2014-11-17T17:34:13Z</time>
      </trkpt>
      <trkpt lat="45.88754" lon="2.98014">
        <ele>791.5</ele>
        <time>2014-11-17T17:34:13Z</time>
      </trkpt>
      <trkpt lat="45.88754" lon="2.98024">
        <ele>791.2</ele>
        <time>2014-11-17T17:34:13Z</time>
      </trkpt>
      <trkpt lat="45.88752" lon="2.98032">
        <ele>791.2</ele>
        <time>2014-11-17T17:34:13Z</time>
      </trkpt>
      <trkpt lat="45.88752" lon="2.9804">
        <ele>791.5</ele>
        <time>2014-11-17T17:34:13Z</time>
      </trkpt>
      <trkpt lat="45.88751" lon="2.98047">
        <ele>791.7</ele>
        <time>2014-11-17T17:34:13Z</time>
      </trkpt>
      <trkpt lat="45.88752" lon="2.98054">
        <ele>791.9</ele>
        <time>2014-11-17T17:34:13Z</time>
      </trkpt>
      <trkpt lat="45.88753" lon="2.98063">
        <ele>792</ele>
        <time>2014-11-17T17:34:13Z</time>
      </trkpt>
      <trkpt lat="45.88753" lon="2.98071">
        <ele>792</ele>
        <time>2014-11-17T17:34:13Z</time>
      </trkpt>
      <trkpt lat="45.88753" lon="2.9808">
        <ele>792</ele>
        <time>2014-11-17T17:34:13Z</time>
      </trkpt>
      <trkpt lat="45.88753" lon="2.98088">
        <ele>791.8</ele>
        <time>2014-11-17T17:34:13Z</time>
      </trkpt>
      <trkpt lat="45.88752" lon="2.98095">
        <ele>791.6</ele>
        <time>2014-11-17T17:34:13Z</time>
      </trkpt>
      <trkpt lat="45.8875" lon="2.98101">
        <ele>791.3</ele>
        <time>2014-11-17T17:34:13Z</time>
      </trkpt>
      <trkpt lat="45.8875" lon="2.98109">
        <ele>791.1</ele>
        <time>2014-11-17T17:34:13Z</time>
      </trkpt>
      <trkpt lat="45.88749" lon="2.98117">
        <ele>790.7</ele>
        <time>2014-11-17T17:34:13Z</time>
      </trkpt>
      <trkpt lat="45.88747" lon="2.98124">
        <ele>790.5</ele>
        <time>2014-11-17T17:34:13Z</time>
      </trkpt>
      <trkpt lat="45.88746" lon="2.98131">
        <ele>790.1</ele>
        <time>2014-11-17T17:34:13Z</time>
      </trkpt>
      <trkpt lat="45.88746" lon="2.98139">
        <ele>789.8</ele>
        <time>2014-11-17T17:34:13Z</time>
      </trkpt>
      <trkpt lat="45.88744" lon="2.98146">
        <ele>789.3</ele>
        <time>2014-11-17T17:34:13Z</time>
      </trkpt>
      <trkpt lat="45.88744" lon="2.98153">
        <ele>788.9</ele>
        <time>2014-11-17T17:34:13Z</time>
      </trkpt>
      <trkpt lat="45.88744" lon="2.98159">
        <ele>788.5</ele>
        <time>2014-11-17T17:34:13Z</time>
      </trkpt>
      <trkpt lat="45.8874" lon="2.98164">
        <ele>788.2</ele>
        <time>2014-11-17T17:34:13Z</time>
      </trkpt>
      <trkpt lat="45.88737" lon="2.98167">
        <ele>788</ele>
        <time>2014-11-17T17:34:13Z</time>
      </trkpt>
      <trkpt lat="45.88731" lon="2.98172">
        <ele>787.7</ele>
        <time>2014-11-17T17:34:13Z</time>
      </trkpt>
      <trkpt lat="45.88726" lon="2.98176">
        <ele>787.4</ele>
        <time>2014-11-17T17:34:13Z</time>
      </trkpt>
      <trkpt lat="45.88721" lon="2.98179">
        <ele>787.1</ele>
        <time>2014-11-17T17:34:13Z</time>
      </trkpt>
      <trkpt lat="45.88718" lon="2.98182">
        <ele>786.9</ele>
        <time>2014-11-17T17:34:13Z</time>
      </trkpt>
      <trkpt lat="45.88711" lon="2.98179">
        <ele>786.9</ele>
        <time>2014-11-17T17:34:13Z</time>
      </trkpt>
      <trkpt lat="45.88705" lon="2.98179">
        <ele>786.8</ele>
        <time>2014-11-17T17:34:13Z</time>
      </trkpt>
      <trkpt lat="45.887" lon="2.98179">
        <ele>786.6</ele>
        <time>2014-11-17T17:34:13Z</time>
      </trkpt>
      <trkpt lat="45.88695" lon="2.9818">
        <ele>786.5</ele>
        <time>2014-11-17T17:34:13Z</time>
      </trkpt>
      <trkpt lat="45.88689" lon="2.98179">
        <ele>786.4</ele>
        <time>2014-11-17T17:34:13Z</time>
      </trkpt>
      <trkpt lat="45.88683" lon="2.98177">
        <ele>786.3</ele>
        <time>2014-11-17T17:34:13Z</time>
      </trkpt>
      <trkpt lat="45.88677" lon="2.98177">
        <ele>786.2</ele>
        <time>2014-11-17T17:34:13Z</time>
      </trkpt>
      <trkpt lat="45.88672" lon="2.98177">
        <ele>786</ele>
        <time>2014-11-17T17:34:13Z</time>
      </trkpt>
      <trkpt lat="45.88666" lon="2.98177">
        <ele>785.9</ele>
        <time>2014-11-17T17:34:13Z</time>
      </trkpt>
      <trkpt lat="45.88662" lon="2.9818">
        <ele>785.4</ele>
        <time>2014-11-17T17:34:13Z</time>
      </trkpt>
      <trkpt lat="45.88659" lon="2.98183">
        <ele>785</ele>
        <time>2014-11-17T17:34:13Z</time>
      </trkpt>
      <trkpt lat="45.88657" lon="2.9819">
        <ele>784.4</ele>
        <time>2014-11-17T17:34:13Z</time>
      </trkpt>
      <trkpt lat="45.88658" lon="2.98198">
        <ele>783.7</ele>
        <time>2014-11-17T17:34:13Z</time>
      </trkpt>
      <trkpt lat="45.88658" lon="2.98204">
        <ele>783.2</ele>
        <time>2014-11-17T17:34:13Z</time>
      </trkpt>
      <trkpt lat="45.88656" lon="2.98212">
        <ele>782.5</ele>
        <time>2014-11-17T17:34:13Z</time>
      </trkpt>
      <trkpt lat="45.88656" lon="2.98219">
        <ele>781.9</ele>
        <time>2014-11-17T17:34:13Z</time>
      </trkpt>
      <trkpt lat="45.88659" lon="2.98225">
        <ele>781.4</ele>
        <time>2014-11-17T17:34:13Z</time>
      </trkpt>
      <trkpt lat="45.88662" lon="2.98231">
        <ele>780.9</ele>
        <time>2014-11-17T17:34:13Z</time>
      </trkpt>
      <trkpt lat="45.88666" lon="2.98234">
        <ele>780.7</ele>
        <time>2014-11-17T17:34:13Z</time>
      </trkpt>
      <trkpt lat="45.88672" lon="2.98238">
        <ele>780.4</ele>
        <time>2014-11-17T17:34:13Z</time>
      </trkpt>
      <trkpt lat="45.88676" lon="2.9824">
        <ele>780.4</ele>
        <time>2014-11-17T17:34:13Z</time>
      </trkpt>
      <trkpt lat="45.8868" lon="2.98243">
        <ele>780.3</ele>
        <time>2014-11-17T17:34:13Z</time>
      </trkpt>
      <trkpt lat="45.88683" lon="2.98248">
        <ele>779.8</ele>
        <time>2014-11-17T17:34:13Z</time>
      </trkpt>
      <trkpt lat="45.88685" lon="2.98251">
        <ele>779.6</ele>
        <time>2014-11-17T17:34:13Z</time>
      </trkpt>
      <trkpt lat="45.88689" lon="2.98254">
        <ele>779.4</ele>
        <time>2014-11-17T17:34:13Z</time>
      </trkpt>
      <trkpt lat="45.88694" lon="2.98259">
        <ele>779</ele>
        <time>2014-11-17T17:34:13Z</time>
      </trkpt>
      <trkpt lat="45.88698" lon="2.98266">
        <ele>778.2</ele>
        <time>2014-11-17T17:34:13Z</time>
      </trkpt>
      <trkpt lat="45.88702" lon="2.98273">
        <ele>777.5</ele>
        <time>2014-11-17T17:34:13Z</time>
      </trkpt>
      <trkpt lat="45.88707" lon="2.9828">
        <ele>776.9</ele>
        <time>2014-11-17T17:34:13Z</time>
      </trkpt>
      <trkpt lat="45.8871" lon="2.98284">
        <ele>776.6</ele>
        <time>2014-11-17T17:34:13Z</time>
      </trkpt>
      <trkpt lat="45.88712" lon="2.9829">
        <ele>776.3</ele>
        <time>2014-11-17T17:34:13Z</time>
      </trkpt>
      <trkpt lat="45.88716" lon="2.98295">
        <ele>775.9</ele>
        <time>2014-11-17T17:34:13Z</time>
      </trkpt>
      <trkpt lat="45.88719" lon="2.98302">
        <ele>775.4</ele>
        <time>2014-11-17T17:34:13Z</time>
      </trkpt>
      <trkpt lat="45.88721" lon="2.98309">
        <ele>774.9</ele>
        <time>2014-11-17T17:34:13Z</time>
      </trkpt>
      <trkpt lat="45.88721" lon="2.98317">
        <ele>774.6</ele>
        <time>2014-11-17T17:34:13Z</time>
      </trkpt>
      <trkpt lat="45.88721" lon="2.98322">
        <ele>774.4</ele>
        <time>2014-11-17T17:34:13Z</time>
      </trkpt>
      <trkpt lat="45.88722" lon="2.98331">
        <ele>774.1</ele>
        <time>2014-11-17T17:34:13Z</time>
      </trkpt>
      <trkpt lat="45.88724" lon="2.98339">
        <ele>773.7</ele>
        <time>2014-11-17T17:34:13Z</time>
      </trkpt>
      <trkpt lat="45.88724" lon="2.98346">
        <ele>773.4</ele>
        <time>2014-11-17T17:34:13Z</time>
      </trkpt>
      <trkpt lat="45.88723" lon="2.98354">
        <ele>773.2</ele>
        <time>2014-11-17T17:34:13Z</time>
      </trkpt>
      <trkpt lat="45.88721" lon="2.98363">
        <ele>773.1</ele>
        <time>2014-11-17T17:34:13Z</time>
      </trkpt>
      <trkpt lat="45.88718" lon="2.98369">
        <ele>773.3</ele>
        <time>2014-11-17T17:34:13Z</time>
      </trkpt>
      <trkpt lat="45.88713" lon="2.98375">
        <ele>773.7</ele>
        <time>2014-11-17T17:34:13Z</time>
      </trkpt>
      <trkpt lat="45.88712" lon="2.98383">
        <ele>773.7</ele>
        <time>2014-11-17T17:34:13Z</time>
      </trkpt>
      <trkpt lat="45.8871" lon="2.98391">
        <ele>773.9</ele>
        <time>2014-11-17T17:34:13Z</time>
      </trkpt>
      <trkpt lat="45.88707" lon="2.98399">
        <ele>773.9</ele>
        <time>2014-11-17T17:34:13Z</time>
      </trkpt>
      <trkpt lat="45.88702" lon="2.98405">
        <ele>774</ele>
        <time>2014-11-17T17:34:13Z</time>
      </trkpt>
      <trkpt lat="45.887" lon="2.98409">
        <ele>774</ele>
        <time>2014-11-17T17:34:13Z</time>
      </trkpt>
      <trkpt lat="45.88693" lon="2.98405">
        <ele>774.5</ele>
        <time>2014-11-17T17:34:13Z</time>
      </trkpt>
      <trkpt lat="45.88688" lon="2.98401">
        <ele>774.8</ele>
        <time>2014-11-17T17:34:13Z</time>
      </trkpt>
      <trkpt lat="45.88684" lon="2.98398">
        <ele>775</ele>
        <time>2014-11-17T17:34:13Z</time>
      </trkpt>
      <trkpt lat="45.8868" lon="2.98395">
        <ele>775.3</ele>
        <time>2014-11-17T17:34:13Z</time>
      </trkpt>
      <trkpt lat="45.88676" lon="2.98392">
        <ele>775.5</ele>
        <time>2014-11-17T17:34:13Z</time>
      </trkpt>
      <trkpt lat="45.88671" lon="2.98388">
        <ele>775.9</ele>
        <time>2014-11-17T17:34:13Z</time>
      </trkpt>
      <trkpt lat="45.88666" lon="2.98386">
        <ele>776</ele>
        <time>2014-11-17T17:34:13Z</time>
      </trkpt>
      <trkpt lat="45.88662" lon="2.98384">
        <ele>776.2</ele>
        <time>2014-11-17T17:34:13Z</time>
      </trkpt>
      <trkpt lat="45.88657" lon="2.98381">
        <ele>776.4</ele>
        <time>2014-11-17T17:34:13Z</time>
      </trkpt>
      <trkpt lat="45.88652" lon="2.98377">
        <ele>776.5</ele>
        <time>2014-11-17T17:34:13Z</time>
      </trkpt>
      <trkpt lat="45.88646" lon="2.98374">
        <ele>776.7</ele>
        <time>2014-11-17T17:34:13Z</time>
      </trkpt>
      <trkpt lat="45.88642" lon="2.98371">
        <ele>776.9</ele>
        <time>2014-11-17T17:34:13Z</time>
      </trkpt>
      <trkpt lat="45.88637" lon="2.98368">
        <ele>777</ele>
        <time>2014-11-17T17:34:13Z</time>
      </trkpt>
      <trkpt lat="45.88631" lon="2.98364">
        <ele>777</ele>
        <time>2014-11-17T17:34:13Z</time>
      </trkpt>
      <trkpt lat="45.88626" lon="2.9836">
        <ele>777</ele>
        <time>2014-11-17T17:34:13Z</time>
      </trkpt>
      <trkpt lat="45.8862" lon="2.98358">
        <ele>777.1</ele>
        <time>2014-11-17T17:34:13Z</time>
      </trkpt>
      <trkpt lat="45.88616" lon="2.98357">
        <ele>777.1</ele>
        <time>2014-11-17T17:34:13Z</time>
      </trkpt>
      <trkpt lat="45.88612" lon="2.98357">
        <ele>777.1</ele>
        <time>2014-11-17T17:34:13Z</time>
      </trkpt>
      <trkpt lat="45.88607" lon="2.98359">
        <ele>777.2</ele>
        <time>2014-11-17T17:34:13Z</time>
      </trkpt>
      <trkpt lat="45.88601" lon="2.98355">
        <ele>777.6</ele>
        <time>2014-11-17T17:34:13Z</time>
      </trkpt>
      <trkpt lat="45.88594" lon="2.9835">
        <ele>778</ele>
        <time>2014-11-17T17:34:13Z</time>
      </trkpt>
      <trkpt lat="45.88589" lon="2.98347">
        <ele>778.3</ele>
        <time>2014-11-17T17:34:13Z</time>
      </trkpt>
      <trkpt lat="45.88585" lon="2.98345">
        <ele>778.5</ele>
        <time>2014-11-17T17:34:13Z</time>
      </trkpt>
    </trkseg>
  </trk>
</gpx>